Time,TemperatureF,DewpointF,PressureIn,WindDirection,WindDirectionDegrees,WindSpeedMPH,WindSpeedGustMPH,Humidity,HourlyPrecipIn,Conditions,Clouds,dailyrainin,SoftwareType,DateUTC
2013-05-08 00:00:00,68.2,38.8,30.15,NNW,338,2.0,2.9,34,0.00,,,0.00,VWS V14.01,2013-05-08 04:00:00,
2013-05-08 00:01:00,66.4,36.4,30.09,WNW,292,0.0,0.0,33,0.00,,,0.00,VWS V14.01,2013-05-08 04:01:00,
2013-05-08 00:02:00,68.9,38.6,30.09,SSW,202,1.3,3.6,33,0.00,,,0.00,VWS V14.01,2013-05-08 04:02:00,
2013-05-08 00:03:00,68.9,38.6,30.09,ESE,112,2.5,3.8,33,0.00,,,0.00,VWS V14.01,2013-05-08 04:03:00,
2013-05-08 00:04:00,68.9,38.6,30.09,West,270,3.4,3.4,33,0.00,,,0.00,VWS V14.01,2013-05-08 04:04:00,
2013-05-08 00:05:00,69.1,38.8,30.09,West,270,1.3,3.6,33,0.00,,,0.00,VWS V14.01,2013-05-08 04:05:00,
2013-05-08 00:06:00,68.9,38.6,30.09,West,270,3.6,3.8,33,0.00,,,0.00,VWS V14.01,2013-05-08 04:06:00,
2013-05-08 00:07:00,69.1,38.8,30.09,WNW,292,4.9,4.9,33,0.00,,,0.00,VWS V14.01,2013-05-08 04:07:00,
2013-05-08 00:08:00,69.1,38.8,30.09,West,270,2.9,4.9,33,0.00,,,0.00,VWS V14.01,2013-05-08 04:08:00,
2013-05-08 00:09:00,69.1,38.8,30.09,WNW,292,2.9,3.1,33,0.00,,,0.00,VWS V14.01,2013-05-08 04:09:00,
2013-05-08 00:11:00,69.1,38.8,30.09,WNW,292,2.9,2.9,33,0.00,,,0.00,VWS V14.01,2013-05-08 04:11:00,
2013-05-08 00:12:00,69.1,38.8,30.09,NW,315,2.7,4.3,33,0.00,,,0.00,VWS V14.01,2013-05-08 04:12:00,
2013-05-08 00:13:00,69.1,38.8,30.09,WNW,292,3.1,3.1,33,0.00,,,0.00,VWS V14.01,2013-05-08 04:13:00,
2013-05-08 00:14:00,69.1,38.8,30.09,WNW,292,3.8,3.8,33,0.00,,,0.00,VWS V14.01,2013-05-08 04:14:00,
2013-05-08 00:15:00,69.1,38.8,30.09,NNE,22,3.4,3.8,33,0.00,,,0.00,VWS V14.01,2013-05-08 04:15:00,
2013-05-08 00:16:00,69.1,38.8,30.09,West,270,2.2,3.4,33,0.00,,,0.00,VWS V14.01,2013-05-08 04:16:00,
2013-05-08 00:17:00,65.7,35.8,30.09,NNW,338,0.0,0.0,33,0.00,,,0.00,VWS V14.01,2013-05-08 04:17:00,
2013-05-08 00:18:00,69.1,38.8,30.09,North,0,3.8,3.8,33,0.00,,,0.00,VWS V14.01,2013-05-08 04:18:00,
2013-05-08 00:19:00,69.1,38.0,30.09,West,270,2.7,3.8,32,0.00,,,0.00,VWS V14.01,2013-05-08 04:19:00,
2013-05-08 00:20:00,69.1,38.0,30.09,WSW,248,3.1,3.4,32,0.00,,,0.00,VWS V14.01,2013-05-08 04:20:00,
2013-05-08 00:21:00,69.1,38.0,30.09,West,270,2.5,3.1,32,0.00,,,0.00,VWS V14.01,2013-05-08 04:21:00,
2013-05-08 00:22:00,65.5,35.6,30.09,NNW,338,0.0,0.0,33,0.00,,,0.00,VWS V14.01,2013-05-08 04:22:00,
2013-05-08 00:23:00,69.1,38.0,30.09,West,270,3.4,3.4,32,0.00,,,0.00,VWS V14.01,2013-05-08 04:23:00,
2013-05-08 00:24:00,69.1,38.0,30.09,WSW,248,3.4,3.8,32,0.00,,,0.00,VWS V14.01,2013-05-08 04:24:00,
2013-05-08 00:25:00,69.1,38.0,30.09,West,270,2.9,3.4,32,0.00,,,0.00,VWS V14.01,2013-05-08 04:25:00,
2013-05-08 00:26:00,68.9,37.8,30.09,NNW,338,2.9,3.1,32,0.00,,,0.00,VWS V14.01,2013-05-08 04:26:00,
2013-05-08 00:27:00,65.5,36.4,30.09,NNW,338,0.0,0.0,34,0.00,,,0.00,VWS V14.01,2013-05-08 04:27:00,
2013-05-08 00:28:00,68.9,37.0,30.09,West,270,2.7,3.6,31,0.00,,,0.00,VWS V14.01,2013-05-08 04:28:00,
2013-05-08 00:29:00,68.9,37.0,30.09,WNW,292,2.0,3.1,31,0.00,,,0.00,VWS V14.01,2013-05-08 04:29:00,
2013-05-08 00:31:00,68.9,36.2,30.09,SW,225,2.5,2.5,30,0.00,,,0.00,VWS V14.01,2013-05-08 04:31:00,
2013-05-08 00:32:00,65.1,36.1,30.09,North,0,0.0,0.0,34,0.00,,,0.00,VWS V14.01,2013-05-08 04:32:00,
2013-05-08 00:33:00,68.7,36.1,30.09,North,0,1.6,2.7,30,0.00,,,0.00,VWS V14.01,2013-05-08 04:33:00,
2013-05-08 00:34:00,68.7,36.1,30.09,WNW,292,1.3,1.6,30,0.00,,,0.00,VWS V14.01,2013-05-08 04:34:00,
2013-05-08 00:35:00,68.7,36.1,30.09,West,270,0.0,2.0,30,0.00,,,0.00,VWS V14.01,2013-05-08 04:35:00,
2013-05-08 00:37:00,64.9,35.9,30.09,NNE,22,0.0,0.0,34,0.00,,,0.00,VWS V14.01,2013-05-08 04:37:00,
2013-05-08 00:38:00,68.5,35.9,30.09,WNW,292,1.3,1.6,30,0.00,,,0.00,VWS V14.01,2013-05-08 04:38:00,
2013-05-08 00:39:00,68.5,35.9,30.09,West,270,0.9,2.0,30,0.00,,,0.00,VWS V14.01,2013-05-08 04:39:00,
2013-05-08 00:40:00,68.4,35.8,30.09,NW,315,2.7,2.7,30,0.00,,,0.00,VWS V14.01,2013-05-08 04:40:00,
2013-05-08 00:41:00,68.4,35.8,30.09,West,270,0.9,2.7,30,0.00,,,0.00,VWS V14.01,2013-05-08 04:41:00,
2013-05-08 00:42:00,64.8,35.8,30.09,NNE,22,0.0,0.0,34,0.00,,,0.00,VWS V14.01,2013-05-08 04:42:00,
2013-05-08 00:43:00,68.4,35.8,30.09,SW,225,0.0,0.0,30,0.00,,,0.00,VWS V14.01,2013-05-08 04:43:00,
2013-05-08 00:44:00,68.4,35.8,30.09,West,270,2.7,2.7,30,0.00,,,0.00,VWS V14.01,2013-05-08 04:44:00,
2013-05-08 00:45:00,68.4,35.8,30.09,SE,135,1.3,2.7,30,0.00,,,0.00,VWS V14.01,2013-05-08 04:45:00,
2013-05-08 00:46:00,68.4,35.8,30.09,SE,135,1.3,1.3,30,0.00,,,0.00,VWS V14.01,2013-05-08 04:46:00,
2013-05-08 00:47:00,64.6,35.6,30.09,NNE,22,0.0,0.0,34,0.00,,,0.00,VWS V14.01,2013-05-08 04:47:00,
2013-05-08 00:48:00,68.4,35.8,30.09,WNW,292,1.6,2.0,30,0.00,,,0.00,VWS V14.01,2013-05-08 04:48:00,
2013-05-08 00:49:00,68.4,35.8,30.09,SW,225,0.9,1.6,30,0.00,,,0.00,VWS V14.01,2013-05-08 04:49:00,
2013-05-08 00:50:00,68.2,35.6,30.09,West,270,0.0,0.9,30,0.00,,,0.00,VWS V14.01,2013-05-08 04:50:00,
2013-05-08 00:51:00,68.2,35.6,30.09,West,270,0.0,0.0,30,0.00,,,0.00,VWS V14.01,2013-05-08 04:51:00,
2013-05-08 00:52:00,64.4,35.5,30.09,NNE,22,0.0,0.0,34,0.00,,,0.00,VWS V14.01,2013-05-08 04:52:00,
2013-05-08 00:53:00,68.0,35.4,30.09,North,0,1.3,2.7,30,0.00,,,0.00,VWS V14.01,2013-05-08 04:53:00,
2013-05-08 00:54:00,68.0,35.4,30.09,NNW,338,0.0,1.3,30,0.00,,,0.00,VWS V14.01,2013-05-08 04:54:00,
2013-05-08 00:55:00,68.0,35.4,30.09,WNW,292,0.0,0.0,30,0.00,,,0.00,VWS V14.01,2013-05-08 04:55:00,
2013-05-08 00:56:00,68.0,35.4,30.09,WNW,292,0.0,0.0,30,0.00,,,0.00,VWS V14.01,2013-05-08 04:56:00,
2013-05-08 00:57:00,64.2,36.0,30.09,NNE,22,0.0,0.0,35,0.00,,,0.00,VWS V14.01,2013-05-08 04:57:00,
2013-05-08 00:58:00,67.8,35.3,30.09,WNW,292,0.0,0.0,30,0.00,,,0.00,VWS V14.01,2013-05-08 04:58:00,
2013-05-08 00:59:00,67.8,36.1,30.09,WNW,292,0.0,0.0,31,0.00,,,0.00,VWS V14.01,2013-05-08 04:59:00,
2013-05-08 01:01:00,67.6,36.0,30.09,WNW,292,0.0,0.0,31,0.00,,,0.00,VWS V14.01,2013-05-08 05:01:00,
2013-05-08 01:02:00,63.9,35.7,30.09,NNE,22,0.0,0.0,35,0.00,,,0.00,VWS V14.01,2013-05-08 05:02:00,
2013-05-08 01:03:00,67.5,35.8,30.09,WNW,292,0.0,0.0,31,0.00,,,0.00,VWS V14.01,2013-05-08 05:03:00,
2013-05-08 01:04:00,67.5,35.8,30.09,WNW,292,0.0,0.0,31,0.00,,,0.00,VWS V14.01,2013-05-08 05:04:00,
2013-05-08 01:05:00,67.5,35.8,30.09,WNW,292,0.0,0.0,31,0.00,,,0.00,VWS V14.01,2013-05-08 05:05:00,
2013-05-08 01:06:00,67.3,34.8,30.09,SW,225,0.0,0.0,30,0.00,,,0.00,VWS V14.01,2013-05-08 05:06:00,
2013-05-08 01:07:00,63.5,36.1,30.09,NNE,22,0.0,0.0,36,0.00,,,0.00,VWS V14.01,2013-05-08 05:07:00,
2013-05-08 01:08:00,67.1,35.5,30.09,SW,225,0.0,0.0,31,0.00,,,0.00,VWS V14.01,2013-05-08 05:08:00,
2013-05-08 01:09:00,67.1,35.5,30.09,SW,225,0.0,0.0,31,0.00,,,0.00,VWS V14.01,2013-05-08 05:09:00,
2013-05-08 01:10:00,67.1,35.5,30.09,West,270,0.0,0.0,31,0.00,,,0.00,VWS V14.01,2013-05-08 05:10:00,
2013-05-08 01:11:00,67.1,35.5,30.09,WNW,292,0.0,0.0,31,0.00,,,0.00,VWS V14.01,2013-05-08 05:11:00,
2013-05-08 01:12:00,63.5,36.1,30.09,NNE,22,0.0,0.0,36,0.00,,,0.00,VWS V14.01,2013-05-08 05:12:00,
2013-05-08 01:13:00,67.1,35.5,30.09,West,270,1.3,1.3,31,0.00,,,0.00,VWS V14.01,2013-05-08 05:13:00,
2013-05-08 01:15:00,67.1,36.3,30.09,West,270,0.0,1.3,32,0.00,,,0.00,VWS V14.01,2013-05-08 05:15:00,
2013-05-08 01:16:00,67.1,37.1,30.09,WNW,292,1.1,1.1,33,0.00,,,0.00,VWS V14.01,2013-05-08 05:16:00,
2013-05-08 01:17:00,63.9,37.1,30.09,NNE,22,0.0,0.0,37,0.00,,,0.00,VWS V14.01,2013-05-08 05:17:00,
2013-05-08 01:18:00,67.3,37.2,30.09,SW,225,0.9,1.3,33,0.00,,,0.00,VWS V14.01,2013-05-08 05:18:00,
2013-05-08 01:19:00,67.3,37.2,30.09,NW,315,0.0,0.9,33,0.00,,,0.00,VWS V14.01,2013-05-08 05:19:00,
2013-05-08 01:20:00,67.3,37.2,30.09,WNW,292,1.6,1.6,33,0.00,,,0.00,VWS V14.01,2013-05-08 05:20:00,
2013-05-08 01:21:00,67.3,37.2,30.09,NNW,338,0.0,1.6,33,0.00,,,0.00,VWS V14.01,2013-05-08 05:21:00,
2013-05-08 01:22:00,63.7,37.0,30.09,NNE,22,0.0,0.0,37,0.00,,,0.00,VWS V14.01,2013-05-08 05:22:00,
2013-05-08 01:23:00,67.3,37.2,30.09,NNW,338,0.0,0.0,33,0.00,,,0.00,VWS V14.01,2013-05-08 05:23:00,
2013-05-08 01:25:00,67.1,37.1,30.09,WNW,292,0.0,0.0,33,0.00,,,0.00,VWS V14.01,2013-05-08 05:25:00,
2013-05-08 01:26:00,67.1,37.1,30.09,NNW,338,0.0,0.0,33,0.00,,,0.00,VWS V14.01,2013-05-08 05:26:00,
2013-05-08 01:27:00,63.3,36.6,30.09,NNE,22,0.0,0.0,37,0.00,,,0.00,VWS V14.01,2013-05-08 05:27:00,
2013-05-08 01:28:00,66.9,36.1,30.09,NW,315,0.0,0.0,32,0.00,,,0.00,VWS V14.01,2013-05-08 05:28:00,
2013-05-08 01:29:00,66.9,36.1,30.09,NW,315,0.0,0.0,32,0.00,,,0.00,VWS V14.01,2013-05-08 05:29:00,
2013-05-08 01:30:00,66.7,36.0,30.09,WNW,292,1.1,1.3,32,0.00,,,0.00,VWS V14.01,2013-05-08 05:30:00,
2013-05-08 01:31:00,66.7,36.0,30.09,WNW,292,0.0,1.1,32,0.00,,,0.00,VWS V14.01,2013-05-08 05:31:00,
2013-05-08 01:32:00,63.1,36.5,30.09,NNE,22,0.0,0.0,37,0.00,,,0.00,VWS V14.01,2013-05-08 05:32:00,
2013-05-08 01:34:00,66.6,35.8,30.09,WNW,292,0.0,0.0,32,0.00,,,0.00,VWS V14.01,2013-05-08 05:34:00,
2013-05-08 01:35:00,66.4,35.7,30.09,WNW,292,0.0,0.0,32,0.00,,,0.00,VWS V14.01,2013-05-08 05:35:00,
2013-05-08 01:36:00,66.4,36.4,30.09,WNW,292,0.0,0.0,33,0.00,,,0.00,VWS V14.01,2013-05-08 05:36:00,
2013-05-08 01:37:00,63.1,36.5,30.09,NNE,22,0.0,0.0,37,0.00,,,0.00,VWS V14.01,2013-05-08 05:37:00,
2013-05-08 01:38:00,66.2,35.5,30.09,NW,315,0.0,0.0,32,0.00,,,0.00,VWS V14.01,2013-05-08 05:38:00,
2013-05-08 01:39:00,66.2,36.3,30.09,NNW,338,0.0,0.0,33,0.00,,,0.00,VWS V14.01,2013-05-08 05:39:00,
2013-05-08 01:40:00,66.2,36.3,30.09,NW,315,0.0,0.0,33,0.00,,,0.00,VWS V14.01,2013-05-08 05:40:00,
2013-05-08 01:41:00,66.2,36.3,30.09,NNW,338,0.0,0.0,33,0.00,,,0.00,VWS V14.01,2013-05-08 05:41:00,
2013-05-08 01:42:00,63.1,36.5,30.09,NNE,22,0.0,0.0,37,0.00,,,0.00,VWS V14.01,2013-05-08 05:42:00,
2013-05-08 01:43:00,66.0,36.1,30.09,NW,315,0.0,0.0,33,0.00,,,0.00,VWS V14.01,2013-05-08 05:43:00,
2013-05-08 01:44:00,66.0,36.1,30.09,NNW,338,0.0,0.0,33,0.00,,,0.00,VWS V14.01,2013-05-08 05:44:00,
2013-05-08 01:45:00,66.0,36.1,30.09,NNW,338,0.0,0.0,33,0.00,,,0.00,VWS V14.01,2013-05-08 05:45:00,
2013-05-08 01:46:00,66.0,36.1,30.09,NNW,338,0.0,0.0,33,0.00,,,0.00,VWS V14.01,2013-05-08 05:46:00,
2013-05-08 01:47:00,63.0,37.0,30.09,NNE,22,0.0,0.0,38,0.00,,,0.00,VWS V14.01,2013-05-08 05:47:00,
2013-05-08 01:48:00,66.0,36.1,30.09,NNW,338,0.0,0.0,33,0.00,,,0.00,VWS V14.01,2013-05-08 05:48:00,
2013-05-08 01:49:00,65.8,36.0,30.09,NNW,338,0.0,0.0,33,0.00,,,0.00,VWS V14.01,2013-05-08 05:49:00,
2013-05-08 01:50:00,65.8,36.0,30.09,NNW,338,0.0,0.0,33,0.00,,,0.00,VWS V14.01,2013-05-08 05:50:00,
2013-05-08 01:51:00,65.8,36.0,30.09,NNW,338,0.0,0.0,33,0.00,,,0.00,VWS V14.01,2013-05-08 05:51:00,
2013-05-08 01:52:00,63.0,37.0,30.09,NNE,22,0.0,0.0,38,0.00,,,0.00,VWS V14.01,2013-05-08 05:52:00,
2013-05-08 01:53:00,65.7,35.8,30.09,NNW,338,0.0,0.0,33,0.00,,,0.00,VWS V14.01,2013-05-08 05:53:00,
2013-05-08 01:54:00,65.7,35.8,30.09,NNW,338,0.0,0.0,33,0.00,,,0.00,VWS V14.01,2013-05-08 05:54:00,
2013-05-08 01:55:00,65.7,35.8,30.09,NNW,338,0.0,0.0,33,0.00,,,0.00,VWS V14.01,2013-05-08 05:55:00,
2013-05-08 01:56:00,65.7,35.8,30.09,NNW,338,0.0,0.0,33,0.00,,,0.00,VWS V14.01,2013-05-08 05:56:00,
2013-05-08 01:57:00,63.0,37.0,30.09,NNE,22,0.0,0.0,38,0.00,,,0.00,VWS V14.01,2013-05-08 05:57:00,
2013-05-08 01:58:00,65.5,35.6,30.09,NNW,338,0.0,0.0,33,0.00,,,0.00,VWS V14.01,2013-05-08 05:58:00,
2013-05-08 01:59:00,65.5,35.6,30.09,NNW,338,0.0,0.0,33,0.00,,,0.00,VWS V14.01,2013-05-08 05:59:00,
2013-05-08 02:00:00,65.5,35.6,30.09,NNW,338,0.0,0.0,33,0.00,,,0.00,VWS V14.01,2013-05-08 06:00:00,
2013-05-08 02:01:00,65.5,36.4,30.09,NNW,338,0.0,0.0,34,0.00,,,0.00,VWS V14.01,2013-05-08 06:01:00,
2013-05-08 02:02:00,62.4,37.2,30.09,NNE,22,0.0,0.0,39,0.00,,,0.00,VWS V14.01,2013-05-08 06:02:00,
2013-05-08 02:03:00,65.5,36.4,30.09,NNW,338,0.0,0.0,34,0.00,,,0.00,VWS V14.01,2013-05-08 06:03:00,
2013-05-08 02:04:00,65.3,36.2,30.09,NNW,338,0.0,0.0,34,0.00,,,0.00,VWS V14.01,2013-05-08 06:04:00,
2013-05-08 02:05:00,65.3,36.2,30.09,NNW,338,0.0,0.0,34,0.00,,,0.00,VWS V14.01,2013-05-08 06:05:00,
2013-05-08 02:06:00,65.1,36.1,30.09,NNW,338,0.0,0.0,34,0.00,,,0.00,VWS V14.01,2013-05-08 06:06:00,
2013-05-08 02:07:00,62.4,37.2,30.06,NNE,22,0.0,0.0,39,0.00,,,0.00,VWS V14.01,2013-05-08 06:07:00,
2013-05-08 02:08:00,65.1,36.1,30.09,North,0,0.0,0.0,34,0.00,,,0.00,VWS V14.01,2013-05-08 06:08:00,
2013-05-08 02:09:00,65.1,36.1,30.09,North,0,0.0,0.0,34,0.00,,,0.00,VWS V14.01,2013-05-08 06:09:00,
2013-05-08 02:10:00,65.1,36.1,30.09,NNE,22,0.0,0.0,34,0.00,,,0.00,VWS V14.01,2013-05-08 06:10:00,
2013-05-08 02:11:00,64.9,35.9,30.09,NNE,22,0.0,0.0,34,0.00,,,0.00,VWS V14.01,2013-05-08 06:11:00,
2013-05-08 02:12:00,62.2,37.0,30.06,NNE,22,0.0,0.0,39,0.00,,,0.00,VWS V14.01,2013-05-08 06:12:00,
2013-05-08 02:13:00,64.9,35.9,30.09,NNE,22,0.0,0.0,34,0.00,,,0.00,VWS V14.01,2013-05-08 06:13:00,
2013-05-08 02:14:00,64.9,35.9,30.09,NNE,22,0.0,0.0,34,0.00,,,0.00,VWS V14.01,2013-05-08 06:14:00,
2013-05-08 02:15:00,64.8,35.8,30.09,NNE,22,0.0,0.0,34,0.00,,,0.00,VWS V14.01,2013-05-08 06:15:00,
2013-05-08 02:16:00,64.8,35.8,30.09,NNE,22,0.0,0.0,34,0.00,,,0.00,VWS V14.01,2013-05-08 06:16:00,
2013-05-08 02:17:00,62.1,37.5,30.06,NNE,22,0.0,0.0,40,0.00,,,0.00,VWS V14.01,2013-05-08 06:17:00,
2013-05-08 02:18:00,64.8,35.8,30.09,NNE,22,0.0,0.0,34,0.00,,,0.00,VWS V14.01,2013-05-08 06:18:00,
2013-05-08 02:19:00,64.8,35.8,30.09,NNE,22,0.0,0.0,34,0.00,,,0.00,VWS V14.01,2013-05-08 06:19:00,
2013-05-08 02:20:00,64.8,35.8,30.09,NNE,22,0.0,0.0,34,0.00,,,0.00,VWS V14.01,2013-05-08 06:20:00,
2013-05-08 02:21:00,64.8,35.8,30.09,NNE,22,0.0,0.0,34,0.00,,,0.00,VWS V14.01,2013-05-08 06:21:00,
2013-05-08 02:22:00,61.9,37.3,30.06,NNE,22,0.0,0.0,40,0.00,,,0.00,VWS V14.01,2013-05-08 06:22:00,
2013-05-08 02:23:00,64.6,35.6,30.09,NNE,22,0.0,0.0,34,0.00,,,0.00,VWS V14.01,2013-05-08 06:23:00,
2013-05-08 02:24:00,64.4,35.5,30.09,NNE,22,0.0,0.0,34,0.00,,,0.00,VWS V14.01,2013-05-08 06:24:00,
2013-05-08 02:25:00,64.4,35.5,30.09,NNE,22,0.0,0.0,34,0.00,,,0.00,VWS V14.01,2013-05-08 06:25:00,
2013-05-08 02:26:00,64.4,35.5,30.09,NNE,22,0.0,0.0,34,0.00,,,0.00,VWS V14.01,2013-05-08 06:26:00,
2013-05-08 02:27:00,61.9,38.0,30.06,NNE,22,0.0,0.0,41,0.00,,,0.00,VWS V14.01,2013-05-08 06:27:00,
2013-05-08 02:28:00,64.4,35.5,30.09,NNE,22,0.0,0.0,34,0.00,,,0.00,VWS V14.01,2013-05-08 06:28:00,
2013-05-08 02:29:00,64.4,35.5,30.09,NNE,22,0.0,0.0,34,0.00,,,0.00,VWS V14.01,2013-05-08 06:29:00,
2013-05-08 02:30:00,64.4,35.5,30.09,NNE,22,0.0,0.0,34,0.00,,,0.00,VWS V14.01,2013-05-08 06:30:00,
2013-05-08 02:31:00,64.2,36.0,30.09,NNE,22,0.0,0.0,35,0.00,,,0.00,VWS V14.01,2013-05-08 06:31:00,
2013-05-08 02:32:00,61.7,37.8,30.06,NNE,22,0.0,0.0,41,0.00,,,0.00,VWS V14.01,2013-05-08 06:32:00,
2013-05-08 02:33:00,64.2,36.0,30.09,NNE,22,0.0,0.0,35,0.00,,,0.00,VWS V14.01,2013-05-08 06:33:00,
2013-05-08 02:34:00,64.0,35.9,30.09,NNE,22,0.0,0.0,35,0.00,,,0.00,VWS V14.01,2013-05-08 06:34:00,
2013-05-08 02:35:00,63.9,35.7,30.09,NNE,22,0.0,0.0,35,0.00,,,0.00,VWS V14.01,2013-05-08 06:35:00,
2013-05-08 02:36:00,63.9,35.7,30.09,NNE,22,0.0,0.0,35,0.00,,,0.00,VWS V14.01,2013-05-08 06:36:00,
2013-05-08 02:37:00,61.9,38.0,30.06,NNE,22,0.0,0.0,41,0.00,,,0.00,VWS V14.01,2013-05-08 06:37:00,
2013-05-08 02:38:00,63.9,35.7,30.09,NNE,22,0.0,0.0,35,0.00,,,0.00,VWS V14.01,2013-05-08 06:38:00,
2013-05-08 02:39:00,63.7,35.5,30.09,NNE,22,0.0,0.0,35,0.00,,,0.00,VWS V14.01,2013-05-08 06:39:00,
2013-05-08 02:40:00,63.7,35.5,30.09,NNE,22,0.0,0.0,35,0.00,,,0.00,VWS V14.01,2013-05-08 06:40:00,
2013-05-08 02:41:00,63.7,35.5,30.09,NNE,22,0.0,0.0,35,0.00,,,0.00,VWS V14.01,2013-05-08 06:41:00,
2013-05-08 02:42:00,61.9,38.0,30.06,NNE,22,0.0,0.0,41,0.00,,,0.00,VWS V14.01,2013-05-08 06:42:00,
2013-05-08 02:43:00,63.5,36.1,30.09,NNE,22,0.0,0.0,36,0.00,,,0.00,VWS V14.01,2013-05-08 06:43:00,
2013-05-08 02:44:00,63.5,36.1,30.09,NNE,22,0.0,0.0,36,0.00,,,0.00,VWS V14.01,2013-05-08 06:44:00,
2013-05-08 02:45:00,63.5,36.1,30.09,NNE,22,0.0,0.0,36,0.00,,,0.00,VWS V14.01,2013-05-08 06:45:00,
2013-05-08 02:46:00,63.5,36.1,30.09,NNE,22,0.0,0.0,36,0.00,,,0.00,VWS V14.01,2013-05-08 06:46:00,
2013-05-08 02:47:00,63.5,36.1,30.09,NNE,22,0.0,0.0,36,0.00,,,0.00,VWS V14.01,2013-05-08 06:47:00,
2013-05-08 02:48:00,61.9,38.0,30.06,NNE,22,0.0,0.0,41,0.00,,,0.00,VWS V14.01,2013-05-08 06:48:00,
2013-05-08 02:49:00,63.5,36.1,30.09,NNE,22,0.0,0.0,36,0.00,,,0.00,VWS V14.01,2013-05-08 06:49:00,
2013-05-08 02:50:00,63.7,36.2,30.09,NNE,22,0.0,0.0,36,0.00,,,0.00,VWS V14.01,2013-05-08 06:50:00,
2013-05-08 02:51:00,63.7,36.2,30.09,NNE,22,0.0,0.0,36,0.00,,,0.00,VWS V14.01,2013-05-08 06:51:00,
2013-05-08 02:52:00,63.7,37.0,30.09,NNE,22,0.0,0.0,37,0.00,,,0.00,VWS V14.01,2013-05-08 06:52:00,
2013-05-08 02:53:00,61.9,38.6,30.06,NNE,22,0.0,0.0,42,0.00,,,0.00,VWS V14.01,2013-05-08 06:53:00,
2013-05-08 02:55:00,63.9,37.1,30.09,NNE,22,0.0,0.0,37,0.00,,,0.00,VWS V14.01,2013-05-08 06:55:00,
2013-05-08 02:57:00,63.7,37.0,30.09,NNE,22,0.0,0.0,37,0.00,,,0.00,VWS V14.01,2013-05-08 06:57:00,
2013-05-08 02:58:00,62.1,39.3,30.06,NNE,22,0.0,0.0,43,0.00,,,0.00,VWS V14.01,2013-05-08 06:58:00,
2013-05-08 03:00:00,63.5,36.1,30.09,NNE,22,0.0,0.0,36,0.00,,,0.00,VWS V14.01,2013-05-08 07:00:00,
2013-05-08 03:01:00,63.5,36.8,30.09,NNE,22,0.0,0.0,37,0.00,,,0.00,VWS V14.01,2013-05-08 07:01:00,
2013-05-08 03:02:00,63.3,36.6,30.09,NNE,22,0.0,0.0,37,0.00,,,0.00,VWS V14.01,2013-05-08 07:02:00,
2013-05-08 03:03:00,61.9,39.2,30.06,NNE,22,0.0,0.0,43,0.00,,,0.00,VWS V14.01,2013-05-08 07:03:00,
2013-05-08 03:04:00,63.1,36.5,30.09,NNE,22,0.0,0.0,37,0.00,,,0.00,VWS V14.01,2013-05-08 07:04:00,
2013-05-08 03:05:00,63.1,36.5,30.09,NNE,22,0.0,0.0,37,0.00,,,0.00,VWS V14.01,2013-05-08 07:05:00,
2013-05-08 03:06:00,63.1,36.5,30.09,NNE,22,0.0,0.0,37,0.00,,,0.00,VWS V14.01,2013-05-08 07:06:00,
2013-05-08 03:07:00,63.1,36.5,30.09,NNE,22,0.0,0.0,37,0.00,,,0.00,VWS V14.01,2013-05-08 07:07:00,
2013-05-08 03:08:00,61.7,39.0,30.06,NNE,22,0.0,0.0,43,0.00,,,0.00,VWS V14.01,2013-05-08 07:08:00,
2013-05-08 03:09:00,63.1,36.5,30.09,NNE,22,0.0,0.0,37,0.00,,,0.00,VWS V14.01,2013-05-08 07:09:00,
2013-05-08 03:10:00,63.1,36.5,30.09,NNE,22,0.0,0.0,37,0.00,,,0.00,VWS V14.01,2013-05-08 07:10:00,
2013-05-08 03:11:00,63.1,36.5,30.09,NNE,22,0.0,0.0,37,0.00,,,0.00,VWS V14.01,2013-05-08 07:11:00,
2013-05-08 03:12:00,63.1,36.5,30.09,NNE,22,0.0,0.0,37,0.00,,,0.00,VWS V14.01,2013-05-08 07:12:00,
2013-05-08 03:13:00,61.5,38.8,30.06,NNE,22,0.0,0.0,43,0.00,,,0.00,VWS V14.01,2013-05-08 07:13:00,
2013-05-08 03:14:00,63.1,36.5,30.09,NNE,22,0.0,0.0,37,0.00,,,0.00,VWS V14.01,2013-05-08 07:14:00,
2013-05-08 03:15:00,63.1,36.5,30.09,NNE,22,0.0,0.0,37,0.00,,,0.00,VWS V14.01,2013-05-08 07:15:00,
2013-05-08 03:16:00,63.1,36.5,30.09,NNE,22,0.0,0.0,37,0.00,,,0.00,VWS V14.01,2013-05-08 07:16:00,
2013-05-08 03:17:00,63.1,36.5,30.09,NNE,22,0.0,0.0,37,0.00,,,0.00,VWS V14.01,2013-05-08 07:17:00,
2013-05-08 03:18:00,61.5,38.8,30.06,NNE,22,0.0,0.0,43,0.00,,,0.00,VWS V14.01,2013-05-08 07:18:00,
2013-05-08 03:19:00,63.1,36.5,30.09,NNE,22,0.0,0.0,37,0.00,,,0.00,VWS V14.01,2013-05-08 07:19:00,
2013-05-08 03:20:00,63.1,36.5,30.09,NNE,22,0.0,0.0,37,0.00,,,0.00,VWS V14.01,2013-05-08 07:20:00,
2013-05-08 03:21:00,63.1,36.5,30.09,NNE,22,0.0,0.0,37,0.00,,,0.00,VWS V14.01,2013-05-08 07:21:00,
2013-05-08 03:22:00,63.1,36.5,30.09,NNE,22,0.0,0.0,37,0.00,,,0.00,VWS V14.01,2013-05-08 07:22:00,
2013-05-08 03:23:00,61.3,38.7,30.06,NNE,22,0.0,0.0,43,0.00,,,0.00,VWS V14.01,2013-05-08 07:23:00,
2013-05-08 03:24:00,63.0,37.0,30.09,NNE,22,0.0,0.0,38,0.00,,,0.00,VWS V14.01,2013-05-08 07:24:00,
2013-05-08 03:25:00,63.0,37.0,30.09,NNE,22,0.0,0.0,38,0.00,,,0.00,VWS V14.01,2013-05-08 07:25:00,
2013-05-08 03:26:00,63.0,37.0,30.09,NNE,22,0.0,0.0,38,0.00,,,0.00,VWS V14.01,2013-05-08 07:26:00,
2013-05-08 03:27:00,63.0,37.0,30.09,NNE,22,0.0,0.0,38,0.00,,,0.00,VWS V14.01,2013-05-08 07:27:00,
2013-05-08 03:28:00,61.3,39.3,30.06,NNE,22,0.0,0.0,44,0.00,,,0.00,VWS V14.01,2013-05-08 07:28:00,
2013-05-08 03:29:00,63.0,37.0,30.09,NNE,22,0.0,0.0,38,0.00,,,0.00,VWS V14.01,2013-05-08 07:29:00,
2013-05-08 03:30:00,63.0,37.0,30.09,NNE,22,0.0,0.0,38,0.00,,,0.00,VWS V14.01,2013-05-08 07:30:00,
2013-05-08 03:31:00,63.0,37.0,30.09,NNE,22,0.0,0.0,38,0.00,,,0.00,VWS V14.01,2013-05-08 07:31:00,
2013-05-08 03:32:00,63.0,37.0,30.09,NNE,22,0.0,0.0,38,0.00,,,0.00,VWS V14.01,2013-05-08 07:32:00,
2013-05-08 03:33:00,61.9,40.9,30.06,WNW,292,0.0,0.0,46,0.00,,,0.00,VWS V14.01,2013-05-08 07:33:00,
2013-05-08 03:34:00,63.0,37.0,30.09,NNE,22,0.0,0.0,38,0.00,,,0.00,VWS V14.01,2013-05-08 07:34:00,
2013-05-08 03:35:00,62.8,36.8,30.09,NNE,22,0.0,0.0,38,0.00,,,0.00,VWS V14.01,2013-05-08 07:35:00,
2013-05-08 03:36:00,62.8,36.8,30.09,NNE,22,0.0,0.0,38,0.00,,,0.00,VWS V14.01,2013-05-08 07:36:00,
2013-05-08 03:37:00,62.6,36.7,30.09,NNE,22,0.0,0.0,38,0.00,,,0.00,VWS V14.01,2013-05-08 07:37:00,
2013-05-08 03:38:00,62.2,40.7,30.06,WNW,292,0.0,0.0,45,0.00,,,0.00,VWS V14.01,2013-05-08 07:38:00,
2013-05-08 03:39:00,62.4,37.2,30.09,NNE,22,0.0,0.0,39,0.00,,,0.00,VWS V14.01,2013-05-08 07:39:00,
2013-05-08 03:40:00,62.4,37.2,30.09,NNE,22,0.0,0.0,39,0.00,,,0.00,VWS V14.01,2013-05-08 07:40:00,
2013-05-08 03:41:00,62.4,37.2,30.09,NNE,22,0.0,0.0,39,0.00,,,0.00,VWS V14.01,2013-05-08 07:41:00,
2013-05-08 03:42:00,62.4,37.2,30.09,NNE,22,0.0,0.0,39,0.00,,,0.00,VWS V14.01,2013-05-08 07:42:00,
2013-05-08 03:43:00,62.8,41.7,30.06,WNW,292,0.0,0.0,46,0.00,,,0.00,VWS V14.01,2013-05-08 07:43:00,
2013-05-08 03:44:00,62.4,37.2,30.06,NNE,22,0.0,0.0,39,0.00,,,0.00,VWS V14.01,2013-05-08 07:44:00,
2013-05-08 03:45:00,62.4,37.2,30.06,NNE,22,0.0,0.0,39,0.00,,,0.00,VWS V14.01,2013-05-08 07:45:00,
2013-05-08 03:46:00,62.4,37.2,30.06,NNE,22,0.0,0.0,39,0.00,,,0.00,VWS V14.01,2013-05-08 07:46:00,
2013-05-08 03:47:00,62.2,37.0,30.06,NNE,22,0.0,0.0,39,0.00,,,0.00,VWS V14.01,2013-05-08 07:47:00,
2013-05-08 03:48:00,62.6,41.0,30.06,NW,315,0.0,0.0,45,0.00,,,0.00,VWS V14.01,2013-05-08 07:48:00,
2013-05-08 03:49:00,62.2,37.0,30.06,NNE,22,0.0,0.0,39,0.00,,,0.00,VWS V14.01,2013-05-08 07:49:00,
2013-05-08 03:50:00,62.1,37.5,30.06,NNE,22,0.0,0.0,40,0.00,,,0.00,VWS V14.01,2013-05-08 07:50:00,
2013-05-08 03:51:00,62.1,37.5,30.06,NNE,22,0.0,0.0,40,0.00,,,0.00,VWS V14.01,2013-05-08 07:51:00,
2013-05-08 03:52:00,62.1,37.5,30.06,NNE,22,0.0,0.0,40,0.00,,,0.00,VWS V14.01,2013-05-08 07:52:00,
2013-05-08 03:53:00,62.4,40.2,30.06,WNW,292,0.0,0.0,44,0.00,,,0.00,VWS V14.01,2013-05-08 07:53:00,
2013-05-08 03:54:00,61.9,37.3,30.06,NNE,22,0.0,0.0,40,0.00,,,0.00,VWS V14.01,2013-05-08 07:54:00,
2013-05-08 03:55:00,61.9,37.3,30.06,NNE,22,0.0,0.0,40,0.00,,,0.00,VWS V14.01,2013-05-08 07:55:00,
2013-05-08 03:56:00,61.9,37.3,30.06,NNE,22,0.0,0.0,40,0.00,,,0.00,VWS V14.01,2013-05-08 07:56:00,
2013-05-08 03:57:00,61.9,37.3,30.06,NNE,22,0.0,0.0,40,0.00,,,0.00,VWS V14.01,2013-05-08 07:57:00,
2013-05-08 03:58:00,62.2,40.1,30.06,NW,315,0.0,0.0,44,0.00,,,0.00,VWS V14.01,2013-05-08 07:58:00,
2013-05-08 03:59:00,61.9,37.3,30.06,NNE,22,0.0,0.0,40,0.00,,,0.00,VWS V14.01,2013-05-08 07:59:00,
2013-05-08 04:00:00,61.9,37.3,30.06,NNE,22,0.0,0.0,40,0.00,,,0.00,VWS V14.01,2013-05-08 08:00:00,
2013-05-08 04:01:00,61.9,37.3,30.06,NNE,22,0.0,0.0,40,0.00,,,0.00,VWS V14.01,2013-05-08 08:01:00,
2013-05-08 04:02:00,61.9,37.9,30.06,NNE,22,0.0,0.0,41,0.00,,,0.00,VWS V14.01,2013-05-08 08:02:00,
2013-05-08 04:03:00,62.1,39.9,30.06,NNW,338,0.0,0.0,44,0.00,,,0.00,VWS V14.01,2013-05-08 08:03:00,
2013-05-08 04:04:00,61.9,37.9,30.06,NNE,22,0.0,0.0,41,0.00,,,0.00,VWS V14.01,2013-05-08 08:04:00,
2013-05-08 04:05:00,61.9,37.9,30.06,NNE,22,0.0,0.0,41,0.00,,,0.00,VWS V14.01,2013-05-08 08:05:00,
2013-05-08 04:06:00,61.9,37.9,30.06,NNE,22,0.0,0.0,41,0.00,,,0.00,VWS V14.01,2013-05-08 08:06:00,
2013-05-08 04:07:00,61.9,37.9,30.06,NNE,22,0.0,0.0,41,0.00,,,0.00,VWS V14.01,2013-05-08 08:07:00,
2013-05-08 04:08:00,62.1,39.9,30.06,NNW,338,0.0,0.0,44,0.00,,,0.00,VWS V14.01,2013-05-08 08:08:00,
2013-05-08 04:09:00,61.7,37.2,30.06,NNE,22,0.0,0.0,40,0.00,,,0.00,VWS V14.01,2013-05-08 08:09:00,
2013-05-08 04:11:00,61.7,37.8,30.06,NNE,22,0.0,0.0,41,0.00,,,0.00,VWS V14.01,2013-05-08 08:11:00,
2013-05-08 04:12:00,61.9,37.9,30.06,NNE,22,0.0,0.0,41,0.00,,,0.00,VWS V14.01,2013-05-08 08:12:00,
2013-05-08 04:13:00,61.9,39.2,30.06,North,0,0.0,0.0,43,0.00,,,0.00,VWS V14.01,2013-05-08 08:13:00,
2013-05-08 04:14:00,61.9,37.9,30.06,NNE,22,0.0,0.0,41,0.00,,,0.00,VWS V14.01,2013-05-08 08:14:00,
2013-05-08 04:15:00,61.9,37.9,30.06,NNE,22,0.0,0.0,41,0.00,,,0.00,VWS V14.01,2013-05-08 08:15:00,
2013-05-08 04:16:00,61.9,37.9,30.06,NNE,22,0.0,0.0,41,0.00,,,0.00,VWS V14.01,2013-05-08 08:16:00,
2013-05-08 04:17:00,61.9,37.9,30.06,NNE,22,0.0,0.0,41,0.00,,,0.00,VWS V14.01,2013-05-08 08:17:00,
2013-05-08 04:18:00,61.7,39.6,30.06,North,0,0.0,0.0,44,0.00,,,0.00,VWS V14.01,2013-05-08 08:18:00,
2013-05-08 04:19:00,61.9,37.9,30.06,NNE,22,0.0,0.0,41,0.00,,,0.00,VWS V14.01,2013-05-08 08:19:00,
2013-05-08 04:20:00,61.9,37.9,30.06,NNE,22,0.0,0.0,41,0.00,,,0.00,VWS V14.01,2013-05-08 08:20:00,
2013-05-08 04:21:00,61.9,37.9,30.06,NNE,22,0.0,0.0,41,0.00,,,0.00,VWS V14.01,2013-05-08 08:21:00,
2013-05-08 04:22:00,61.9,37.9,30.06,NNE,22,0.0,0.0,41,0.00,,,0.00,VWS V14.01,2013-05-08 08:22:00,
2013-05-08 04:23:00,61.5,39.4,30.06,North,0,0.0,0.0,44,0.00,,,0.00,VWS V14.01,2013-05-08 08:23:00,
2013-05-08 04:24:00,61.9,37.9,30.06,NNE,22,0.0,0.0,41,0.00,,,0.00,VWS V14.01,2013-05-08 08:24:00,
2013-05-08 04:25:00,61.9,38.6,30.06,NNE,22,0.0,0.0,42,0.00,,,0.00,VWS V14.01,2013-05-08 08:25:00,
2013-05-08 04:26:00,61.9,38.6,30.06,NNE,22,0.0,0.0,42,0.00,,,0.00,VWS V14.01,2013-05-08 08:26:00,
2013-05-08 04:27:00,61.9,38.6,30.06,NNE,22,0.0,0.0,42,0.00,,,0.00,VWS V14.01,2013-05-08 08:27:00,
2013-05-08 04:28:00,61.3,39.3,30.06,North,0,0.0,0.0,44,0.00,,,0.00,VWS V14.01,2013-05-08 08:28:00,
2013-05-08 04:29:00,61.9,38.6,30.06,NNE,22,0.0,0.0,42,0.00,,,0.00,VWS V14.01,2013-05-08 08:29:00,
2013-05-08 04:30:00,61.9,38.6,30.06,NNE,22,0.0,0.0,42,0.00,,,0.00,VWS V14.01,2013-05-08 08:30:00,
2013-05-08 04:31:00,61.9,38.6,30.06,NNE,22,0.0,0.0,42,0.00,,,0.00,VWS V14.01,2013-05-08 08:31:00,
2013-05-08 04:32:00,61.9,39.2,30.06,NNE,22,0.0,0.0,43,0.00,,,0.00,VWS V14.01,2013-05-08 08:32:00,
2013-05-08 04:33:00,61.3,39.3,30.06,North,0,0.0,0.0,44,0.00,,,0.00,VWS V14.01,2013-05-08 08:33:00,
2013-05-08 04:34:00,62.1,39.3,30.06,NNE,22,0.0,0.0,43,0.00,,,0.00,VWS V14.01,2013-05-08 08:34:00,
2013-05-08 04:35:00,62.1,39.3,30.06,NNE,22,0.0,0.0,43,0.00,,,0.00,VWS V14.01,2013-05-08 08:35:00,
2013-05-08 04:36:00,61.9,39.2,30.06,NNE,22,0.0,0.0,43,0.00,,,0.00,VWS V14.01,2013-05-08 08:36:00,
2013-05-08 04:37:00,61.9,39.2,30.06,NNE,22,0.0,0.0,43,0.00,,,0.00,VWS V14.01,2013-05-08 08:37:00,
2013-05-08 04:38:00,61.3,39.3,30.06,North,0,0.0,0.0,44,0.00,,,0.00,VWS V14.01,2013-05-08 08:38:00,
2013-05-08 04:39:00,61.9,38.6,30.06,NNE,22,0.0,0.0,42,0.00,,,0.00,VWS V14.01,2013-05-08 08:39:00,
2013-05-08 04:40:00,61.9,38.6,30.06,NNE,22,0.0,0.0,42,0.00,,,0.00,VWS V14.01,2013-05-08 08:40:00,
2013-05-08 04:41:00,61.7,39.0,30.06,NNE,22,0.0,0.0,43,0.00,,,0.00,VWS V14.01,2013-05-08 08:41:00,
2013-05-08 04:42:00,61.7,39.0,30.06,NNE,22,0.0,0.0,43,0.00,,,0.00,VWS V14.01,2013-05-08 08:42:00,
2013-05-08 04:43:00,61.0,38.9,30.09,North,0,0.0,0.0,44,0.00,,,0.00,VWS V14.01,2013-05-08 08:43:00,
2013-05-08 04:44:00,61.7,39.0,30.06,NNE,22,0.0,0.0,43,0.00,,,0.00,VWS V14.01,2013-05-08 08:44:00,
2013-05-08 04:45:00,61.7,39.0,30.06,NNE,22,0.0,0.0,43,0.00,,,0.00,VWS V14.01,2013-05-08 08:45:00,
2013-05-08 04:46:00,61.5,38.8,30.06,NNE,22,0.0,0.0,43,0.00,,,0.00,VWS V14.01,2013-05-08 08:46:00,
2013-05-08 04:47:00,61.5,38.8,30.06,NNE,22,0.0,0.0,43,0.00,,,0.00,VWS V14.01,2013-05-08 08:47:00,
2013-05-08 04:48:00,61.0,38.9,30.09,North,0,0.0,0.0,44,0.00,,,0.00,VWS V14.01,2013-05-08 08:48:00,
2013-05-08 04:49:00,61.5,38.8,30.06,NNE,22,0.0,0.0,43,0.00,,,0.00,VWS V14.01,2013-05-08 08:49:00,
2013-05-08 04:50:00,61.3,38.7,30.06,NNE,22,0.0,0.0,43,0.00,,,0.00,VWS V14.01,2013-05-08 08:50:00,
2013-05-08 04:51:00,61.3,38.7,30.06,NNE,22,0.0,0.0,43,0.00,,,0.00,VWS V14.01,2013-05-08 08:51:00,
2013-05-08 04:52:00,61.3,38.7,30.06,NNE,22,0.0,0.0,43,0.00,,,0.00,VWS V14.01,2013-05-08 08:52:00,
2013-05-08 04:53:00,61.2,39.1,30.06,East,90,0.0,0.0,44,0.00,,,0.00,VWS V14.01,2013-05-08 08:53:00,
2013-05-08 04:54:00,61.5,38.8,30.06,NNE,22,0.0,0.0,43,0.00,,,0.00,VWS V14.01,2013-05-08 08:54:00,
2013-05-08 04:55:00,61.3,38.7,30.06,NNE,22,0.0,0.0,43,0.00,,,0.00,VWS V14.01,2013-05-08 08:55:00,
2013-05-08 04:56:00,61.3,38.7,30.06,NNE,22,0.0,0.0,43,0.00,,,0.00,VWS V14.01,2013-05-08 08:56:00,
2013-05-08 04:57:00,61.3,38.7,30.06,NNE,22,0.0,0.0,43,0.00,,,0.00,VWS V14.01,2013-05-08 08:57:00,
2013-05-08 04:58:00,61.0,39.5,30.06,East,90,0.0,0.0,45,0.00,,,0.00,VWS V14.01,2013-05-08 08:58:00,
2013-05-08 04:59:00,61.3,38.7,30.06,NNE,22,0.0,0.0,43,0.00,,,0.00,VWS V14.01,2013-05-08 08:59:00,
2013-05-08 05:00:00,61.3,38.7,30.06,NNE,22,0.0,0.0,43,0.00,,,0.00,VWS V14.01,2013-05-08 09:00:00,
2013-05-08 05:01:00,61.3,38.7,30.06,NNE,22,0.0,0.0,43,0.00,,,0.00,VWS V14.01,2013-05-08 09:01:00,
2013-05-08 05:02:00,61.3,38.7,30.06,NNE,22,0.0,0.0,43,0.00,,,0.00,VWS V14.01,2013-05-08 09:02:00,
2013-05-08 05:03:00,61.0,39.5,30.06,East,90,0.0,0.0,45,0.00,,,0.00,VWS V14.01,2013-05-08 09:03:00,
2013-05-08 05:04:00,61.3,39.3,30.06,NNE,22,0.0,0.0,44,0.00,,,0.00,VWS V14.01,2013-05-08 09:04:00,
2013-05-08 05:05:00,61.7,40.2,30.06,NW,315,0.0,0.0,45,0.00,,,0.00,VWS V14.01,2013-05-08 09:05:00,
2013-05-08 05:06:00,61.9,41.5,30.06,NW,315,0.0,0.0,47,0.00,,,0.00,VWS V14.01,2013-05-08 09:06:00,
2013-05-08 05:07:00,61.9,41.5,30.06,NW,315,0.0,0.0,47,0.00,,,0.00,VWS V14.01,2013-05-08 09:07:00,
2013-05-08 05:08:00,60.8,39.3,30.09,East,90,0.0,0.0,45,0.00,,,0.00,VWS V14.01,2013-05-08 09:08:00,
2013-05-08 05:10:00,61.9,40.9,30.06,WNW,292,0.0,0.0,46,0.00,,,0.00,VWS V14.01,2013-05-08 09:10:00,
2013-05-08 05:11:00,62.2,41.2,30.06,WNW,292,0.0,0.0,46,0.00,,,0.00,VWS V14.01,2013-05-08 09:11:00,
2013-05-08 05:12:00,62.2,41.2,30.06,WNW,292,0.0,0.0,46,0.00,,,0.00,VWS V14.01,2013-05-08 09:12:00,
2013-05-08 05:13:00,60.6,39.8,30.09,ENE,68,0.0,0.0,46,0.00,,,0.00,VWS V14.01,2013-05-08 09:13:00,
2013-05-08 05:14:00,62.2,40.7,30.06,WNW,292,0.0,0.0,45,0.00,,,0.00,VWS V14.01,2013-05-08 09:14:00,
2013-05-08 05:15:00,62.4,41.4,30.06,WNW,292,0.0,0.0,46,0.00,,,0.00,VWS V14.01,2013-05-08 09:15:00,
2013-05-08 05:16:00,62.8,41.7,30.06,WNW,292,0.0,0.0,46,0.00,,,0.00,VWS V14.01,2013-05-08 09:16:00,
2013-05-08 05:17:00,62.8,41.7,30.06,WNW,292,0.0,0.0,46,0.00,,,0.00,VWS V14.01,2013-05-08 09:17:00,
2013-05-08 05:18:00,60.6,39.2,30.09,ENE,68,0.0,0.0,45,0.00,,,0.00,VWS V14.01,2013-05-08 09:18:00,
2013-05-08 05:19:00,62.8,41.7,30.06,WNW,292,0.0,0.0,46,0.00,,,0.00,VWS V14.01,2013-05-08 09:19:00,
2013-05-08 05:20:00,62.8,41.7,30.06,WNW,292,0.0,0.0,46,0.00,,,0.00,VWS V14.01,2013-05-08 09:20:00,
2013-05-08 05:21:00,62.8,41.7,30.06,NNW,338,0.0,0.0,46,0.00,,,0.00,VWS V14.01,2013-05-08 09:21:00,
2013-05-08 05:22:00,62.8,41.7,30.06,NNW,338,0.0,0.0,46,0.00,,,0.00,VWS V14.01,2013-05-08 09:22:00,
2013-05-08 05:23:00,60.6,39.8,30.09,ENE,68,0.0,0.0,46,0.00,,,0.00,VWS V14.01,2013-05-08 09:23:00,
2013-05-08 05:25:00,62.6,41.0,30.06,NW,315,0.0,0.0,45,0.00,,,0.00,VWS V14.01,2013-05-08 09:25:00,
2013-05-08 05:26:00,62.6,40.4,30.06,WNW,292,0.0,0.0,44,0.00,,,0.00,VWS V14.01,2013-05-08 09:26:00,
2013-05-08 05:27:00,62.6,40.4,30.06,WNW,292,0.0,0.0,44,0.00,,,0.00,VWS V14.01,2013-05-08 09:27:00,
2013-05-08 05:28:00,60.6,39.8,30.09,ENE,68,0.0,0.0,46,0.00,,,0.00,VWS V14.01,2013-05-08 09:28:00,
2013-05-08 05:29:00,62.4,40.2,30.06,WNW,292,0.0,0.0,44,0.00,,,0.00,VWS V14.01,2013-05-08 09:29:00,
2013-05-08 05:30:00,62.4,40.2,30.06,WNW,292,0.0,0.0,44,0.00,,,0.00,VWS V14.01,2013-05-08 09:30:00,
2013-05-08 05:31:00,62.2,40.1,30.06,WNW,292,0.0,0.0,44,0.00,,,0.00,VWS V14.01,2013-05-08 09:31:00,
2013-05-08 05:32:00,62.2,40.1,30.06,NNW,338,0.0,0.0,44,0.00,,,0.00,VWS V14.01,2013-05-08 09:32:00,
2013-05-08 05:33:00,60.4,39.6,30.09,ENE,68,0.0,0.0,46,0.00,,,0.00,VWS V14.01,2013-05-08 09:33:00,
2013-05-08 05:34:00,62.2,40.1,30.06,NW,315,0.0,0.0,44,0.00,,,0.00,VWS V14.01,2013-05-08 09:34:00,
2013-05-08 05:35:00,62.2,40.1,30.06,NW,315,0.0,0.0,44,0.00,,,0.00,VWS V14.01,2013-05-08 09:35:00,
2013-05-08 05:36:00,62.2,39.5,30.06,NNW,338,0.0,0.0,43,0.00,,,0.00,VWS V14.01,2013-05-08 09:36:00,
2013-05-08 05:37:00,62.2,40.1,30.06,NNW,338,0.0,0.0,44,0.00,,,0.00,VWS V14.01,2013-05-08 09:37:00,
2013-05-08 05:38:00,60.3,39.4,30.09,ENE,68,0.0,0.0,46,0.00,,,0.00,VWS V14.01,2013-05-08 09:38:00,
2013-05-08 05:39:00,62.1,39.9,30.06,NNW,338,0.0,0.0,44,0.00,,,0.00,VWS V14.01,2013-05-08 09:39:00,
2013-05-08 05:40:00,62.1,39.9,30.06,NNW,338,0.0,0.0,44,0.00,,,0.00,VWS V14.01,2013-05-08 09:40:00,
2013-05-08 05:41:00,62.1,39.9,30.06,NNW,338,0.0,0.0,44,0.00,,,0.00,VWS V14.01,2013-05-08 09:41:00,
2013-05-08 05:42:00,62.1,39.9,30.06,NNW,338,0.0,0.0,44,0.00,,,0.00,VWS V14.01,2013-05-08 09:42:00,
2013-05-08 05:43:00,60.3,39.4,30.09,ENE,68,0.0,0.0,46,0.00,,,0.00,VWS V14.01,2013-05-08 09:43:00,
2013-05-08 05:44:00,62.1,39.9,30.06,NNW,338,0.0,0.0,44,0.00,,,0.00,VWS V14.01,2013-05-08 09:44:00,
2013-05-08 05:45:00,62.1,39.9,30.06,NNW,338,0.0,0.0,44,0.00,,,0.00,VWS V14.01,2013-05-08 09:45:00,
2013-05-08 05:46:00,62.1,39.9,30.06,North,0,0.0,0.0,44,0.00,,,0.00,VWS V14.01,2013-05-08 09:46:00,
2013-05-08 05:47:00,61.9,39.2,30.06,North,0,0.0,0.0,43,0.00,,,0.00,VWS V14.01,2013-05-08 09:47:00,
2013-05-08 05:48:00,60.4,40.1,30.09,ENE,68,0.0,0.0,47,0.00,,,0.00,VWS V14.01,2013-05-08 09:48:00,
2013-05-08 05:49:00,61.9,39.2,30.06,North,0,0.0,0.0,43,0.00,,,0.00,VWS V14.01,2013-05-08 09:49:00,
2013-05-08 05:50:00,61.7,39.0,30.06,North,0,0.0,0.0,43,0.00,,,0.00,VWS V14.01,2013-05-08 09:50:00,
2013-05-08 05:51:00,61.7,39.0,30.06,North,0,0.0,0.0,43,0.00,,,0.00,VWS V14.01,2013-05-08 09:51:00,
2013-05-08 05:52:00,61.7,39.6,30.06,North,0,0.0,0.0,44,0.00,,,0.00,VWS V14.01,2013-05-08 09:52:00,
2013-05-08 05:53:00,60.4,40.1,30.09,ENE,68,0.0,0.0,47,0.00,,,0.00,VWS V14.01,2013-05-08 09:53:00,
2013-05-08 05:54:00,61.7,39.6,30.06,North,0,0.0,0.0,44,0.00,,,0.00,VWS V14.01,2013-05-08 09:54:00,
2013-05-08 05:55:00,61.7,39.6,30.06,North,0,0.0,0.0,44,0.00,,,0.00,VWS V14.01,2013-05-08 09:55:00,
2013-05-08 05:56:00,61.5,39.4,30.06,North,0,0.0,0.0,44,0.00,,,0.00,VWS V14.01,2013-05-08 09:56:00,
2013-05-08 05:57:00,61.5,39.4,30.06,North,0,0.0,0.0,44,0.00,,,0.00,VWS V14.01,2013-05-08 09:57:00,
2013-05-08 05:58:00,60.4,40.1,30.09,ENE,68,0.0,0.0,47,0.00,,,0.00,VWS V14.01,2013-05-08 09:58:00,
2013-05-08 05:59:00,61.5,39.4,30.06,North,0,0.0,0.0,44,0.00,,,0.00,VWS V14.01,2013-05-08 09:59:00,
2013-05-08 06:00:00,61.3,39.3,30.06,North,0,0.0,0.0,44,0.00,,,0.00,VWS V14.01,2013-05-08 10:00:00,
2013-05-08 06:01:00,61.3,39.3,30.06,North,0,0.0,0.0,44,0.00,,,0.00,VWS V14.01,2013-05-08 10:01:00,
2013-05-08 06:02:00,61.3,39.3,30.06,North,0,0.0,0.0,44,0.00,,,0.00,VWS V14.01,2013-05-08 10:02:00,
2013-05-08 06:03:00,60.1,39.8,30.09,ENE,68,0.0,0.0,47,0.00,,,0.00,VWS V14.01,2013-05-08 10:03:00,
2013-05-08 06:05:00,61.3,39.3,30.06,North,0,0.0,0.0,44,0.00,,,0.00,VWS V14.01,2013-05-08 10:05:00,
2013-05-08 06:06:00,61.3,39.3,30.06,North,0,0.0,0.0,44,0.00,,,0.00,VWS V14.01,2013-05-08 10:06:00,
2013-05-08 06:07:00,61.3,39.3,30.06,North,0,0.0,0.0,44,0.00,,,0.00,VWS V14.01,2013-05-08 10:07:00,
2013-05-08 06:08:00,60.1,39.8,30.09,ENE,68,0.0,0.0,47,0.00,,,0.00,VWS V14.01,2013-05-08 10:08:00,
2013-05-08 06:09:00,61.3,39.3,30.06,North,0,0.0,0.0,44,0.00,,,0.00,VWS V14.01,2013-05-08 10:09:00,
2013-05-08 06:10:00,61.3,39.3,30.06,North,0,0.0,0.0,44,0.00,,,0.00,VWS V14.01,2013-05-08 10:10:00,
2013-05-08 06:11:00,61.3,39.3,30.06,North,0,0.0,0.0,44,0.00,,,0.00,VWS V14.01,2013-05-08 10:11:00,
2013-05-08 06:12:00,61.3,39.3,30.06,North,0,0.0,0.0,44,0.00,,,0.00,VWS V14.01,2013-05-08 10:12:00,
2013-05-08 06:13:00,60.1,39.8,30.09,ENE,68,0.0,0.0,47,0.00,,,0.00,VWS V14.01,2013-05-08 10:13:00,
2013-05-08 06:14:00,61.3,39.3,30.06,North,0,0.0,0.0,44,0.00,,,0.00,VWS V14.01,2013-05-08 10:14:00,
2013-05-08 06:15:00,61.3,39.3,30.09,North,0,0.0,0.0,44,0.00,,,0.00,VWS V14.01,2013-05-08 10:15:00,
2013-05-08 06:16:00,61.2,39.1,30.09,North,0,0.0,0.0,44,0.00,,,0.00,VWS V14.01,2013-05-08 10:16:00,
2013-05-08 06:17:00,61.2,39.1,30.09,North,0,0.0,0.0,44,0.00,,,0.00,VWS V14.01,2013-05-08 10:17:00,
2013-05-08 06:18:00,60.1,39.8,30.09,ENE,68,0.0,0.0,47,0.00,,,0.00,VWS V14.01,2013-05-08 10:18:00,
2013-05-08 06:19:00,61.0,38.9,30.09,North,0,0.0,0.0,44,0.00,,,0.00,VWS V14.01,2013-05-08 10:19:00,
2013-05-08 06:20:00,61.0,38.9,30.09,North,0,0.0,0.0,44,0.00,,,0.00,VWS V14.01,2013-05-08 10:20:00,
2013-05-08 06:21:00,61.0,38.9,30.09,North,0,0.0,0.0,44,0.00,,,0.00,VWS V14.01,2013-05-08 10:21:00,
2013-05-08 06:22:00,61.0,38.9,30.09,North,0,0.0,0.0,44,0.00,,,0.00,VWS V14.01,2013-05-08 10:22:00,
2013-05-08 06:23:00,60.1,39.8,30.09,ENE,68,0.0,0.0,47,0.00,,,0.00,VWS V14.01,2013-05-08 10:23:00,
2013-05-08 06:24:00,61.0,38.9,30.09,North,0,0.0,0.0,44,0.00,,,0.00,VWS V14.01,2013-05-08 10:24:00,
2013-05-08 06:25:00,61.2,39.1,30.09,North,0,0.0,0.0,44,0.00,,,0.00,VWS V14.01,2013-05-08 10:25:00,
2013-05-08 06:26:00,61.2,39.1,30.09,North,0,0.0,0.0,44,0.00,,,0.00,VWS V14.01,2013-05-08 10:26:00,
2013-05-08 06:27:00,61.2,39.1,30.09,East,90,0.0,0.0,44,0.00,,,0.00,VWS V14.01,2013-05-08 10:27:00,
2013-05-08 06:28:00,61.2,39.1,30.06,East,90,0.0,0.0,44,0.00,,,0.00,VWS V14.01,2013-05-08 10:28:00,
2013-05-08 06:29:00,60.1,40.3,30.09,ENE,68,0.0,0.0,48,0.00,,,0.00,VWS V14.01,2013-05-08 10:29:00,
2013-05-08 06:30:00,61.2,39.7,30.06,East,90,0.0,0.0,45,0.00,,,0.00,VWS V14.01,2013-05-08 10:30:00,
2013-05-08 06:31:00,61.0,38.9,30.06,East,90,0.0,0.0,44,0.00,,,0.00,VWS V14.01,2013-05-08 10:31:00,
2013-05-08 06:32:00,61.0,38.9,30.06,East,90,0.0,0.0,44,0.00,,,0.00,VWS V14.01,2013-05-08 10:32:00,
2013-05-08 06:33:00,61.0,38.9,30.06,East,90,0.0,0.0,44,0.00,,,0.00,VWS V14.01,2013-05-08 10:33:00,
2013-05-08 06:34:00,60.1,40.3,30.09,ENE,68,0.0,0.0,48,0.00,,,0.00,VWS V14.01,2013-05-08 10:34:00,
2013-05-08 06:35:00,61.0,39.5,30.06,East,90,0.0,0.0,45,0.00,,,0.00,VWS V14.01,2013-05-08 10:35:00,
2013-05-08 06:36:00,61.0,39.5,30.06,East,90,0.0,0.0,45,0.00,,,0.00,VWS V14.01,2013-05-08 10:36:00,
2013-05-08 06:37:00,61.0,39.5,30.06,East,90,0.0,0.0,45,0.00,,,0.00,VWS V14.01,2013-05-08 10:37:00,
2013-05-08 06:38:00,61.0,39.5,30.06,East,90,0.0,0.0,45,0.00,,,0.00,VWS V14.01,2013-05-08 10:38:00,
2013-05-08 06:39:00,60.1,40.3,30.09,NE,45,0.0,0.0,48,0.00,,,0.00,VWS V14.01,2013-05-08 10:39:00,
2013-05-08 06:40:00,61.0,39.5,30.06,East,90,0.0,0.0,45,0.00,,,0.00,VWS V14.01,2013-05-08 10:40:00,
2013-05-08 06:41:00,60.8,39.3,30.06,East,90,0.0,0.0,45,0.00,,,0.00,VWS V14.01,2013-05-08 10:41:00,
2013-05-08 06:42:00,60.8,39.3,30.06,East,90,0.0,0.0,45,0.00,,,0.00,VWS V14.01,2013-05-08 10:42:00,
2013-05-08 06:43:00,60.8,39.3,30.09,East,90,0.0,0.0,45,0.00,,,0.00,VWS V14.01,2013-05-08 10:43:00,
2013-05-08 06:44:00,60.1,40.3,30.09,NE,45,0.0,0.0,48,0.00,,,0.00,VWS V14.01,2013-05-08 10:44:00,
2013-05-08 06:45:00,60.8,39.3,30.09,East,90,0.0,0.0,45,0.00,,,0.00,VWS V14.01,2013-05-08 10:45:00,
2013-05-08 06:47:00,60.6,39.2,30.09,ENE,68,0.0,0.0,45,0.00,,,0.00,VWS V14.01,2013-05-08 10:47:00,
2013-05-08 06:48:00,60.6,39.2,30.09,ENE,68,0.0,0.0,45,0.00,,,0.00,VWS V14.01,2013-05-08 10:48:00,
2013-05-08 06:49:00,60.1,40.3,30.09,NE,45,0.0,0.0,48,0.00,,,0.00,VWS V14.01,2013-05-08 10:49:00,
2013-05-08 06:50:00,60.6,39.8,30.09,ENE,68,0.0,0.0,46,0.00,,,0.00,VWS V14.01,2013-05-08 10:50:00,
2013-05-08 06:51:00,60.6,39.2,30.09,ENE,68,0.0,0.0,45,0.00,,,0.00,VWS V14.01,2013-05-08 10:51:00,
2013-05-08 06:52:00,60.6,39.2,30.09,ENE,68,0.0,0.0,45,0.00,,,0.00,VWS V14.01,2013-05-08 10:52:00,
2013-05-08 06:53:00,60.6,39.2,30.09,ENE,68,0.0,0.0,45,0.00,,,0.00,VWS V14.01,2013-05-08 10:53:00,
2013-05-08 06:54:00,60.1,40.3,30.09,NE,45,0.0,0.0,48,0.00,,,0.00,VWS V14.01,2013-05-08 10:54:00,
2013-05-08 06:55:00,60.6,39.2,30.09,ENE,68,0.0,0.0,45,0.00,,,0.00,VWS V14.01,2013-05-08 10:55:00,
2013-05-08 06:56:00,60.6,39.8,30.09,ENE,68,0.0,0.0,46,0.00,,,0.00,VWS V14.01,2013-05-08 10:56:00,
2013-05-08 06:57:00,60.6,39.8,30.09,ENE,68,0.0,0.0,46,0.00,,,0.00,VWS V14.01,2013-05-08 10:57:00,
2013-05-08 06:58:00,60.6,39.8,30.09,ENE,68,0.0,0.0,46,0.00,,,0.00,VWS V14.01,2013-05-08 10:58:00,
2013-05-08 06:59:00,60.1,40.9,30.09,NE,45,0.0,0.0,49,0.00,,,0.00,VWS V14.01,2013-05-08 10:59:00,
2013-05-08 07:00:00,60.6,39.8,30.09,ENE,68,0.0,0.0,46,0.00,,,0.00,VWS V14.01,2013-05-08 11:00:00,
2013-05-08 07:01:00,60.6,39.8,30.09,ENE,68,0.0,0.0,46,0.00,,,0.00,VWS V14.01,2013-05-08 11:01:00,
2013-05-08 07:02:00,60.6,39.8,30.09,ENE,68,0.0,0.0,46,0.00,,,0.00,VWS V14.01,2013-05-08 11:02:00,
2013-05-08 07:03:00,60.6,39.8,30.09,ENE,68,0.0,0.0,46,0.00,,,0.00,VWS V14.01,2013-05-08 11:03:00,
2013-05-08 07:04:00,61.0,41.7,30.09,NNE,22,0.0,0.0,49,0.00,,,0.00,VWS V14.01,2013-05-08 11:04:00,
2013-05-08 07:05:00,60.4,39.6,30.09,ENE,68,0.0,0.0,46,0.00,,,0.00,VWS V14.01,2013-05-08 11:05:00,
2013-05-08 07:06:00,60.4,39.6,30.09,ENE,68,0.0,0.0,46,0.00,,,0.00,VWS V14.01,2013-05-08 11:06:00,
2013-05-08 07:07:00,60.4,39.6,30.09,ENE,68,0.0,0.0,46,0.00,,,0.00,VWS V14.01,2013-05-08 11:07:00,
2013-05-08 07:08:00,60.4,39.6,30.09,ENE,68,0.0,0.0,46,0.00,,,0.00,VWS V14.01,2013-05-08 11:08:00,
2013-05-08 07:09:00,61.9,43.1,30.09,NNE,22,0.0,0.0,50,0.00,,,0.00,VWS V14.01,2013-05-08 11:09:00,
2013-05-08 07:10:00,60.4,39.6,30.09,ENE,68,0.0,0.0,46,0.00,,,0.00,VWS V14.01,2013-05-08 11:10:00,
2013-05-08 07:11:00,60.4,39.6,30.09,ENE,68,0.0,0.0,46,0.00,,,0.00,VWS V14.01,2013-05-08 11:11:00,
2013-05-08 07:12:00,60.3,39.4,30.09,ENE,68,0.0,0.0,46,0.00,,,0.00,VWS V14.01,2013-05-08 11:12:00,
2013-05-08 07:13:00,60.3,39.4,30.09,ENE,68,0.0,0.0,46,0.00,,,0.00,VWS V14.01,2013-05-08 11:13:00,
2013-05-08 07:14:00,62.6,43.7,30.09,NNE,22,0.0,0.0,50,0.00,,,0.00,VWS V14.01,2013-05-08 11:14:00,
2013-05-08 07:15:00,60.3,39.4,30.09,ENE,68,0.0,0.0,46,0.00,,,0.00,VWS V14.01,2013-05-08 11:15:00,
2013-05-08 07:16:00,60.3,39.4,30.09,ENE,68,0.0,0.0,46,0.00,,,0.00,VWS V14.01,2013-05-08 11:16:00,
2013-05-08 07:18:00,60.3,39.4,30.09,ENE,68,0.0,0.0,46,0.00,,,0.00,VWS V14.01,2013-05-08 11:18:00,
2013-05-08 07:19:00,63.5,45.1,30.09,NNE,22,0.0,0.0,51,0.00,,,0.00,VWS V14.01,2013-05-08 11:19:00,
2013-05-08 07:20:00,60.3,39.4,30.09,ENE,68,0.0,0.0,46,0.00,,,0.00,VWS V14.01,2013-05-08 11:20:00,
2013-05-08 07:22:00,60.3,40.0,30.09,ENE,68,0.0,0.0,47,0.00,,,0.00,VWS V14.01,2013-05-08 11:22:00,
2013-05-08 07:23:00,60.4,40.1,30.09,ENE,68,0.0,0.0,47,0.00,,,0.00,VWS V14.01,2013-05-08 11:23:00,
2013-05-08 07:24:00,64.6,46.1,30.09,NNE,22,0.0,0.0,51,0.00,,,0.00,VWS V14.01,2013-05-08 11:24:00,
2013-05-08 07:25:00,60.4,40.1,30.09,ENE,68,0.0,0.0,47,0.00,,,0.00,VWS V14.01,2013-05-08 11:25:00,
2013-05-08 07:26:00,60.4,40.1,30.09,ENE,68,0.0,0.0,47,0.00,,,0.00,VWS V14.01,2013-05-08 11:26:00,
2013-05-08 07:27:00,60.4,40.1,30.09,ENE,68,0.0,0.0,47,0.00,,,0.00,VWS V14.01,2013-05-08 11:27:00,
2013-05-08 07:28:00,60.4,40.1,30.09,ENE,68,0.0,0.0,47,0.00,,,0.00,VWS V14.01,2013-05-08 11:28:00,
2013-05-08 07:29:00,65.7,47.6,30.09,NNE,22,0.0,0.0,52,0.00,,,0.00,VWS V14.01,2013-05-08 11:29:00,
2013-05-08 07:30:00,60.4,40.1,30.09,ENE,68,0.0,0.0,47,0.00,,,0.00,VWS V14.01,2013-05-08 11:30:00,
2013-05-08 07:31:00,60.4,40.1,30.09,ENE,68,0.0,0.0,47,0.00,,,0.00,VWS V14.01,2013-05-08 11:31:00,
2013-05-08 07:32:00,60.4,40.1,30.09,ENE,68,0.0,0.0,47,0.00,,,0.00,VWS V14.01,2013-05-08 11:32:00,
2013-05-08 07:33:00,60.4,40.1,30.09,ENE,68,0.0,0.0,47,0.00,,,0.00,VWS V14.01,2013-05-08 11:33:00,
2013-05-08 07:34:00,66.7,48.6,30.09,NNE,22,0.0,0.0,52,0.00,,,0.00,VWS V14.01,2013-05-08 11:34:00,
2013-05-08 07:35:00,60.4,40.1,30.09,ENE,68,0.0,0.0,47,0.00,,,0.00,VWS V14.01,2013-05-08 11:35:00,
2013-05-08 07:36:00,60.4,40.1,30.09,ENE,68,0.0,0.0,47,0.00,,,0.00,VWS V14.01,2013-05-08 11:36:00,
2013-05-08 07:37:00,60.3,40.0,30.09,ENE,68,0.0,0.0,47,0.00,,,0.00,VWS V14.01,2013-05-08 11:37:00,
2013-05-08 07:38:00,60.3,40.0,30.09,ENE,68,0.0,0.0,47,0.00,,,0.00,VWS V14.01,2013-05-08 11:38:00,
2013-05-08 07:39:00,67.5,49.2,30.15,NNE,22,0.0,0.0,52,0.00,,,0.00,VWS V14.01,2013-05-08 11:39:00,
2013-05-08 07:40:00,60.1,39.8,30.09,ENE,68,0.0,0.0,47,0.00,,,0.00,VWS V14.01,2013-05-08 11:40:00,
2013-05-08 07:41:00,60.3,40.0,30.09,ENE,68,0.0,0.0,47,0.00,,,0.00,VWS V14.01,2013-05-08 11:41:00,
2013-05-08 07:42:00,60.1,39.8,30.09,ENE,68,0.0,0.0,47,0.00,,,0.00,VWS V14.01,2013-05-08 11:42:00,
2013-05-08 07:43:00,60.1,39.8,30.09,ENE,68,0.0,0.0,47,0.00,,,0.00,VWS V14.01,2013-05-08 11:43:00,
2013-05-08 07:44:00,68.7,49.3,30.15,NNE,22,0.0,0.0,50,0.00,,,0.00,VWS V14.01,2013-05-08 11:44:00,
2013-05-08 07:45:00,60.1,39.8,30.09,ENE,68,0.0,0.0,47,0.00,,,0.00,VWS V14.01,2013-05-08 11:45:00,
2013-05-08 07:46:00,60.1,39.8,30.09,ENE,68,0.0,0.0,47,0.00,,,0.00,VWS V14.01,2013-05-08 11:46:00,
2013-05-08 07:47:00,60.1,39.8,30.09,ENE,68,0.0,0.0,47,0.00,,,0.00,VWS V14.01,2013-05-08 11:47:00,
2013-05-08 07:48:00,60.1,39.8,30.09,ENE,68,0.0,0.0,47,0.00,,,0.00,VWS V14.01,2013-05-08 11:48:00,
2013-05-08 07:49:00,69.1,49.7,30.15,NNE,22,0.0,0.0,50,0.00,,,0.00,VWS V14.01,2013-05-08 11:49:00,
2013-05-08 07:50:00,60.1,39.8,30.09,ENE,68,0.0,0.0,47,0.00,,,0.00,VWS V14.01,2013-05-08 11:50:00,
2013-05-08 07:51:00,60.1,39.8,30.09,ENE,68,0.0,0.0,47,0.00,,,0.00,VWS V14.01,2013-05-08 11:51:00,
2013-05-08 07:52:00,60.1,39.8,30.09,ENE,68,0.0,0.0,47,0.00,,,0.00,VWS V14.01,2013-05-08 11:52:00,
2013-05-08 07:53:00,60.1,39.8,30.09,ENE,68,0.0,0.0,47,0.00,,,0.00,VWS V14.01,2013-05-08 11:53:00,
2013-05-08 07:54:00,70.0,48.3,30.15,NNE,22,0.0,0.0,46,0.00,,,0.00,VWS V14.01,2013-05-08 11:54:00,
2013-05-08 07:56:00,60.1,39.8,30.09,ENE,68,0.0,0.0,47,0.00,,,0.00,VWS V14.01,2013-05-08 11:56:00,
2013-05-08 07:57:00,60.1,39.8,30.09,ENE,68,0.0,0.0,47,0.00,,,0.00,VWS V14.01,2013-05-08 11:57:00,
2013-05-08 07:58:00,60.1,39.8,30.09,ENE,68,0.0,0.0,47,0.00,,,0.00,VWS V14.01,2013-05-08 11:58:00,
2013-05-08 07:59:00,70.7,47.1,30.15,ENE,68,0.0,0.0,43,0.00,,,0.00,VWS V14.01,2013-05-08 11:59:00,
2013-05-08 08:00:00,60.1,39.8,30.09,ENE,68,0.0,0.0,47,0.00,,,0.00,VWS V14.01,2013-05-08 12:00:00,
2013-05-08 08:01:00,60.1,40.3,30.09,ENE,68,0.0,0.0,48,0.00,,,0.00,VWS V14.01,2013-05-08 12:01:00,
2013-05-08 08:02:00,60.1,40.3,30.09,ENE,68,0.0,0.0,48,0.00,,,0.00,VWS V14.01,2013-05-08 12:02:00,
2013-05-08 08:04:00,71.4,45.9,30.15,East,90,0.0,0.0,40,0.00,,,0.00,VWS V14.01,2013-05-08 12:04:00,
2013-05-08 08:05:00,60.1,40.3,30.09,ENE,68,0.0,0.0,48,0.00,,,0.00,VWS V14.01,2013-05-08 12:05:00,
2013-05-08 08:06:00,60.1,40.3,30.09,ENE,68,0.0,0.0,48,0.00,,,0.00,VWS V14.01,2013-05-08 12:06:00,
2013-05-08 08:07:00,60.1,40.3,30.09,ENE,68,0.0,0.0,48,0.00,,,0.00,VWS V14.01,2013-05-08 12:07:00,
2013-05-08 08:08:00,60.1,40.3,30.09,ENE,68,0.0,0.0,48,0.00,,,0.00,VWS V14.01,2013-05-08 12:08:00,
2013-05-08 08:09:00,72.0,42.8,30.15,East,90,0.0,0.0,35,0.00,,,0.00,VWS V14.01,2013-05-08 12:09:00,
2013-05-08 08:10:00,60.1,40.3,30.09,ENE,68,0.0,0.0,48,0.00,,,0.00,VWS V14.01,2013-05-08 12:10:00,
2013-05-08 08:11:00,60.1,40.3,30.09,ENE,68,0.0,0.0,48,0.00,,,0.00,VWS V14.01,2013-05-08 12:11:00,
2013-05-08 08:12:00,60.1,40.3,30.09,NE,45,0.0,0.0,48,0.00,,,0.00,VWS V14.01,2013-05-08 12:12:00,
2013-05-08 08:13:00,60.1,40.3,30.09,NE,45,0.0,0.0,48,0.00,,,0.00,VWS V14.01,2013-05-08 12:13:00,
2013-05-08 08:14:00,72.9,42.9,30.15,SE,135,0.0,0.0,34,0.00,,,0.00,VWS V14.01,2013-05-08 12:14:00,
2013-05-08 08:15:00,60.1,40.3,30.09,NE,45,0.0,0.0,48,0.00,,,0.00,VWS V14.01,2013-05-08 12:15:00,
2013-05-08 08:16:00,60.1,40.3,30.09,NE,45,0.0,0.0,48,0.00,,,0.00,VWS V14.01,2013-05-08 12:16:00,
2013-05-08 08:17:00,60.1,40.3,30.09,NE,45,0.0,0.0,48,0.00,,,0.00,VWS V14.01,2013-05-08 12:17:00,
2013-05-08 08:18:00,60.1,40.3,30.09,NE,45,0.0,0.0,48,0.00,,,0.00,VWS V14.01,2013-05-08 12:18:00,
2013-05-08 08:19:00,73.4,41.8,30.15,SSW,202,0.0,0.0,32,0.00,,,0.00,VWS V14.01,2013-05-08 12:19:00,
2013-05-08 08:20:00,60.1,40.3,30.09,NE,45,0.0,0.0,48,0.00,,,0.00,VWS V14.01,2013-05-08 12:20:00,
2013-05-08 08:21:00,60.1,40.3,30.09,NE,45,0.0,0.0,48,0.00,,,0.00,VWS V14.01,2013-05-08 12:21:00,
2013-05-08 08:22:00,60.1,40.3,30.09,NE,45,0.0,0.0,48,0.00,,,0.00,VWS V14.01,2013-05-08 12:22:00,
2013-05-08 08:23:00,60.1,40.3,30.09,NE,45,0.0,0.0,48,0.00,,,0.00,VWS V14.01,2013-05-08 12:23:00,
2013-05-08 08:24:00,74.3,39.1,30.15,WSW,248,0.0,0.0,28,0.00,,,0.00,VWS V14.01,2013-05-08 12:24:00,
2013-05-08 08:25:00,60.1,40.3,30.09,NE,45,0.0,0.0,48,0.00,,,0.00,VWS V14.01,2013-05-08 12:25:00,
2013-05-08 08:26:00,60.1,40.3,30.09,NE,45,0.0,0.0,48,0.00,,,0.00,VWS V14.01,2013-05-08 12:26:00,
2013-05-08 08:27:00,60.1,40.3,30.09,NE,45,0.0,0.0,48,0.00,,,0.00,VWS V14.01,2013-05-08 12:27:00,
2013-05-08 08:28:00,60.1,40.3,30.09,NE,45,0.0,0.0,48,0.00,,,0.00,VWS V14.01,2013-05-08 12:28:00,
2013-05-08 08:29:00,75.0,34.7,30.15,West,270,1.6,1.6,23,0.00,,,0.00,VWS V14.01,2013-05-08 12:29:00,
2013-05-08 08:30:00,60.1,40.3,30.09,NE,45,0.0,0.0,48,0.00,,,0.00,VWS V14.01,2013-05-08 12:30:00,
2013-05-08 08:31:00,60.1,40.3,30.09,NE,45,0.0,0.0,48,0.00,,,0.00,VWS V14.01,2013-05-08 12:31:00,
2013-05-08 08:32:00,60.1,40.3,30.09,NE,45,0.0,0.0,48,0.00,,,0.00,VWS V14.01,2013-05-08 12:32:00,
2013-05-08 08:33:00,60.1,40.3,30.09,NE,45,0.0,0.0,48,0.00,,,0.00,VWS V14.01,2013-05-08 12:33:00,
2013-05-08 08:34:00,75.4,33.9,30.15,SSW,202,0.0,0.0,22,0.00,,,0.00,VWS V14.01,2013-05-08 12:34:00,
2013-05-08 08:35:00,60.3,41.0,30.09,NNE,22,0.0,0.0,49,0.00,,,0.00,VWS V14.01,2013-05-08 12:35:00,
2013-05-08 08:36:00,60.4,41.2,30.09,NNE,22,0.0,0.0,49,0.00,,,0.00,VWS V14.01,2013-05-08 12:36:00,
2013-05-08 08:37:00,60.4,41.2,30.09,NNE,22,0.0,0.0,49,0.00,,,0.00,VWS V14.01,2013-05-08 12:37:00,
2013-05-08 08:38:00,60.6,41.4,30.09,NNE,22,0.0,0.0,49,0.00,,,0.00,VWS V14.01,2013-05-08 12:38:00,
2013-05-08 08:39:00,76.1,34.5,30.15,WSW,248,0.0,0.0,22,0.00,,,0.00,VWS V14.01,2013-05-08 12:39:00,
2013-05-08 08:41:00,61.0,41.7,30.09,NNE,22,0.0,0.0,49,0.00,,,0.00,VWS V14.01,2013-05-08 12:41:00,
2013-05-08 08:42:00,61.3,42.6,30.09,NNE,22,0.0,0.0,50,0.00,,,0.00,VWS V14.01,2013-05-08 12:42:00,
2013-05-08 08:43:00,61.3,42.6,30.09,NNE,22,0.0,0.0,50,0.00,,,0.00,VWS V14.01,2013-05-08 12:43:00,
2013-05-08 08:44:00,76.6,33.8,30.15,WSW,248,1.6,2.0,21,0.00,,,0.00,VWS V14.01,2013-05-08 12:44:00,
2013-05-08 08:45:00,61.9,43.1,30.09,NNE,22,0.0,0.0,50,0.00,,,0.00,VWS V14.01,2013-05-08 12:45:00,
2013-05-08 08:46:00,61.9,43.1,30.09,NNE,22,0.0,0.0,50,0.00,,,0.00,VWS V14.01,2013-05-08 12:46:00,
2013-05-08 08:47:00,61.9,43.1,30.09,NNE,22,0.0,0.0,50,0.00,,,0.00,VWS V14.01,2013-05-08 12:47:00,
2013-05-08 08:48:00,62.2,43.4,30.09,NNE,22,0.0,0.0,50,0.00,,,0.00,VWS V14.01,2013-05-08 12:48:00,
2013-05-08 08:49:00,77.2,33.0,30.15,West,270,2.5,2.7,20,0.00,,,0.00,VWS V14.01,2013-05-08 12:49:00,
2013-05-08 08:50:00,62.6,43.7,30.09,NNE,22,0.0,0.0,50,0.00,,,0.00,VWS V14.01,2013-05-08 12:50:00,
2013-05-08 08:51:00,63.0,44.0,30.09,NNE,22,0.0,0.0,50,0.00,,,0.00,VWS V14.01,2013-05-08 12:51:00,
2013-05-08 08:52:00,63.1,44.2,30.09,NNE,22,0.0,0.0,50,0.00,,,0.00,VWS V14.01,2013-05-08 12:52:00,
2013-05-08 08:53:00,63.3,44.4,30.09,NNE,22,0.0,0.0,50,0.00,,,0.00,VWS V14.01,2013-05-08 12:53:00,
2013-05-08 08:54:00,77.5,26.3,30.12,West,270,2.9,4.0,15,0.00,,,0.00,VWS V14.01,2013-05-08 12:54:00,
2013-05-08 08:55:00,63.5,45.1,30.09,NNE,22,0.0,0.0,51,0.00,,,0.00,VWS V14.01,2013-05-08 12:55:00,
2013-05-08 08:56:00,63.9,45.4,30.09,NNE,22,0.0,0.0,51,0.00,,,0.00,VWS V14.01,2013-05-08 12:56:00,
2013-05-08 08:57:00,64.0,45.6,30.09,NNE,22,0.0,0.0,51,0.00,,,0.00,VWS V14.01,2013-05-08 12:57:00,
2013-05-08 08:58:00,64.0,45.6,30.09,NNE,22,0.0,0.0,51,0.00,,,0.00,VWS V14.01,2013-05-08 12:58:00,
2013-05-08 08:59:00,77.9,26.6,30.12,SW,225,2.9,2.9,15,0.00,,,0.00,VWS V14.01,2013-05-08 12:59:00,
2013-05-08 09:00:00,64.6,46.1,30.09,NNE,22,0.0,0.0,51,0.00,,,0.00,VWS V14.01,2013-05-08 13:00:00,
2013-05-08 09:01:00,64.8,46.2,30.09,NNE,22,0.0,0.0,51,0.00,,,0.00,VWS V14.01,2013-05-08 13:01:00,
2013-05-08 09:02:00,65.1,46.6,30.09,NNE,22,0.0,0.0,51,0.00,,,0.00,VWS V14.01,2013-05-08 13:02:00,
2013-05-08 09:03:00,65.3,47.2,30.09,NNE,22,0.0,0.0,52,0.00,,,0.00,VWS V14.01,2013-05-08 13:03:00,
2013-05-08 09:04:00,77.9,26.6,30.12,West,270,3.6,3.6,15,0.00,,,0.00,VWS V14.01,2013-05-08 13:04:00,
2013-05-08 09:05:00,65.7,47.6,30.09,NNE,22,0.0,0.0,52,0.00,,,0.00,VWS V14.01,2013-05-08 13:05:00,
2013-05-08 09:06:00,65.8,47.7,30.09,NNE,22,0.0,0.0,52,0.00,,,0.00,VWS V14.01,2013-05-08 13:06:00,
2013-05-08 09:07:00,66.0,47.9,30.09,NNE,22,0.0,0.0,52,0.00,,,0.00,VWS V14.01,2013-05-08 13:07:00,
2013-05-08 09:08:00,66.2,48.1,30.09,NNE,22,0.0,0.0,52,0.00,,,0.00,VWS V14.01,2013-05-08 13:08:00,
2013-05-08 09:09:00,77.7,23.0,30.12,SSW,202,1.6,3.1,13,0.00,,,0.00,VWS V14.01,2013-05-08 13:09:00,
2013-05-08 09:10:00,66.7,48.6,30.09,NNE,22,0.0,0.0,52,0.00,,,0.00,VWS V14.01,2013-05-08 13:10:00,
2013-05-08 09:11:00,66.9,48.7,30.09,NNE,22,0.0,0.0,52,0.00,,,0.00,VWS V14.01,2013-05-08 13:11:00,
2013-05-08 09:12:00,67.3,49.1,30.09,NNE,22,0.0,0.0,52,0.00,,,0.00,VWS V14.01,2013-05-08 13:12:00,
2013-05-08 09:13:00,67.5,49.2,30.15,NNE,22,0.0,0.0,52,0.00,,,0.00,VWS V14.01,2013-05-08 13:13:00,
2013-05-08 09:14:00,78.3,23.4,30.12,WSW,248,1.6,2.5,13,0.00,,,0.00,VWS V14.01,2013-05-08 13:14:00,
2013-05-08 09:15:00,67.5,49.2,30.15,NNE,22,0.0,0.0,52,0.00,,,0.00,VWS V14.01,2013-05-08 13:15:00,
2013-05-08 09:16:00,68.0,49.2,30.15,NNE,22,0.0,0.0,51,0.00,,,0.00,VWS V14.01,2013-05-08 13:16:00,
2013-05-08 09:17:00,68.0,49.2,30.15,NNE,22,0.0,0.0,51,0.00,,,0.00,VWS V14.01,2013-05-08 13:17:00,
2013-05-08 09:18:00,68.0,49.2,30.15,NNE,22,0.0,0.0,51,0.00,,,0.00,VWS V14.01,2013-05-08 13:18:00,
2013-05-08 09:19:00,79.0,22.1,30.12,SW,225,2.5,2.7,12,0.00,,,0.00,VWS V14.01,2013-05-08 13:19:00,
2013-05-08 09:20:00,68.7,49.3,30.15,NNE,22,0.0,0.0,50,0.00,,,0.00,VWS V14.01,2013-05-08 13:20:00,
2013-05-08 09:21:00,68.9,49.5,30.15,NNE,22,0.0,0.0,50,0.00,,,0.00,VWS V14.01,2013-05-08 13:21:00,
2013-05-08 09:22:00,68.9,49.5,30.15,NNE,22,0.0,0.0,50,0.00,,,0.00,VWS V14.01,2013-05-08 13:22:00,
2013-05-08 09:23:00,69.1,49.7,30.15,NNE,22,0.0,0.0,50,0.00,,,0.00,VWS V14.01,2013-05-08 13:23:00,
2013-05-08 09:24:00,79.3,22.4,30.15,West,270,2.9,2.9,12,0.00,,,0.00,VWS V14.01,2013-05-08 13:24:00,
2013-05-08 09:25:00,69.1,49.7,30.15,NNE,22,0.0,0.0,50,0.00,,,0.00,VWS V14.01,2013-05-08 13:25:00,
2013-05-08 09:26:00,69.4,48.9,30.15,NNE,22,0.0,0.0,48,0.00,,,0.00,VWS V14.01,2013-05-08 13:26:00,
2013-05-08 09:27:00,69.6,48.5,30.15,NNE,22,0.0,0.0,47,0.00,,,0.00,VWS V14.01,2013-05-08 13:27:00,
2013-05-08 09:28:00,69.6,48.5,30.15,NNE,22,0.0,0.0,47,0.00,,,0.00,VWS V14.01,2013-05-08 13:28:00,
2013-05-08 09:29:00,79.5,22.5,30.15,West,270,5.4,5.4,12,0.00,,,0.00,VWS V14.01,2013-05-08 13:29:00,
2013-05-08 09:30:00,70.0,48.3,30.15,NNE,22,0.0,0.0,46,0.00,,,0.00,VWS V14.01,2013-05-08 13:30:00,
2013-05-08 09:31:00,70.2,47.8,30.15,NNE,22,0.0,0.0,45,0.00,,,0.00,VWS V14.01,2013-05-08 13:31:00,
2013-05-08 09:32:00,70.3,48.0,30.15,NNE,22,0.0,0.0,45,0.00,,,0.00,VWS V14.01,2013-05-08 13:32:00,
2013-05-08 09:33:00,70.5,48.2,30.15,ENE,68,0.0,0.0,45,0.00,,,0.00,VWS V14.01,2013-05-08 13:33:00,
2013-05-08 09:34:00,78.6,23.7,30.15,SSW,202,3.1,3.1,13,0.00,,,0.00,VWS V14.01,2013-05-08 13:34:00,
2013-05-08 09:35:00,70.7,47.1,30.15,ENE,68,0.0,0.0,43,0.00,,,0.00,VWS V14.01,2013-05-08 13:35:00,
2013-05-08 09:36:00,71.1,47.5,30.15,ENE,68,0.0,0.0,43,0.00,,,0.00,VWS V14.01,2013-05-08 13:36:00,
2013-05-08 09:37:00,71.1,46.8,30.15,ENE,68,0.0,0.0,42,0.00,,,0.00,VWS V14.01,2013-05-08 13:37:00,
2013-05-08 09:38:00,71.2,47.0,30.15,ENE,68,0.0,0.0,42,0.00,,,0.00,VWS V14.01,2013-05-08 13:38:00,
2013-05-08 09:39:00,71.2,47.0,30.15,ENE,68,0.0,0.0,42,0.00,,,0.00,VWS V14.01,2013-05-08 13:39:00,
2013-05-08 09:40:00,78.6,23.7,30.15,WNW,292,2.5,2.5,13,0.00,,,0.00,VWS V14.01,2013-05-08 13:40:00,
2013-05-08 09:41:00,71.6,44.7,30.15,East,90,0.0,0.0,38,0.00,,,0.00,VWS V14.01,2013-05-08 13:41:00,
2013-05-08 09:42:00,71.6,44.7,30.15,East,90,0.0,0.0,38,0.00,,,0.00,VWS V14.01,2013-05-08 13:42:00,
2013-05-08 09:43:00,71.6,42.5,30.15,East,90,0.0,0.0,35,0.00,,,0.00,VWS V14.01,2013-05-08 13:43:00,
2013-05-08 09:44:00,72.0,42.8,30.15,East,90,0.0,0.0,35,0.00,,,0.00,VWS V14.01,2013-05-08 13:44:00,
2013-05-08 09:45:00,78.8,22.0,30.15,NNE,22,4.9,4.9,12,0.00,,,0.00,VWS V14.01,2013-05-08 13:45:00,
2013-05-08 09:46:00,72.1,42.2,30.15,WNW,292,0.0,0.0,34,0.00,,,0.00,VWS V14.01,2013-05-08 13:46:00,
2013-05-08 09:47:00,72.1,42.2,30.15,WNW,292,0.0,0.0,34,0.00,,,0.00,VWS V14.01,2013-05-08 13:47:00,
2013-05-08 09:48:00,72.5,42.6,30.15,WSW,248,0.0,0.0,34,0.00,,,0.00,VWS V14.01,2013-05-08 13:48:00,
2013-05-08 09:49:00,72.7,42.7,30.15,SE,135,0.0,0.0,34,0.00,,,0.00,VWS V14.01,2013-05-08 13:49:00,
2013-05-08 09:50:00,77.5,22.9,30.15,WNW,292,5.6,5.6,13,0.00,,,0.00,VWS V14.01,2013-05-08 13:50:00,
2013-05-08 09:51:00,73.0,42.3,30.15,SSW,202,0.0,0.0,33,0.00,,,0.00,VWS V14.01,2013-05-08 13:51:00,
2013-05-08 09:52:00,73.0,41.5,30.15,SSW,202,0.0,0.0,32,0.00,,,0.00,VWS V14.01,2013-05-08 13:52:00,
2013-05-08 09:53:00,73.2,41.6,30.15,SSW,202,0.0,0.0,32,0.00,,,0.00,VWS V14.01,2013-05-08 13:53:00,
2013-05-08 09:54:00,73.4,41.8,30.15,SSW,202,0.0,0.0,32,0.00,,,0.00,VWS V14.01,2013-05-08 13:54:00,
2013-05-08 09:55:00,78.4,23.6,30.12,West,270,2.5,2.7,13,0.00,,,0.00,VWS V14.01,2013-05-08 13:55:00,
2013-05-08 09:56:00,73.8,42.1,30.15,West,270,0.0,0.0,32,0.00,,,0.00,VWS V14.01,2013-05-08 13:56:00,
2013-05-08 09:57:00,73.8,42.1,30.15,West,270,2.5,2.5,32,0.00,,,0.00,VWS V14.01,2013-05-08 13:57:00,
2013-05-08 09:58:00,74.1,39.9,30.15,WSW,248,1.1,2.5,29,0.00,,,0.00,VWS V14.01,2013-05-08 13:58:00,
2013-05-08 09:59:00,74.1,39.9,30.15,WSW,248,0.0,1.1,29,0.00,,,0.00,VWS V14.01,2013-05-08 13:59:00,
2013-05-08 10:00:00,80.2,23.1,30.12,North,0,2.2,3.8,12,0.00,,,0.00,VWS V14.01,2013-05-08 14:00:00,
2013-05-08 10:01:00,74.5,39.3,30.15,WNW,292,0.9,1.6,28,0.00,,,0.00,VWS V14.01,2013-05-08 14:01:00,
2013-05-08 10:02:00,74.7,38.5,30.15,West,270,1.3,2.0,27,0.00,,,0.00,VWS V14.01,2013-05-08 14:02:00,
2013-05-08 10:03:00,74.7,37.5,30.15,West,270,2.5,2.7,26,0.00,,,0.00,VWS V14.01,2013-05-08 14:03:00,
2013-05-08 10:04:00,74.8,35.7,30.15,West,270,2.0,2.5,24,0.00,,,0.00,VWS V14.01,2013-05-08 14:04:00,
2013-05-08 10:05:00,79.3,22.4,30.12,NW,315,4.9,4.9,12,0.00,,,0.00,VWS V14.01,2013-05-08 14:05:00,
2013-05-08 10:06:00,75.0,33.6,30.15,West,270,2.7,2.7,22,0.00,,,0.00,VWS V14.01,2013-05-08 14:06:00,
2013-05-08 10:08:00,75.2,33.8,30.15,West,270,2.2,2.7,22,0.00,,,0.00,VWS V14.01,2013-05-08 14:08:00,
2013-05-08 10:09:00,75.4,33.9,30.15,WNW,292,2.0,2.2,22,0.00,,,0.00,VWS V14.01,2013-05-08 14:09:00,
2013-05-08 10:10:00,79.9,22.8,30.15,WSW,248,1.1,2.9,12,0.00,,,0.00,VWS V14.01,2013-05-08 14:10:00,
2013-05-08 10:11:00,75.6,34.1,30.15,SSW,202,0.0,0.0,22,0.00,,,0.00,VWS V14.01,2013-05-08 14:11:00,
2013-05-08 10:12:00,75.9,34.4,30.15,West,270,0.0,1.1,22,0.00,,,0.00,VWS V14.01,2013-05-08 14:12:00,
2013-05-08 10:13:00,75.9,34.4,30.15,WSW,248,0.0,1.1,22,0.00,,,0.00,VWS V14.01,2013-05-08 14:13:00,
2013-05-08 10:14:00,76.1,34.5,30.15,WSW,248,0.0,0.0,22,0.00,,,0.00,VWS V14.01,2013-05-08 14:14:00,
2013-05-08 10:15:00,81.3,23.9,30.15,SSW,202,2.0,3.4,12,0.00,,,0.00,VWS V14.01,2013-05-08 14:15:00,
2013-05-08 10:16:00,76.3,33.5,30.15,WNW,292,2.5,2.5,21,0.00,,,0.00,VWS V14.01,2013-05-08 14:16:00,
2013-05-08 10:17:00,76.5,33.7,30.15,WSW,248,0.0,2.5,21,0.00,,,0.00,VWS V14.01,2013-05-08 14:17:00,
2013-05-08 10:18:00,76.5,33.7,30.15,WSW,248,2.9,2.9,21,0.00,,,0.00,VWS V14.01,2013-05-08 14:18:00,
2013-05-08 10:19:00,76.5,33.7,30.15,WSW,248,2.0,2.9,21,0.00,,,0.00,VWS V14.01,2013-05-08 14:19:00,
2013-05-08 10:20:00,80.8,23.5,30.15,West,270,6.3,6.3,12,0.00,,,0.00,VWS V14.01,2013-05-08 14:20:00,
2013-05-08 10:21:00,76.6,33.8,30.15,WSW,248,0.0,2.0,21,0.00,,,0.00,VWS V14.01,2013-05-08 14:21:00,
2013-05-08 10:22:00,76.8,34.0,30.15,West,270,0.0,0.0,21,0.00,,,0.00,VWS V14.01,2013-05-08 14:22:00,
2013-05-08 10:23:00,77.0,32.9,30.15,West,270,2.0,2.2,20,0.00,,,0.00,VWS V14.01,2013-05-08 14:23:00,
2013-05-08 10:24:00,77.2,33.0,30.15,West,270,2.7,2.7,20,0.00,,,0.00,VWS V14.01,2013-05-08 14:24:00,
2013-05-08 10:25:00,79.7,22.6,30.15,SSW,202,2.0,2.7,12,0.00,,,0.00,VWS V14.01,2013-05-08 14:25:00,
2013-05-08 10:26:00,77.2,33.0,30.15,West,270,2.9,3.1,20,0.00,,,0.00,VWS V14.01,2013-05-08 14:26:00,
2013-05-08 10:27:00,77.4,30.6,30.15,West,270,2.2,2.9,18,0.00,,,0.00,VWS V14.01,2013-05-08 14:27:00,
2013-05-08 10:28:00,77.5,30.7,30.15,West,270,0.9,2.2,18,0.00,,,0.00,VWS V14.01,2013-05-08 14:28:00,
2013-05-08 10:29:00,77.5,30.7,30.12,West,270,0.0,0.9,18,0.00,,,0.00,VWS V14.01,2013-05-08 14:29:00,
2013-05-08 10:30:00,81.5,24.0,30.15,SSE,158,2.7,2.7,12,0.00,,,0.00,VWS V14.01,2013-05-08 14:30:00,
2013-05-08 10:31:00,77.5,26.3,30.12,WSW,248,1.6,4.0,15,0.00,,,0.00,VWS V14.01,2013-05-08 14:31:00,
2013-05-08 10:32:00,77.5,26.3,30.12,WSW,248,1.6,1.6,15,0.00,,,0.00,VWS V14.01,2013-05-08 14:32:00,
2013-05-08 10:33:00,77.5,26.3,30.12,WNW,292,1.1,1.6,15,0.00,,,0.00,VWS V14.01,2013-05-08 14:33:00,
2013-05-08 10:34:00,77.5,26.3,30.12,WNW,292,1.1,1.1,15,0.00,,,0.00,VWS V14.01,2013-05-08 14:34:00,
2013-05-08 10:35:00,81.9,24.3,30.15,WNW,292,3.4,4.3,12,0.00,,,0.00,VWS V14.01,2013-05-08 14:35:00,
2013-05-08 10:36:00,77.7,26.4,30.12,SW,225,1.3,2.9,15,0.00,,,0.00,VWS V14.01,2013-05-08 14:36:00,
2013-05-08 10:37:00,77.9,26.6,30.12,NW,315,2.5,2.7,15,0.00,,,0.00,VWS V14.01,2013-05-08 14:37:00,
2013-05-08 10:38:00,77.9,26.6,30.12,WNW,292,0.0,2.5,15,0.00,,,0.00,VWS V14.01,2013-05-08 14:38:00,
2013-05-08 10:39:00,77.9,26.6,30.12,West,270,2.7,2.7,15,0.00,,,0.00,VWS V14.01,2013-05-08 14:39:00,
2013-05-08 10:40:00,78.8,22.0,30.15,SSW,202,2.7,3.8,12,0.00,,,0.00,VWS V14.01,2013-05-08 14:40:00,
2013-05-08 10:41:00,77.9,26.6,30.12,West,270,1.3,4.3,15,0.00,,,0.00,VWS V14.01,2013-05-08 14:41:00,
2013-05-08 10:42:00,77.9,26.6,30.12,West,270,4.0,4.0,15,0.00,,,0.00,VWS V14.01,2013-05-08 14:42:00,
2013-05-08 10:43:00,77.9,26.6,30.12,WNW,292,5.6,5.6,15,0.00,,,0.00,VWS V14.01,2013-05-08 14:43:00,
2013-05-08 10:44:00,77.9,26.6,30.12,WNW,292,5.4,5.6,15,0.00,,,0.00,VWS V14.01,2013-05-08 14:44:00,
2013-05-08 10:45:00,81.0,23.6,30.15,WNW,292,2.2,2.9,12,0.00,,,0.00,VWS V14.01,2013-05-08 14:45:00,
2013-05-08 10:46:00,77.7,23.0,30.12,West,270,2.9,3.1,13,0.00,,,0.00,VWS V14.01,2013-05-08 14:46:00,
2013-05-08 10:47:00,77.9,23.1,30.12,West,270,3.4,3.4,13,0.00,,,0.00,VWS V14.01,2013-05-08 14:47:00,
2013-05-08 10:50:00,78.8,22.0,30.15,WNW,292,2.9,2.9,12,0.00,,,0.00,VWS V14.01,2013-05-08 14:50:00,
2013-05-08 10:51:00,78.4,23.6,30.12,WSW,248,2.5,2.5,13,0.00,,,0.00,VWS V14.01,2013-05-08 14:51:00,
2013-05-08 10:52:00,78.6,23.7,30.12,WNW,292,2.9,3.1,13,0.00,,,0.00,VWS V14.01,2013-05-08 14:52:00,
2013-05-08 10:53:00,78.6,23.7,30.12,WNW,292,2.0,4.0,13,0.00,,,0.00,VWS V14.01,2013-05-08 14:53:00,
2013-05-08 10:54:00,78.6,23.7,30.12,WNW,292,2.0,2.0,13,0.00,,,0.00,VWS V14.01,2013-05-08 14:54:00,
2013-05-08 10:55:00,79.3,22.4,30.15,West,270,4.9,6.9,12,0.00,,,0.00,VWS V14.01,2013-05-08 14:55:00,
2013-05-08 10:56:00,79.0,22.1,30.12,SW,225,1.3,2.7,12,0.00,,,0.00,VWS V14.01,2013-05-08 14:56:00,
2013-05-08 10:57:00,78.8,22.0,30.12,WNW,292,0.0,1.3,12,0.00,,,0.00,VWS V14.01,2013-05-08 14:57:00,
2013-05-08 10:58:00,79.2,22.2,30.15,SW,225,3.8,3.8,12,0.00,,,0.00,VWS V14.01,2013-05-08 14:58:00,
2013-05-08 10:59:00,79.2,22.2,30.15,WSW,248,3.6,3.8,12,0.00,,,0.00,VWS V14.01,2013-05-08 14:59:00,
2013-05-08 11:00:00,80.6,23.4,30.15,SW,225,2.5,3.4,12,0.00,,,0.00,VWS V14.01,2013-05-08 15:00:00,
2013-05-08 11:01:00,79.7,22.6,30.15,West,270,2.9,2.9,12,0.00,,,0.00,VWS V14.01,2013-05-08 15:01:00,
2013-05-08 11:02:00,79.7,22.6,30.15,ESE,112,3.1,3.1,12,0.00,,,0.00,VWS V14.01,2013-05-08 15:02:00,
2013-05-08 11:03:00,79.7,22.6,30.15,NW,315,5.4,5.4,12,0.00,,,0.00,VWS V14.01,2013-05-08 15:03:00,
2013-05-08 11:04:00,79.7,22.6,30.15,WNW,292,1.6,5.4,12,0.00,,,0.00,VWS V14.01,2013-05-08 15:04:00,
2013-05-08 11:05:00,81.1,23.8,30.15,WNW,292,2.0,4.7,12,0.00,,,0.00,VWS V14.01,2013-05-08 15:05:00,
2013-05-08 11:06:00,79.5,22.5,30.15,West,270,5.4,5.4,12,0.00,,,0.00,VWS V14.01,2013-05-08 15:06:00,
2013-05-08 11:07:00,78.6,23.7,30.15,West,270,4.0,5.4,13,0.00,,,0.00,VWS V14.01,2013-05-08 15:07:00,
2013-05-08 11:08:00,78.4,23.6,30.15,WSW,248,3.4,4.0,13,0.00,,,0.00,VWS V14.01,2013-05-08 15:08:00,
2013-05-08 11:09:00,78.4,23.6,30.15,SE,135,2.5,3.6,13,0.00,,,0.00,VWS V14.01,2013-05-08 15:09:00,
2013-05-08 11:10:00,81.5,24.0,30.15,West,270,4.0,4.0,12,0.00,,,0.00,VWS V14.01,2013-05-08 15:10:00,
2013-05-08 11:11:00,78.6,23.7,30.15,SSW,202,3.1,3.1,13,0.00,,,0.00,VWS V14.01,2013-05-08 15:11:00,
2013-05-08 11:12:00,78.4,23.6,30.15,NW,315,3.1,6.3,13,0.00,,,0.00,VWS V14.01,2013-05-08 15:12:00,
2013-05-08 11:13:00,77.9,23.1,30.15,West,270,2.7,3.1,13,0.00,,,0.00,VWS V14.01,2013-05-08 15:13:00,
2013-05-08 11:14:00,78.4,23.6,30.15,East,90,2.5,3.8,13,0.00,,,0.00,VWS V14.01,2013-05-08 15:14:00,
2013-05-08 11:15:00,82.6,22.8,30.15,West,270,2.9,3.6,11,0.00,,,0.00,VWS V14.01,2013-05-08 15:15:00,
2013-05-08 11:16:00,78.6,23.7,30.15,WNW,292,2.5,2.5,13,0.00,,,0.00,VWS V14.01,2013-05-08 15:16:00,
2013-05-08 11:17:00,79.2,22.2,30.15,WSW,248,0.9,2.5,12,0.00,,,0.00,VWS V14.01,2013-05-08 15:17:00,
2013-05-08 11:18:00,79.2,22.2,30.15,West,270,5.8,5.8,12,0.00,,,0.00,VWS V14.01,2013-05-08 15:18:00,
2013-05-08 11:19:00,79.2,22.2,30.15,West,270,5.8,5.8,12,0.00,,,0.00,VWS V14.01,2013-05-08 15:19:00,
2013-05-08 11:20:00,81.5,24.0,30.15,SW,225,4.9,4.9,12,0.00,,,0.00,VWS V14.01,2013-05-08 15:20:00,
2013-05-08 11:21:00,78.4,23.6,30.15,West,270,3.6,4.9,13,0.00,,,0.00,VWS V14.01,2013-05-08 15:21:00,
2013-05-08 11:22:00,78.4,23.6,30.15,WNW,292,2.9,7.2,13,0.00,,,0.00,VWS V14.01,2013-05-08 15:22:00,
2013-05-08 11:23:00,78.4,23.6,30.15,West,270,4.3,4.3,13,0.00,,,0.00,VWS V14.01,2013-05-08 15:23:00,
2013-05-08 11:24:00,78.4,23.6,30.15,West,270,5.8,5.8,13,0.00,,,0.00,VWS V14.01,2013-05-08 15:24:00,
2013-05-08 11:25:00,80.1,22.9,30.15,West,270,4.0,4.0,12,0.00,,,0.00,VWS V14.01,2013-05-08 15:25:00,
2013-05-08 11:26:00,77.5,22.9,30.15,West,270,5.4,5.6,13,0.00,,,0.00,VWS V14.01,2013-05-08 15:26:00,
2013-05-08 11:27:00,77.7,23.0,30.15,West,270,4.3,5.4,13,0.00,,,0.00,VWS V14.01,2013-05-08 15:27:00,
2013-05-08 11:28:00,77.9,23.1,30.12,West,270,4.7,6.0,13,0.00,,,0.00,VWS V14.01,2013-05-08 15:28:00,
2013-05-08 11:29:00,78.3,23.4,30.12,WNW,292,2.0,4.7,13,0.00,,,0.00,VWS V14.01,2013-05-08 15:29:00,
2013-05-08 11:30:00,79.0,22.1,30.15,WNW,292,2.2,2.2,12,0.00,,,0.00,VWS V14.01,2013-05-08 15:30:00,
2013-05-08 11:31:00,78.8,22.0,30.12,West,270,1.1,2.7,12,0.00,,,0.00,VWS V14.01,2013-05-08 15:31:00,
2013-05-08 11:32:00,79.2,22.2,30.12,North,0,0.9,1.3,12,0.00,,,0.00,VWS V14.01,2013-05-08 15:32:00,
2013-05-08 11:33:00,79.2,22.2,30.12,WNW,292,2.5,2.5,12,0.00,,,0.00,VWS V14.01,2013-05-08 15:33:00,
2013-05-08 11:34:00,79.9,22.8,30.12,WSW,248,1.3,2.5,12,0.00,,,0.00,VWS V14.01,2013-05-08 15:34:00,
2013-05-08 11:35:00,81.3,23.9,30.15,WSW,248,3.4,3.4,12,0.00,,,0.00,VWS V14.01,2013-05-08 15:35:00,
2013-05-08 11:36:00,80.2,23.1,30.12,WNW,292,3.1,3.8,12,0.00,,,0.00,VWS V14.01,2013-05-08 15:36:00,
2013-05-08 11:37:00,80.2,23.1,30.12,West,270,3.1,4.5,12,0.00,,,0.00,VWS V14.01,2013-05-08 15:37:00,
2013-05-08 11:38:00,80.2,23.1,30.12,West,270,3.1,3.1,12,0.00,,,0.00,VWS V14.01,2013-05-08 15:38:00,
2013-05-08 11:39:00,79.3,22.4,30.12,NW,315,4.0,4.0,12,0.00,,,0.00,VWS V14.01,2013-05-08 15:39:00,
2013-05-08 11:40:00,80.8,23.5,30.15,WNW,292,4.7,4.7,12,0.00,,,0.00,VWS V14.01,2013-05-08 15:40:00,
2013-05-08 11:41:00,79.3,22.4,30.12,NW,315,4.9,4.9,12,0.00,,,0.00,VWS V14.01,2013-05-08 15:41:00,
2013-05-08 11:42:00,79.2,22.2,30.12,West,270,2.9,4.9,12,0.00,,,0.00,VWS V14.01,2013-05-08 15:42:00,
2013-05-08 11:43:00,79.3,22.4,30.12,West,270,0.0,2.9,12,0.00,,,0.00,VWS V14.01,2013-05-08 15:43:00,
2013-05-08 11:44:00,79.7,22.6,30.12,WNW,292,0.9,0.9,12,0.00,,,0.00,VWS V14.01,2013-05-08 15:44:00,
2013-05-08 11:45:00,82.6,22.8,30.15,WSW,248,0.0,1.3,11,0.00,,,0.00,VWS V14.01,2013-05-08 15:45:00,
2013-05-08 11:46:00,79.9,22.8,30.15,WSW,248,1.1,1.1,12,0.00,,,0.00,VWS V14.01,2013-05-08 15:46:00,
2013-05-08 11:47:00,80.4,23.2,30.15,West,270,2.7,2.7,12,0.00,,,0.00,VWS V14.01,2013-05-08 15:47:00,
2013-05-08 11:49:00,80.4,23.2,30.15,SW,225,0.0,1.3,12,0.00,,,0.00,VWS V14.01,2013-05-08 15:49:00,
2013-05-08 11:50:00,84.2,24.0,30.15,West,270,7.2,7.2,11,0.00,,,0.00,VWS V14.01,2013-05-08 15:50:00,
2013-05-08 11:51:00,81.1,23.8,30.15,SSW,202,0.9,3.4,12,0.00,,,0.00,VWS V14.01,2013-05-08 15:51:00,
2013-05-08 11:52:00,81.1,23.8,30.15,WSW,248,2.9,3.1,12,0.00,,,0.00,VWS V14.01,2013-05-08 15:52:00,
2013-05-08 11:53:00,81.1,23.8,30.15,North,0,3.8,3.8,12,0.00,,,0.00,VWS V14.01,2013-05-08 15:53:00,
2013-05-08 11:54:00,81.1,23.8,30.15,ESE,112,2.5,3.8,12,0.00,,,0.00,VWS V14.01,2013-05-08 15:54:00,
2013-05-08 11:55:00,82.2,24.6,30.15,West,270,1.3,1.3,12,0.00,,,0.00,VWS V14.01,2013-05-08 15:55:00,
2013-05-08 11:56:00,80.8,23.5,30.15,WNW,292,2.5,6.3,12,0.00,,,0.00,VWS V14.01,2013-05-08 15:56:00,
2013-05-08 11:57:00,80.8,23.5,30.15,West,270,4.0,4.0,12,0.00,,,0.00,VWS V14.01,2013-05-08 15:57:00,
2013-05-08 11:58:00,79.7,22.6,30.15,WNW,292,2.5,4.0,12,0.00,,,0.00,VWS V14.01,2013-05-08 15:58:00,
2013-05-08 12:00:00,81.5,24.0,30.15,NNW,338,6.3,6.3,12,0.00,,,0.00,VWS V14.01,2013-05-08 16:00:00,
2013-05-08 12:01:00,79.7,22.6,30.15,SSW,202,2.0,2.7,12,0.00,,,0.00,VWS V14.01,2013-05-08 16:01:00,
2013-05-08 12:02:00,80.6,23.4,30.15,SW,225,0.0,2.0,12,0.00,,,0.00,VWS V14.01,2013-05-08 16:02:00,
2013-05-08 12:03:00,80.6,23.4,30.15,WNW,292,3.8,4.0,12,0.00,,,0.00,VWS V14.01,2013-05-08 16:03:00,
2013-05-08 12:04:00,81.1,23.8,30.15,West,270,2.7,3.8,12,0.00,,,0.00,VWS V14.01,2013-05-08 16:04:00,
2013-05-08 12:05:00,81.9,24.3,30.15,West,270,3.4,4.9,12,0.00,,,0.00,VWS V14.01,2013-05-08 16:05:00,
2013-05-08 12:06:00,81.9,24.3,30.15,SW,225,3.6,3.6,12,0.00,,,0.00,VWS V14.01,2013-05-08 16:06:00,
2013-05-08 12:08:00,81.9,24.3,30.15,West,270,2.0,3.8,12,0.00,,,0.00,VWS V14.01,2013-05-08 16:08:00,
2013-05-08 12:10:00,82.9,23.1,30.15,North,0,0.9,2.0,11,0.00,,,0.00,VWS V14.01,2013-05-08 16:10:00,
2013-05-08 12:11:00,81.9,24.3,30.15,WNW,292,2.5,4.3,12,0.00,,,0.00,VWS V14.01,2013-05-08 16:11:00,
2013-05-08 12:12:00,78.3,23.4,30.15,WNW,292,2.0,3.4,13,0.00,,,0.00,VWS V14.01,2013-05-08 16:12:00,
2013-05-08 12:13:00,77.7,23.0,30.15,West,270,1.1,5.8,13,0.00,,,0.00,VWS V14.01,2013-05-08 16:13:00,
2013-05-08 12:14:00,78.1,23.3,30.15,West,270,2.7,3.8,13,0.00,,,0.00,VWS V14.01,2013-05-08 16:14:00,
2013-05-08 12:15:00,82.8,23.0,30.15,SW,225,2.9,4.9,11,0.00,,,0.00,VWS V14.01,2013-05-08 16:15:00,
2013-05-08 12:16:00,78.8,22.0,30.15,SSW,202,0.0,3.8,12,0.00,,,0.00,VWS V14.01,2013-05-08 16:16:00,
2013-05-08 12:17:00,78.8,22.0,30.15,SSW,202,0.0,0.0,12,0.00,,,0.00,VWS V14.01,2013-05-08 16:17:00,
2013-05-08 12:18:00,78.8,22.0,30.15,NNW,338,2.0,2.5,12,0.00,,,0.00,VWS V14.01,2013-05-08 16:18:00,
2013-05-08 12:19:00,78.8,22.0,30.15,SW,225,1.6,3.4,12,0.00,,,0.00,VWS V14.01,2013-05-08 16:19:00,
2013-05-08 12:20:00,83.1,23.2,30.15,West,270,2.5,4.0,11,0.00,,,0.00,VWS V14.01,2013-05-08 16:20:00,
2013-05-08 12:21:00,81.3,23.9,30.15,West,270,2.5,2.9,12,0.00,,,0.00,VWS V14.01,2013-05-08 16:21:00,
2013-05-08 12:22:00,81.0,23.6,30.15,West,270,3.6,3.8,12,0.00,,,0.00,VWS V14.01,2013-05-08 16:22:00,
2013-05-08 12:23:00,80.2,23.1,30.15,WNW,292,3.6,4.9,12,0.00,,,0.00,VWS V14.01,2013-05-08 16:23:00,
2013-05-08 12:24:00,79.9,22.8,30.15,NNW,338,2.9,4.7,12,0.00,,,0.00,VWS V14.01,2013-05-08 16:24:00,
2013-05-08 12:25:00,83.1,23.2,30.15,SSE,158,3.4,3.4,11,0.00,,,0.00,VWS V14.01,2013-05-08 16:25:00,
2013-05-08 12:26:00,78.8,22.0,30.15,West,270,3.6,3.6,12,0.00,,,0.00,VWS V14.01,2013-05-08 16:26:00,
2013-05-08 12:27:00,78.4,23.6,30.15,SW,225,1.1,3.6,13,0.00,,,0.00,VWS V14.01,2013-05-08 16:27:00,
2013-05-08 12:28:00,78.6,23.7,30.15,WSW,248,3.1,4.0,13,0.00,,,0.00,VWS V14.01,2013-05-08 16:28:00,
2013-05-08 12:29:00,79.0,22.1,30.15,SW,225,5.4,5.4,12,0.00,,,0.00,VWS V14.01,2013-05-08 16:29:00,
2013-05-08 12:30:00,82.8,23.0,30.15,SSW,202,2.0,2.0,11,0.00,,,0.00,VWS V14.01,2013-05-08 16:30:00,
2013-05-08 12:31:00,79.3,22.4,30.15,West,270,5.8,6.9,12,0.00,,,0.00,VWS V14.01,2013-05-08 16:31:00,
2013-05-08 12:32:00,79.5,22.5,30.15,SSW,202,3.8,5.8,12,0.00,,,0.00,VWS V14.01,2013-05-08 16:32:00,
2013-05-08 12:33:00,79.7,22.6,30.15,ESE,112,2.5,4.3,12,0.00,,,0.00,VWS V14.01,2013-05-08 16:33:00,
2013-05-08 12:34:00,80.1,22.9,30.15,SW,225,3.8,3.8,12,0.00,,,0.00,VWS V14.01,2013-05-08 16:34:00,
2013-05-08 12:35:00,82.9,23.1,30.15,West,270,6.0,6.0,11,0.00,,,0.00,VWS V14.01,2013-05-08 16:35:00,
2013-05-08 12:36:00,80.6,23.4,30.15,SW,225,2.5,3.4,12,0.00,,,0.00,VWS V14.01,2013-05-08 16:36:00,
2013-05-08 12:37:00,80.8,23.5,30.15,ENE,68,3.1,3.1,12,0.00,,,0.00,VWS V14.01,2013-05-08 16:37:00,
2013-05-08 12:38:00,80.8,23.5,30.15,NNE,22,3.1,3.1,12,0.00,,,0.00,VWS V14.01,2013-05-08 16:38:00,
2013-05-08 12:39:00,80.8,23.5,30.15,NNE,22,3.1,3.1,12,0.00,,,0.00,VWS V14.01,2013-05-08 16:39:00,
2013-05-08 12:40:00,82.9,23.1,30.15,WSW,248,4.3,4.3,11,0.00,,,0.00,VWS V14.01,2013-05-08 16:40:00,
2013-05-08 12:41:00,81.1,23.8,30.15,West,270,2.9,4.7,12,0.00,,,0.00,VWS V14.01,2013-05-08 16:41:00,
2013-05-08 12:42:00,81.1,23.8,30.15,West,270,7.6,7.6,12,0.00,,,0.00,VWS V14.01,2013-05-08 16:42:00,
2013-05-08 12:43:00,80.6,23.4,30.15,NE,45,3.1,7.6,12,0.00,,,0.00,VWS V14.01,2013-05-08 16:43:00,
2013-05-08 12:44:00,81.0,23.6,30.15,WSW,248,1.6,4.3,12,0.00,,,0.00,VWS V14.01,2013-05-08 16:44:00,
2013-05-08 12:45:00,82.8,23.0,30.15,West,270,5.4,5.4,11,0.00,,,0.00,VWS V14.01,2013-05-08 16:45:00,
2013-05-08 12:46:00,81.5,24.0,30.15,West,270,4.0,4.0,12,0.00,,,0.00,VWS V14.01,2013-05-08 16:46:00,
2013-05-08 12:47:00,81.5,24.0,30.15,SSW,202,2.7,4.0,12,0.00,,,0.00,VWS V14.01,2013-05-08 16:47:00,
2013-05-08 12:48:00,81.9,24.3,30.15,NNW,338,3.4,3.4,12,0.00,,,0.00,VWS V14.01,2013-05-08 16:48:00,
2013-05-08 12:49:00,81.9,24.3,30.15,NNW,338,3.4,3.4,12,0.00,,,0.00,VWS V14.01,2013-05-08 16:49:00,
2013-05-08 12:50:00,81.7,24.2,30.15,WNW,292,3.1,6.0,12,0.00,,,0.00,VWS V14.01,2013-05-08 16:50:00,
2013-05-08 12:51:00,82.6,22.8,30.15,SW,225,3.4,3.6,11,0.00,,,0.00,VWS V14.01,2013-05-08 16:51:00,
2013-05-08 12:52:00,81.7,24.2,30.15,SSE,158,2.0,3.4,12,0.00,,,0.00,VWS V14.01,2013-05-08 16:52:00,
2013-05-08 12:53:00,81.7,24.2,30.15,South,180,2.7,2.9,12,0.00,,,0.00,VWS V14.01,2013-05-08 16:53:00,
2013-05-08 12:54:00,81.7,24.2,30.15,SSW,202,1.3,2.7,12,0.00,,,0.00,VWS V14.01,2013-05-08 16:54:00,
2013-05-08 12:55:00,81.7,24.2,30.12,WSW,248,4.7,8.5,12,0.00,,,0.00,VWS V14.01,2013-05-08 16:55:00,
2013-05-08 12:56:00,81.5,24.0,30.15,SW,225,4.9,4.9,12,0.00,,,0.00,VWS V14.01,2013-05-08 16:56:00,
2013-05-08 12:57:00,81.5,24.0,30.15,West,270,5.4,5.6,12,0.00,,,0.00,VWS V14.01,2013-05-08 16:57:00,
2013-05-08 12:58:00,81.5,24.0,30.15,West,270,5.4,5.4,12,0.00,,,0.00,VWS V14.01,2013-05-08 16:58:00,
2013-05-08 12:59:00,80.6,23.4,30.15,West,270,3.1,5.4,12,0.00,,,0.00,VWS V14.01,2013-05-08 16:59:00,
2013-05-08 13:00:00,80.6,23.4,30.15,West,270,3.1,3.1,12,0.00,,,0.00,VWS V14.01,2013-05-08 17:00:00,
2013-05-08 13:01:00,82.6,22.8,30.12,WNW,292,3.4,4.9,11,0.00,,,0.00,VWS V14.01,2013-05-08 17:01:00,
2013-05-08 13:02:00,80.1,22.9,30.15,WNW,292,3.8,4.0,12,0.00,,,0.00,VWS V14.01,2013-05-08 17:02:00,
2013-05-08 13:03:00,80.1,22.9,30.15,WNW,292,3.4,4.0,12,0.00,,,0.00,VWS V14.01,2013-05-08 17:03:00,
2013-05-08 13:04:00,78.6,23.7,30.15,WNW,292,3.8,5.4,13,0.00,,,0.00,VWS V14.01,2013-05-08 17:04:00,
2013-05-08 13:05:00,78.3,23.4,30.15,SSW,202,2.5,3.8,13,0.00,,,0.00,VWS V14.01,2013-05-08 17:05:00,
2013-05-08 13:06:00,82.6,22.8,30.12,WNW,292,2.5,5.8,11,0.00,,,0.00,VWS V14.01,2013-05-08 17:06:00,
2013-05-08 13:07:00,79.7,22.6,30.15,West,270,2.7,2.7,12,0.00,,,0.00,VWS V14.01,2013-05-08 17:07:00,
2013-05-08 13:08:00,80.1,22.9,30.15,SSE,158,2.0,3.4,12,0.00,,,0.00,VWS V14.01,2013-05-08 17:08:00,
2013-05-08 13:09:00,80.1,22.9,30.15,SSE,158,2.0,2.0,12,0.00,,,0.00,VWS V14.01,2013-05-08 17:09:00,
2013-05-08 13:10:00,81.0,23.6,30.15,ESE,112,2.5,2.9,12,0.00,,,0.00,VWS V14.01,2013-05-08 17:10:00,
2013-05-08 13:11:00,83.3,23.4,30.15,WSW,248,3.8,5.6,11,0.00,,,0.00,VWS V14.01,2013-05-08 17:11:00,
2013-05-08 13:12:00,81.3,23.9,30.15,WSW,248,3.4,3.4,12,0.00,,,0.00,VWS V14.01,2013-05-08 17:12:00,
2013-05-08 13:13:00,81.9,24.3,30.15,WNW,292,3.6,4.5,12,0.00,,,0.00,VWS V14.01,2013-05-08 17:13:00,
2013-05-08 13:14:00,81.5,24.0,30.15,SSE,158,2.7,3.6,12,0.00,,,0.00,VWS V14.01,2013-05-08 17:14:00,
2013-05-08 13:15:00,80.8,23.5,30.15,South,180,2.7,4.3,12,0.00,,,0.00,VWS V14.01,2013-05-08 17:15:00,
2013-05-08 13:16:00,81.9,24.3,30.15,WNW,292,6.0,10.1,12,0.00,,,0.00,VWS V14.01,2013-05-08 17:16:00,
2013-05-08 13:17:00,80.8,23.5,30.15,West,270,2.9,4.7,12,0.00,,,0.00,VWS V14.01,2013-05-08 17:17:00,
2013-05-08 13:18:00,81.5,24.0,30.15,WSW,248,1.3,3.1,12,0.00,,,0.00,VWS V14.01,2013-05-08 17:18:00,
2013-05-08 13:19:00,81.5,24.0,30.15,West,270,4.0,4.0,12,0.00,,,0.00,VWS V14.01,2013-05-08 17:19:00,
2013-05-08 13:20:00,81.5,24.0,30.15,WSW,248,3.8,4.0,12,0.00,,,0.00,VWS V14.01,2013-05-08 17:20:00,
2013-05-08 13:21:00,81.3,23.9,30.15,NE,45,4.7,7.8,12,0.00,,,0.00,VWS V14.01,2013-05-08 17:21:00,
2013-05-08 13:22:00,82.9,23.1,30.15,WSW,248,0.9,2.5,11,0.00,,,0.00,VWS V14.01,2013-05-08 17:22:00,
2013-05-08 13:23:00,83.3,23.4,30.15,West,270,1.1,2.7,11,0.00,,,0.00,VWS V14.01,2013-05-08 17:23:00,
2013-05-08 13:24:00,83.8,23.8,30.15,West,270,1.6,1.6,11,0.00,,,0.00,VWS V14.01,2013-05-08 17:24:00,
2013-05-08 13:25:00,84.0,23.9,30.15,SW,225,2.0,3.4,11,0.00,,,0.00,VWS V14.01,2013-05-08 17:25:00,
2013-05-08 13:26:00,81.5,24.0,30.15,West,270,2.0,5.8,12,0.00,,,0.00,VWS V14.01,2013-05-08 17:26:00,
2013-05-08 13:27:00,83.7,23.6,30.15,West,270,3.1,7.2,11,0.00,,,0.00,VWS V14.01,2013-05-08 17:27:00,
2013-05-08 13:28:00,83.5,23.5,30.15,West,270,3.6,5.4,11,0.00,,,0.00,VWS V14.01,2013-05-08 17:28:00,
2013-05-08 13:29:00,83.1,23.2,30.15,WNW,292,8.1,8.1,11,0.00,,,0.00,VWS V14.01,2013-05-08 17:29:00,
2013-05-08 13:30:00,82.2,24.6,30.15,WNW,292,3.1,8.1,12,0.00,,,0.00,VWS V14.01,2013-05-08 17:30:00,
2013-05-08 13:31:00,82.6,22.8,30.15,SSW,202,1.3,2.7,11,0.00,,,0.00,VWS V14.01,2013-05-08 17:31:00,
2013-05-08 13:32:00,82.2,24.6,30.15,WNW,292,2.9,3.4,12,0.00,,,0.00,VWS V14.01,2013-05-08 17:32:00,
2013-05-08 13:33:00,82.6,22.8,30.15,WSW,248,2.9,4.9,11,0.00,,,0.00,VWS V14.01,2013-05-08 17:33:00,
2013-05-08 13:34:00,82.4,22.7,30.15,ENE,68,6.5,6.7,11,0.00,,,0.00,VWS V14.01,2013-05-08 17:34:00,
2013-05-08 13:35:00,82.0,24.5,30.15,WSW,248,4.9,6.5,12,0.00,,,0.00,VWS V14.01,2013-05-08 17:35:00,
2013-05-08 13:36:00,83.1,23.2,30.15,SW,225,3.1,6.3,11,0.00,,,0.00,VWS V14.01,2013-05-08 17:36:00,
2013-05-08 13:37:00,81.7,24.2,30.15,WNW,292,2.9,6.3,12,0.00,,,0.00,VWS V14.01,2013-05-08 17:37:00,
2013-05-08 13:38:00,82.2,24.6,30.15,SSE,158,1.6,3.4,12,0.00,,,0.00,VWS V14.01,2013-05-08 17:38:00,
2013-05-08 13:39:00,82.2,24.6,30.15,West,270,5.4,5.8,12,0.00,,,0.00,VWS V14.01,2013-05-08 17:39:00,
2013-05-08 13:40:00,81.9,24.3,30.15,WNW,292,7.4,7.8,12,0.00,,,0.00,VWS V14.01,2013-05-08 17:40:00,
2013-05-08 13:41:00,83.5,23.5,30.15,NNW,338,2.0,2.0,11,0.00,,,0.00,VWS V14.01,2013-05-08 17:41:00,
2013-05-08 13:42:00,82.2,24.6,30.15,WNW,292,5.4,5.4,12,0.00,,,0.00,VWS V14.01,2013-05-08 17:42:00,
2013-05-08 13:43:00,82.2,24.6,30.15,NW,315,3.6,6.0,12,0.00,,,0.00,VWS V14.01,2013-05-08 17:43:00,
2013-05-08 13:44:00,82.2,24.6,30.15,West,270,4.3,6.3,12,0.00,,,0.00,VWS V14.01,2013-05-08 17:44:00,
2013-05-08 13:45:00,82.9,23.1,30.15,SW,225,2.0,4.3,11,0.00,,,0.00,VWS V14.01,2013-05-08 17:45:00,
2013-05-08 13:46:00,82.9,23.1,30.15,SW,225,2.9,4.7,11,0.00,,,0.00,VWS V14.01,2013-05-08 17:46:00,
2013-05-08 13:47:00,82.9,23.1,30.15,North,0,0.9,2.0,11,0.00,,,0.00,VWS V14.01,2013-05-08 17:47:00,
2013-05-08 13:48:00,82.9,23.1,30.15,North,0,0.9,0.9,11,0.00,,,0.00,VWS V14.01,2013-05-08 17:48:00,
2013-05-08 13:49:00,83.7,23.6,30.15,South,180,3.4,3.4,11,0.00,,,0.00,VWS V14.01,2013-05-08 17:49:00,
2013-05-08 13:50:00,83.5,23.5,30.15,WSW,248,8.1,9.8,11,0.00,,,0.00,VWS V14.01,2013-05-08 17:50:00,
2013-05-08 13:51:00,82.8,23.0,30.15,West,270,2.7,4.0,11,0.00,,,0.00,VWS V14.01,2013-05-08 17:51:00,
2013-05-08 13:52:00,82.6,22.8,30.15,West,270,5.6,5.6,11,0.00,,,0.00,VWS V14.01,2013-05-08 17:52:00,
2013-05-08 13:53:00,82.8,23.0,30.15,NNW,338,1.6,5.6,11,0.00,,,0.00,VWS V14.01,2013-05-08 17:53:00,
2013-05-08 13:54:00,82.8,23.0,30.15,WNW,292,2.7,4.0,11,0.00,,,0.00,VWS V14.01,2013-05-08 17:54:00,
2013-05-08 13:55:00,82.9,23.1,30.15,South,180,4.0,4.0,11,0.00,,,0.00,VWS V14.01,2013-05-08 17:55:00,
2013-05-08 13:56:00,81.7,24.2,30.12,NW,315,3.8,5.4,12,0.00,,,0.00,VWS V14.01,2013-05-08 17:56:00,
2013-05-08 13:57:00,83.1,23.2,30.15,East,90,2.0,2.2,11,0.00,,,0.00,VWS V14.01,2013-05-08 17:57:00,
2013-05-08 13:58:00,83.1,23.2,30.15,East,90,2.0,2.0,11,0.00,,,0.00,VWS V14.01,2013-05-08 17:58:00,
2013-05-08 13:59:00,83.5,23.5,30.15,West,270,2.0,3.8,11,0.00,,,0.00,VWS V14.01,2013-05-08 17:59:00,
2013-05-08 14:00:00,83.3,23.4,30.15,WSW,248,3.6,5.6,11,0.00,,,0.00,VWS V14.01,2013-05-08 18:00:00,
2013-05-08 14:01:00,82.4,22.7,30.12,WNW,292,10.1,10.1,11,0.00,,,0.00,VWS V14.01,2013-05-08 18:01:00,
2013-05-08 14:02:00,83.1,23.2,30.15,WSW,248,4.9,6.0,11,0.00,,,0.00,VWS V14.01,2013-05-08 18:02:00,
2013-05-08 14:03:00,82.9,23.1,30.15,West,270,5.6,5.6,11,0.00,,,0.00,VWS V14.01,2013-05-08 18:03:00,
2013-05-08 14:04:00,82.8,23.0,30.15,SSE,158,5.6,6.0,11,0.00,,,0.00,VWS V14.01,2013-05-08 18:04:00,
2013-05-08 14:05:00,82.8,23.0,30.15,SSW,202,2.0,5.6,11,0.00,,,0.00,VWS V14.01,2013-05-08 18:05:00,
2013-05-08 14:06:00,81.3,23.9,30.12,West,270,6.3,6.3,12,0.00,,,0.00,VWS V14.01,2013-05-08 18:06:00,
2013-05-08 14:07:00,83.1,23.2,30.15,NNE,22,3.6,4.3,11,0.00,,,0.00,VWS V14.01,2013-05-08 18:07:00,
2013-05-08 14:08:00,83.1,23.2,30.15,West,270,3.6,6.0,11,0.00,,,0.00,VWS V14.01,2013-05-08 18:08:00,
2013-05-08 14:09:00,82.8,23.0,30.15,WNW,292,7.6,7.6,11,0.00,,,0.00,VWS V14.01,2013-05-08 18:09:00,
2013-05-08 14:10:00,82.8,23.0,30.15,West,270,5.4,7.6,11,0.00,,,0.00,VWS V14.01,2013-05-08 18:10:00,
2013-05-08 14:11:00,82.4,22.7,30.15,SE,135,3.6,6.0,11,0.00,,,0.00,VWS V14.01,2013-05-08 18:11:00,
2013-05-08 14:12:00,82.9,23.1,30.15,West,270,6.0,6.0,11,0.00,,,0.00,VWS V14.01,2013-05-08 18:12:00,
2013-05-08 14:13:00,82.6,22.8,30.15,West,270,6.0,7.4,11,0.00,,,0.00,VWS V14.01,2013-05-08 18:13:00,
2013-05-08 14:14:00,82.4,22.7,30.15,WNW,292,3.6,7.4,11,0.00,,,0.00,VWS V14.01,2013-05-08 18:14:00,
2013-05-08 14:15:00,82.6,22.8,30.15,WSW,248,3.6,3.6,11,0.00,,,0.00,VWS V14.01,2013-05-08 18:15:00,
2013-05-08 14:16:00,81.0,23.6,30.15,SSE,158,2.7,6.0,12,0.00,,,0.00,VWS V14.01,2013-05-08 18:16:00,
2013-05-08 14:17:00,82.9,23.1,30.15,WNW,292,3.4,4.3,11,0.00,,,0.00,VWS V14.01,2013-05-08 18:17:00,
2013-05-08 14:18:00,82.9,23.1,30.15,WNW,292,3.1,7.2,11,0.00,,,0.00,VWS V14.01,2013-05-08 18:18:00,
2013-05-08 14:20:00,82.9,23.1,30.15,ENE,68,4.7,6.0,11,0.00,,,0.00,VWS V14.01,2013-05-08 18:20:00,
2013-05-08 14:21:00,82.4,22.7,30.15,SSE,158,3.8,4.9,11,0.00,,,0.00,VWS V14.01,2013-05-08 18:21:00,
2013-05-08 14:22:00,82.6,22.8,30.15,West,270,5.4,5.4,11,0.00,,,0.00,VWS V14.01,2013-05-08 18:22:00,
2013-05-08 14:23:00,82.4,22.7,30.15,WSW,248,4.0,6.3,11,0.00,,,0.00,VWS V14.01,2013-05-08 18:23:00,
2013-05-08 14:24:00,82.4,22.7,30.15,South,180,4.3,4.3,11,0.00,,,0.00,VWS V14.01,2013-05-08 18:24:00,
2013-05-08 14:25:00,82.0,24.5,30.15,West,270,7.2,7.2,12,0.00,,,0.00,VWS V14.01,2013-05-08 18:25:00,
2013-05-08 14:26:00,81.1,23.8,30.12,West,270,5.4,5.4,12,0.00,,,0.00,VWS V14.01,2013-05-08 18:26:00,
2013-05-08 14:27:00,81.7,24.2,30.15,WSW,248,5.8,6.0,12,0.00,,,0.00,VWS V14.01,2013-05-08 18:27:00,
2013-05-08 14:28:00,81.5,24.0,30.12,WNW,292,3.6,5.8,12,0.00,,,0.00,VWS V14.01,2013-05-08 18:28:00,
2013-05-08 14:29:00,81.5,24.0,30.12,WNW,292,6.0,6.5,12,0.00,,,0.00,VWS V14.01,2013-05-08 18:29:00,
2013-05-08 14:30:00,81.5,24.0,30.12,ESE,112,2.5,6.0,12,0.00,,,0.00,VWS V14.01,2013-05-08 18:30:00,
2013-05-08 14:31:00,81.9,24.3,30.12,SSW,202,7.6,8.1,12,0.00,,,0.00,VWS V14.01,2013-05-08 18:31:00,
2013-05-08 14:33:00,81.7,24.2,30.12,North,0,6.3,8.5,12,0.00,,,0.00,VWS V14.01,2013-05-08 18:33:00,
2013-05-08 14:34:00,81.9,24.3,30.12,SSE,158,3.8,6.3,12,0.00,,,0.00,VWS V14.01,2013-05-08 18:34:00,
2013-05-08 14:35:00,82.2,24.6,30.12,SW,225,3.1,3.8,12,0.00,,,0.00,VWS V14.01,2013-05-08 18:35:00,
2013-05-08 14:36:00,82.6,22.8,30.12,West,270,3.1,7.2,11,0.00,,,0.00,VWS V14.01,2013-05-08 18:36:00,
2013-05-08 14:37:00,82.6,22.8,30.12,NW,315,3.6,4.9,11,0.00,,,0.00,VWS V14.01,2013-05-08 18:37:00,
2013-05-08 14:38:00,82.4,22.7,30.12,West,270,6.9,7.6,11,0.00,,,0.00,VWS V14.01,2013-05-08 18:38:00,
2013-05-08 14:39:00,82.4,22.7,30.12,West,270,3.1,6.9,11,0.00,,,0.00,VWS V14.01,2013-05-08 18:39:00,
2013-05-08 14:40:00,82.4,22.7,30.12,NW,315,2.9,5.8,11,0.00,,,0.00,VWS V14.01,2013-05-08 18:40:00,
2013-05-08 14:41:00,82.6,22.8,30.15,WNW,292,6.5,6.9,11,0.00,,,0.00,VWS V14.01,2013-05-08 18:41:00,
2013-05-08 14:42:00,82.6,22.8,30.12,West,270,3.8,5.8,11,0.00,,,0.00,VWS V14.01,2013-05-08 18:42:00,
2013-05-08 14:43:00,82.6,22.8,30.15,West,270,3.4,4.5,11,0.00,,,0.00,VWS V14.01,2013-05-08 18:43:00,
2013-05-08 14:44:00,82.6,22.8,30.15,ESE,112,3.1,3.8,11,0.00,,,0.00,VWS V14.01,2013-05-08 18:44:00,
2013-05-08 14:45:00,83.1,23.2,30.15,ESE,112,2.9,3.6,11,0.00,,,0.00,VWS V14.01,2013-05-08 18:45:00,
2013-05-08 14:46:00,82.2,24.6,30.15,West,270,5.8,5.8,12,0.00,,,0.00,VWS V14.01,2013-05-08 18:46:00,
2013-05-08 14:47:00,83.1,23.2,30.15,SW,225,5.4,5.6,11,0.00,,,0.00,VWS V14.01,2013-05-08 18:47:00,
2013-05-08 14:48:00,82.8,23.0,30.15,WSW,248,3.1,8.5,11,0.00,,,0.00,VWS V14.01,2013-05-08 18:48:00,
2013-05-08 14:49:00,82.9,23.1,30.15,WNW,292,3.4,5.8,11,0.00,,,0.00,VWS V14.01,2013-05-08 18:49:00,
2013-05-08 14:50:00,82.8,23.0,30.15,WSW,248,5.6,5.6,11,0.00,,,0.00,VWS V14.01,2013-05-08 18:50:00,
2013-05-08 14:51:00,82.9,23.1,30.15,SSE,158,2.7,3.8,11,0.00,,,0.00,VWS V14.01,2013-05-08 18:51:00,
2013-05-08 14:52:00,81.9,24.3,30.15,NW,315,5.8,10.1,12,0.00,,,0.00,VWS V14.01,2013-05-08 18:52:00,
2013-05-08 14:53:00,82.0,24.5,30.15,West,270,5.8,5.8,12,0.00,,,0.00,VWS V14.01,2013-05-08 18:53:00,
2013-05-08 14:54:00,81.7,24.2,30.15,WNW,292,10.1,10.1,12,0.00,,,0.00,VWS V14.01,2013-05-08 18:54:00,
2013-05-08 14:56:00,81.9,24.3,30.15,WSW,248,4.9,6.5,12,0.00,,,0.00,VWS V14.01,2013-05-08 18:56:00,
2013-05-08 14:57:00,81.3,23.9,30.15,NNE,22,4.9,7.8,12,0.00,,,0.00,VWS V14.01,2013-05-08 18:57:00,
2013-05-08 14:58:00,81.5,24.0,30.15,West,270,2.7,4.9,12,0.00,,,0.00,VWS V14.01,2013-05-08 18:58:00,
2013-05-08 14:59:00,81.9,24.3,30.15,WNW,292,4.0,5.4,12,0.00,,,0.00,VWS V14.01,2013-05-08 18:59:00,
2013-05-08 15:00:00,81.9,24.3,30.15,West,270,5.8,8.5,12,0.00,,,0.00,VWS V14.01,2013-05-08 19:00:00,
2013-05-08 15:01:00,82.2,24.6,30.15,West,270,6.0,6.0,12,0.00,,,0.00,VWS V14.01,2013-05-08 19:01:00,
2013-05-08 15:02:00,81.5,24.0,30.15,West,270,2.0,5.8,12,0.00,,,0.00,VWS V14.01,2013-05-08 19:02:00,
2013-05-08 15:03:00,81.5,24.0,30.15,SW,225,3.1,5.6,12,0.00,,,0.00,VWS V14.01,2013-05-08 19:03:00,
2013-05-08 15:04:00,81.5,24.0,30.15,SSW,202,2.9,5.8,12,0.00,,,0.00,VWS V14.01,2013-05-08 19:04:00,
2013-05-08 15:05:00,82.2,24.6,30.15,NW,315,1.3,3.6,12,0.00,,,0.00,VWS V14.01,2013-05-08 19:05:00,
2013-05-08 15:06:00,81.9,24.3,30.15,WSW,248,6.5,6.5,12,0.00,,,0.00,VWS V14.01,2013-05-08 19:06:00,
2013-05-08 15:07:00,82.6,22.8,30.15,SSW,202,1.3,2.7,11,0.00,,,0.00,VWS V14.01,2013-05-08 19:07:00,
2013-05-08 15:08:00,82.6,22.8,30.15,South,180,2.0,2.0,11,0.00,,,0.00,VWS V14.01,2013-05-08 19:08:00,
2013-05-08 15:09:00,83.3,23.4,30.15,West,270,3.6,3.6,11,0.00,,,0.00,VWS V14.01,2013-05-08 19:09:00,
2013-05-08 15:10:00,83.3,23.4,30.15,WNW,292,5.4,6.0,11,0.00,,,0.00,VWS V14.01,2013-05-08 19:10:00,
2013-05-08 15:11:00,82.2,24.6,30.15,SE,135,4.9,4.9,12,0.00,,,0.00,VWS V14.01,2013-05-08 19:11:00,
2013-05-08 15:12:00,83.1,23.2,30.15,SSE,158,5.4,6.3,11,0.00,,,0.00,VWS V14.01,2013-05-08 19:12:00,
2013-05-08 15:13:00,83.3,23.4,30.15,West,270,9.8,9.8,11,0.00,,,0.00,VWS V14.01,2013-05-08 19:13:00,
2013-05-08 15:14:00,83.3,23.4,30.15,WSW,248,4.0,9.8,11,0.00,,,0.00,VWS V14.01,2013-05-08 19:14:00,
2013-05-08 15:15:00,83.1,23.2,30.15,WSW,248,3.6,6.5,11,0.00,,,0.00,VWS V14.01,2013-05-08 19:15:00,
2013-05-08 15:16:00,82.4,22.7,30.15,West,270,5.6,5.8,11,0.00,,,0.00,VWS V14.01,2013-05-08 19:16:00,
2013-05-08 15:17:00,83.5,23.5,30.15,NNE,22,3.8,3.8,11,0.00,,,0.00,VWS V14.01,2013-05-08 19:17:00,
2013-05-08 15:18:00,83.5,23.5,30.15,SSE,158,5.6,5.6,11,0.00,,,0.00,VWS V14.01,2013-05-08 19:18:00,
2013-05-08 15:19:00,83.5,23.5,30.15,WSW,248,5.4,6.3,11,0.00,,,0.00,VWS V14.01,2013-05-08 19:19:00,
2013-05-08 15:20:00,83.1,23.2,30.15,WNW,292,5.8,5.8,11,0.00,,,0.00,VWS V14.01,2013-05-08 19:20:00,
2013-05-08 15:21:00,82.9,23.1,30.15,WSW,248,7.4,7.4,11,0.00,,,0.00,VWS V14.01,2013-05-08 19:21:00,
2013-05-08 15:22:00,82.9,23.1,30.15,SSW,202,2.7,4.7,11,0.00,,,0.00,VWS V14.01,2013-05-08 19:22:00,
2013-05-08 15:23:00,82.8,23.0,30.15,WSW,248,3.8,5.6,11,0.00,,,0.00,VWS V14.01,2013-05-08 19:23:00,
2013-05-08 15:24:00,82.9,23.1,30.15,West,270,3.1,6.0,11,0.00,,,0.00,VWS V14.01,2013-05-08 19:24:00,
2013-05-08 15:25:00,82.9,23.1,30.15,WNW,292,2.5,4.3,11,0.00,,,0.00,VWS V14.01,2013-05-08 19:25:00,
2013-05-08 15:26:00,83.3,23.4,30.15,West,270,6.3,9.6,11,0.00,,,0.00,VWS V14.01,2013-05-08 19:26:00,
2013-05-08 15:27:00,82.8,23.0,30.15,WNW,292,6.7,6.7,11,0.00,,,0.00,VWS V14.01,2013-05-08 19:27:00,
2013-05-08 15:28:00,82.6,22.8,30.12,WNW,292,6.5,8.1,11,0.00,,,0.00,VWS V14.01,2013-05-08 19:28:00,
2013-05-08 15:29:00,82.2,24.6,30.12,WNW,292,12.1,12.1,12,0.00,,,0.00,VWS V14.01,2013-05-08 19:29:00,
2013-05-08 15:30:00,81.7,24.2,30.12,WSW,248,7.4,12.1,12,0.00,,,0.00,VWS V14.01,2013-05-08 19:30:00,
2013-05-08 15:31:00,83.3,23.4,30.15,SW,225,5.4,5.4,11,0.00,,,0.00,VWS V14.01,2013-05-08 19:31:00,
2013-05-08 15:32:00,81.7,24.2,30.12,SW,225,4.0,5.4,12,0.00,,,0.00,VWS V14.01,2013-05-08 19:32:00,
2013-05-08 15:33:00,81.7,24.2,30.12,NNW,338,3.8,5.4,12,0.00,,,0.00,VWS V14.01,2013-05-08 19:33:00,
2013-05-08 15:34:00,81.7,24.2,30.12,WNW,292,4.0,7.2,12,0.00,,,0.00,VWS V14.01,2013-05-08 19:34:00,
2013-05-08 15:35:00,81.7,24.2,30.12,WSW,248,2.5,5.4,12,0.00,,,0.00,VWS V14.01,2013-05-08 19:35:00,
2013-05-08 15:36:00,83.1,23.2,30.15,NNE,22,4.0,7.2,11,0.00,,,0.00,VWS V14.01,2013-05-08 19:36:00,
2013-05-08 15:37:00,82.4,22.7,30.12,WSW,248,5.6,10.1,11,0.00,,,0.00,VWS V14.01,2013-05-08 19:37:00,
2013-05-08 15:38:00,82.9,23.1,30.12,WSW,248,4.0,5.6,11,0.00,,,0.00,VWS V14.01,2013-05-08 19:38:00,
2013-05-08 15:39:00,82.9,23.1,30.12,WSW,248,4.0,4.0,11,0.00,,,0.00,VWS V14.01,2013-05-08 19:39:00,
2013-05-08 15:40:00,81.9,24.3,30.12,West,270,11.0,11.0,12,0.00,,,0.00,VWS V14.01,2013-05-08 19:40:00,
2013-05-08 15:41:00,82.8,23.0,30.15,WSW,248,2.7,8.7,11,0.00,,,0.00,VWS V14.01,2013-05-08 19:41:00,
2013-05-08 15:42:00,81.3,23.9,30.12,West,270,6.3,6.3,12,0.00,,,0.00,VWS V14.01,2013-05-08 19:42:00,
2013-05-08 15:43:00,81.1,23.8,30.12,WNW,292,6.0,8.1,12,0.00,,,0.00,VWS V14.01,2013-05-08 19:43:00,
2013-05-08 15:44:00,81.3,23.9,30.15,ENE,68,4.9,6.0,12,0.00,,,0.00,VWS V14.01,2013-05-08 19:44:00,
2013-05-08 15:45:00,81.3,23.9,30.15,West,270,5.8,5.8,12,0.00,,,0.00,VWS V14.01,2013-05-08 19:45:00,
2013-05-08 15:46:00,82.8,23.0,30.15,West,270,2.5,3.6,11,0.00,,,0.00,VWS V14.01,2013-05-08 19:46:00,
2013-05-08 15:47:00,82.4,22.7,30.15,SE,135,3.6,6.0,11,0.00,,,0.00,VWS V14.01,2013-05-08 19:47:00,
2013-05-08 15:48:00,81.9,24.3,30.15,WNW,292,7.6,10.1,12,0.00,,,0.00,VWS V14.01,2013-05-08 19:48:00,
2013-05-08 15:49:00,81.3,23.9,30.15,West,270,5.8,7.8,12,0.00,,,0.00,VWS V14.01,2013-05-08 19:49:00,
2013-05-08 15:50:00,80.8,23.5,30.15,WNW,292,2.5,5.8,12,0.00,,,0.00,VWS V14.01,2013-05-08 19:50:00,
2013-05-08 15:51:00,83.1,23.2,30.15,West,270,5.4,5.4,11,0.00,,,0.00,VWS V14.01,2013-05-08 19:51:00,
2013-05-08 15:52:00,81.0,23.6,30.15,SSE,158,2.7,6.0,12,0.00,,,0.00,VWS V14.01,2013-05-08 19:52:00,
2013-05-08 15:53:00,81.5,24.0,30.15,West,270,3.4,10.1,12,0.00,,,0.00,VWS V14.01,2013-05-08 19:53:00,
2013-05-08 15:54:00,81.7,24.2,30.15,West,270,4.3,7.2,12,0.00,,,0.00,VWS V14.01,2013-05-08 19:54:00,
2013-05-08 15:55:00,81.7,24.2,30.15,NNW,338,7.4,7.4,12,0.00,,,0.00,VWS V14.01,2013-05-08 19:55:00,
2013-05-08 15:56:00,81.9,24.3,30.15,WSW,248,4.9,7.4,12,0.00,,,0.00,VWS V14.01,2013-05-08 19:56:00,
2013-05-08 15:57:00,81.7,24.2,30.15,WNW,292,3.6,8.5,12,0.00,,,0.00,VWS V14.01,2013-05-08 19:57:00,
2013-05-08 15:58:00,82.4,22.7,30.12,SSE,158,3.8,3.8,11,0.00,,,0.00,VWS V14.01,2013-05-08 19:58:00,
2013-05-08 15:59:00,81.9,24.3,30.12,WNW,292,5.6,10.3,12,0.00,,,0.00,VWS V14.01,2013-05-08 19:59:00,
2013-05-08 16:00:00,81.7,24.2,30.12,WSW,248,10.5,10.5,12,0.00,,,0.00,VWS V14.01,2013-05-08 20:00:00,
2013-05-08 16:01:00,81.1,23.8,30.12,West,270,5.4,11.0,12,0.00,,,0.00,VWS V14.01,2013-05-08 20:01:00,
2013-05-08 16:02:00,81.5,24.0,30.15,WSW,248,5.4,5.4,12,0.00,,,0.00,VWS V14.01,2013-05-08 20:02:00,
2013-05-08 16:03:00,81.1,23.8,30.12,West,270,6.5,6.5,12,0.00,,,0.00,VWS V14.01,2013-05-08 20:03:00,
2013-05-08 16:04:00,81.7,24.2,30.12,WNW,292,6.5,6.5,12,0.00,,,0.00,VWS V14.01,2013-05-08 20:04:00,
2013-05-08 16:05:00,81.5,24.0,30.12,West,270,6.5,7.8,12,0.00,,,0.00,VWS V14.01,2013-05-08 20:05:00,
2013-05-08 16:06:00,81.9,24.3,30.15,West,270,4.7,6.0,12,0.00,,,0.00,VWS V14.01,2013-05-08 20:06:00,
2013-05-08 16:07:00,81.9,24.3,30.12,SSW,202,7.6,8.1,12,0.00,,,0.00,VWS V14.01,2013-05-08 20:07:00,
2013-05-08 16:08:00,81.7,24.2,30.12,WNW,292,6.5,7.6,12,0.00,,,0.00,VWS V14.01,2013-05-08 20:08:00,
2013-05-08 16:09:00,82.0,24.5,30.12,SW,225,3.4,6.5,12,0.00,,,0.00,VWS V14.01,2013-05-08 20:09:00,
2013-05-08 16:10:00,82.4,22.7,30.12,WSW,248,2.0,4.3,11,0.00,,,0.00,VWS V14.01,2013-05-08 20:10:00,
2013-05-08 16:11:00,82.6,22.8,30.12,SSW,202,7.2,7.2,11,0.00,,,0.00,VWS V14.01,2013-05-08 20:11:00,
2013-05-08 16:12:00,82.0,24.5,30.15,West,270,3.1,5.8,12,0.00,,,0.00,VWS V14.01,2013-05-08 20:12:00,
2013-05-08 16:13:00,82.6,22.8,30.12,West,270,3.1,3.1,11,0.00,,,0.00,VWS V14.01,2013-05-08 20:13:00,
2013-05-08 16:14:00,82.6,22.8,30.12,WSW,248,4.3,5.8,11,0.00,,,0.00,VWS V14.01,2013-05-08 20:14:00,
2013-05-08 16:15:00,82.6,22.8,30.15,WSW,248,4.3,4.3,11,0.00,,,0.00,VWS V14.01,2013-05-08 20:15:00,
2013-05-08 16:17:00,82.6,22.8,30.15,NW,315,4.0,5.8,11,0.00,,,0.00,VWS V14.01,2013-05-08 20:17:00,
2013-05-08 16:18:00,82.4,22.7,30.15,West,270,4.3,7.4,11,0.00,,,0.00,VWS V14.01,2013-05-08 20:18:00,
2013-05-08 16:19:00,82.2,24.6,30.15,West,270,6.3,6.3,12,0.00,,,0.00,VWS V14.01,2013-05-08 20:19:00,
2013-05-08 16:20:00,82.2,24.6,30.15,WSW,248,3.8,6.3,12,0.00,,,0.00,VWS V14.01,2013-05-08 20:20:00,
2013-05-08 16:21:00,82.2,24.6,30.15,South,180,6.3,7.6,12,0.00,,,0.00,VWS V14.01,2013-05-08 20:21:00,
2013-05-08 16:22:00,81.3,23.9,30.15,NNE,22,5.6,7.2,12,0.00,,,0.00,VWS V14.01,2013-05-08 20:22:00,
2013-05-08 16:23:00,82.0,24.5,30.15,West,270,5.8,8.7,12,0.00,,,0.00,VWS V14.01,2013-05-08 20:23:00,
2013-05-08 16:24:00,82.0,24.5,30.15,WNW,292,3.4,8.5,12,0.00,,,0.00,VWS V14.01,2013-05-08 20:24:00,
2013-05-08 16:25:00,82.0,24.5,30.15,WNW,292,6.0,6.0,12,0.00,,,0.00,VWS V14.01,2013-05-08 20:25:00,
2013-05-08 16:26:00,82.6,22.8,30.15,West,270,4.3,6.0,11,0.00,,,0.00,VWS V14.01,2013-05-08 20:26:00,
2013-05-08 16:27:00,80.2,23.1,30.15,ESE,112,3.6,7.8,12,0.00,,,0.00,VWS V14.01,2013-05-08 20:27:00,
2013-05-08 16:28:00,83.1,23.2,30.15,West,270,5.4,5.4,11,0.00,,,0.00,VWS V14.01,2013-05-08 20:28:00,
2013-05-08 16:29:00,83.1,23.2,30.15,NNW,338,7.8,10.1,11,0.00,,,0.00,VWS V14.01,2013-05-08 20:29:00,
2013-05-08 16:30:00,82.2,24.6,30.15,NW,315,6.3,7.8,12,0.00,,,0.00,VWS V14.01,2013-05-08 20:30:00,
2013-05-08 16:31:00,82.2,24.6,30.15,NW,315,6.3,6.3,12,0.00,,,0.00,VWS V14.01,2013-05-08 20:31:00,
2013-05-08 16:32:00,80.4,23.2,30.15,SSW,202,4.3,4.3,12,0.00,,,0.00,VWS V14.01,2013-05-08 20:32:00,
2013-05-08 16:33:00,82.0,24.5,30.15,West,270,5.8,6.5,12,0.00,,,0.00,VWS V14.01,2013-05-08 20:33:00,
2013-05-08 16:34:00,82.2,24.6,30.15,West,270,3.6,8.1,12,0.00,,,0.00,VWS V14.01,2013-05-08 20:34:00,
2013-05-08 16:35:00,82.2,24.6,30.15,West,270,4.0,4.0,12,0.00,,,0.00,VWS V14.01,2013-05-08 20:35:00,
2013-05-08 16:37:00,81.3,23.9,30.15,WNW,292,5.8,7.8,12,0.00,,,0.00,VWS V14.01,2013-05-08 20:37:00,
2013-05-08 16:38:00,82.4,22.7,30.15,WSW,248,4.9,6.0,11,0.00,,,0.00,VWS V14.01,2013-05-08 20:38:00,
2013-05-08 16:39:00,82.4,22.7,30.15,West,270,5.8,6.5,11,0.00,,,0.00,VWS V14.01,2013-05-08 20:39:00,
2013-05-08 16:40:00,81.7,24.2,30.15,WNW,292,7.4,7.4,12,0.00,,,0.00,VWS V14.01,2013-05-08 20:40:00,
2013-05-08 16:41:00,81.5,24.0,30.15,North,0,1.1,7.4,12,0.00,,,0.00,VWS V14.01,2013-05-08 20:41:00,
2013-05-08 16:42:00,81.3,23.9,30.15,West,270,4.0,7.6,12,0.00,,,0.00,VWS V14.01,2013-05-08 20:42:00,
2013-05-08 16:43:00,82.0,24.5,30.15,West,270,7.8,7.8,12,0.00,,,0.00,VWS V14.01,2013-05-08 20:43:00,
2013-05-08 16:44:00,81.9,24.3,30.15,WNW,292,7.6,7.8,12,0.00,,,0.00,VWS V14.01,2013-05-08 20:44:00,
2013-05-08 16:45:00,81.5,24.0,30.15,ENE,68,2.7,7.6,12,0.00,,,0.00,VWS V14.01,2013-05-08 20:45:00,
2013-05-08 16:46:00,81.7,24.2,30.15,SSE,158,5.4,5.4,12,0.00,,,0.00,VWS V14.01,2013-05-08 20:46:00,
2013-05-08 16:47:00,80.1,22.9,30.15,WSW,248,5.6,6.0,12,0.00,,,0.00,VWS V14.01,2013-05-08 20:47:00,
2013-05-08 16:48:00,82.6,22.8,30.15,West,270,4.5,4.9,11,0.00,,,0.00,VWS V14.01,2013-05-08 20:48:00,
2013-05-08 16:49:00,82.6,22.8,30.15,East,90,3.8,5.6,11,0.00,,,0.00,VWS V14.01,2013-05-08 20:49:00,
2013-05-08 16:50:00,82.6,22.8,30.15,West,270,5.6,5.6,11,0.00,,,0.00,VWS V14.01,2013-05-08 20:50:00,
2013-05-08 16:51:00,82.4,22.7,30.15,WSW,248,6.5,6.5,11,0.00,,,0.00,VWS V14.01,2013-05-08 20:51:00,
2013-05-08 16:52:00,80.2,23.1,30.12,West,270,10.7,10.7,12,0.00,,,0.00,VWS V14.01,2013-05-08 20:52:00,
2013-05-08 16:53:00,82.4,22.7,30.15,West,270,6.3,6.3,11,0.00,,,0.00,VWS V14.01,2013-05-08 20:53:00,
2013-05-08 16:54:00,82.4,22.7,30.15,WSW,248,2.9,6.3,11,0.00,,,0.00,VWS V14.01,2013-05-08 20:54:00,
2013-05-08 16:55:00,82.9,23.1,30.15,NNW,338,8.1,8.1,11,0.00,,,0.00,VWS V14.01,2013-05-08 20:55:00,
2013-05-08 16:56:00,82.9,23.1,30.15,West,270,6.3,8.1,11,0.00,,,0.00,VWS V14.01,2013-05-08 20:56:00,
2013-05-08 16:57:00,78.8,22.0,30.12,WSW,248,5.8,7.4,12,0.00,,,0.00,VWS V14.01,2013-05-08 20:57:00,
2013-05-08 16:58:00,82.9,23.1,30.15,WSW,248,4.9,7.4,11,0.00,,,0.00,VWS V14.01,2013-05-08 20:58:00,
2013-05-08 16:59:00,82.9,23.1,30.15,ESE,112,2.2,4.9,11,0.00,,,0.00,VWS V14.01,2013-05-08 20:59:00,
2013-05-08 17:00:00,82.8,23.0,30.15,West,270,3.8,3.8,11,0.00,,,0.00,VWS V14.01,2013-05-08 21:00:00,
2013-05-08 17:01:00,83.1,23.2,30.15,West,270,2.7,3.8,11,0.00,,,0.00,VWS V14.01,2013-05-08 21:01:00,
2013-05-08 17:02:00,78.6,23.7,30.12,West,270,2.5,5.4,13,0.00,,,0.00,VWS V14.01,2013-05-08 21:02:00,
2013-05-08 17:03:00,83.1,23.2,30.15,WSW,248,2.9,9.6,11,0.00,,,0.00,VWS V14.01,2013-05-08 21:03:00,
2013-05-08 17:05:00,83.1,23.2,30.15,WNW,292,3.8,5.8,11,0.00,,,0.00,VWS V14.01,2013-05-08 21:05:00,
2013-05-08 17:06:00,83.3,23.4,30.15,WSW,248,2.7,4.0,11,0.00,,,0.00,VWS V14.01,2013-05-08 21:06:00,
2013-05-08 17:07:00,78.6,23.7,30.12,West,270,6.0,7.8,13,0.00,,,0.00,VWS V14.01,2013-05-08 21:07:00,
2013-05-08 17:08:00,83.3,23.4,30.15,ESE,112,3.4,5.4,11,0.00,,,0.00,VWS V14.01,2013-05-08 21:08:00,
2013-05-08 17:09:00,83.7,23.6,30.15,ESE,112,4.3,5.6,11,0.00,,,0.00,VWS V14.01,2013-05-08 21:09:00,
2013-05-08 17:10:00,83.7,23.6,30.15,WSW,248,3.6,7.6,11,0.00,,,0.00,VWS V14.01,2013-05-08 21:10:00,
2013-05-08 17:11:00,83.8,23.8,30.15,West,270,4.9,4.9,11,0.00,,,0.00,VWS V14.01,2013-05-08 21:11:00,
2013-05-08 17:12:00,79.0,22.1,30.12,NW,315,4.3,6.5,12,0.00,,,0.00,VWS V14.01,2013-05-08 21:12:00,
2013-05-08 17:13:00,83.5,23.5,30.15,West,270,3.4,7.2,11,0.00,,,0.00,VWS V14.01,2013-05-08 21:13:00,
2013-05-08 17:14:00,83.7,23.6,30.15,SW,225,4.0,6.0,11,0.00,,,0.00,VWS V14.01,2013-05-08 21:14:00,
2013-05-08 17:15:00,83.5,23.5,30.15,WNW,292,4.7,6.5,11,0.00,,,0.00,VWS V14.01,2013-05-08 21:15:00,
2013-05-08 17:16:00,83.1,23.2,30.15,West,270,6.3,6.3,11,0.00,,,0.00,VWS V14.01,2013-05-08 21:16:00,
2013-05-08 17:17:00,79.5,22.5,30.12,WSW,248,5.6,7.6,12,0.00,,,0.00,VWS V14.01,2013-05-08 21:17:00,
2013-05-08 17:18:00,82.8,23.0,30.15,WSW,248,7.4,8.7,11,0.00,,,0.00,VWS V14.01,2013-05-08 21:18:00,
2013-05-08 17:19:00,82.8,23.0,30.15,West,270,9.6,9.6,11,0.00,,,0.00,VWS V14.01,2013-05-08 21:19:00,
2013-05-08 17:20:00,82.6,22.8,30.15,NW,315,3.8,9.6,11,0.00,,,0.00,VWS V14.01,2013-05-08 21:20:00,
2013-05-08 17:21:00,82.6,22.8,30.15,West,270,4.7,4.7,11,0.00,,,0.00,VWS V14.01,2013-05-08 21:21:00,
2013-05-08 17:22:00,78.6,23.7,30.12,WSW,248,6.0,6.0,13,0.00,,,0.00,VWS V14.01,2013-05-08 21:22:00,
2013-05-08 17:23:00,82.8,23.0,30.15,NW,315,3.8,3.8,11,0.00,,,0.00,VWS V14.01,2013-05-08 21:23:00,
2013-05-08 17:24:00,83.1,23.2,30.15,NW,315,3.8,3.8,11,0.00,,,0.00,VWS V14.01,2013-05-08 21:24:00,
2013-05-08 17:25:00,83.1,23.2,30.15,West,270,7.4,7.4,11,0.00,,,0.00,VWS V14.01,2013-05-08 21:25:00,
2013-05-08 17:26:00,83.1,23.2,30.15,SSW,202,3.1,7.4,11,0.00,,,0.00,VWS V14.01,2013-05-08 21:26:00,
2013-05-08 17:27:00,78.6,23.7,30.12,SSW,202,7.4,7.4,13,0.00,,,0.00,VWS V14.01,2013-05-08 21:27:00,
2013-05-08 17:28:00,83.1,23.2,30.15,WSW,248,4.0,5.4,11,0.00,,,0.00,VWS V14.01,2013-05-08 21:28:00,
2013-05-08 17:29:00,82.6,22.8,30.15,West,270,4.5,4.5,11,0.00,,,0.00,VWS V14.01,2013-05-08 21:29:00,
2013-05-08 17:30:00,82.4,22.7,30.15,WNW,292,7.4,9.8,11,0.00,,,0.00,VWS V14.01,2013-05-08 21:30:00,
2013-05-08 17:31:00,82.2,24.6,30.15,WNW,292,12.1,12.1,12,0.00,,,0.00,VWS V14.01,2013-05-08 21:31:00,
2013-05-08 17:32:00,78.3,23.4,30.12,South,180,3.8,3.8,13,0.00,,,0.00,VWS V14.01,2013-05-08 21:32:00,
2013-05-08 17:33:00,81.9,24.3,30.15,West,270,4.0,8.5,12,0.00,,,0.00,VWS V14.01,2013-05-08 21:33:00,
2013-05-08 17:34:00,82.0,24.5,30.15,West,270,5.4,7.6,12,0.00,,,0.00,VWS V14.01,2013-05-08 21:34:00,
2013-05-08 17:35:00,82.0,24.5,30.15,South,180,2.9,5.6,12,0.00,,,0.00,VWS V14.01,2013-05-08 21:35:00,
2013-05-08 17:36:00,81.5,24.0,30.15,WNW,292,4.9,4.9,12,0.00,,,0.00,VWS V14.01,2013-05-08 21:36:00,
2013-05-08 17:37:00,78.6,23.7,30.12,SSW,202,4.7,6.0,13,0.00,,,0.00,VWS V14.01,2013-05-08 21:37:00,
2013-05-08 17:38:00,81.5,24.0,30.15,SW,225,2.5,5.4,12,0.00,,,0.00,VWS V14.01,2013-05-08 21:38:00,
2013-05-08 17:39:00,82.0,24.5,30.15,NNE,22,3.4,3.4,12,0.00,,,0.00,VWS V14.01,2013-05-08 21:39:00,
2013-05-08 17:40:00,82.0,24.5,30.15,WNW,292,4.0,5.6,12,0.00,,,0.00,VWS V14.01,2013-05-08 21:40:00,
2013-05-08 17:41:00,81.9,24.3,30.15,SW,225,4.3,4.3,12,0.00,,,0.00,VWS V14.01,2013-05-08 21:41:00,
2013-05-08 17:42:00,78.3,23.4,30.12,West,270,5.6,5.6,13,0.00,,,0.00,VWS V14.01,2013-05-08 21:42:00,
2013-05-08 17:43:00,81.5,24.0,30.15,WSW,248,4.3,4.7,12,0.00,,,0.00,VWS V14.01,2013-05-08 21:43:00,
2013-05-08 17:44:00,81.5,24.0,30.15,NW,315,2.5,6.5,12,0.00,,,0.00,VWS V14.01,2013-05-08 21:44:00,
2013-05-08 17:45:00,81.7,24.2,30.15,West,270,4.9,4.9,12,0.00,,,0.00,VWS V14.01,2013-05-08 21:45:00,
2013-05-08 17:46:00,82.0,24.5,30.15,WNW,292,4.3,6.3,12,0.00,,,0.00,VWS V14.01,2013-05-08 21:46:00,
2013-05-08 17:47:00,77.9,23.1,30.12,East,90,5.4,6.5,13,0.00,,,0.00,VWS V14.01,2013-05-08 21:47:00,
2013-05-08 17:48:00,81.9,24.3,30.15,WSW,248,8.5,9.8,12,0.00,,,0.00,VWS V14.01,2013-05-08 21:48:00,
2013-05-08 17:49:00,82.0,24.5,30.15,WSW,248,3.1,8.5,12,0.00,,,0.00,VWS V14.01,2013-05-08 21:49:00,
2013-05-08 17:50:00,82.2,24.6,30.15,ESE,112,3.4,5.8,12,0.00,,,0.00,VWS V14.01,2013-05-08 21:50:00,
2013-05-08 17:51:00,82.2,24.6,30.15,SE,135,3.4,4.0,12,0.00,,,0.00,VWS V14.01,2013-05-08 21:51:00,
2013-05-08 17:52:00,77.4,22.7,30.12,WNW,292,7.8,9.2,13,0.00,,,0.00,VWS V14.01,2013-05-08 21:52:00,
2013-05-08 17:53:00,82.6,22.8,30.15,WSW,248,4.3,5.8,11,0.00,,,0.00,VWS V14.01,2013-05-08 21:53:00,
2013-05-08 17:55:00,82.6,22.8,30.15,SW,225,7.8,7.8,11,0.00,,,0.00,VWS V14.01,2013-05-08 21:55:00,
2013-05-08 17:56:00,82.6,22.8,30.15,SW,225,7.8,7.8,11,0.00,,,0.00,VWS V14.01,2013-05-08 21:56:00,
2013-05-08 17:57:00,76.8,22.3,30.12,West,270,7.6,7.6,13,0.00,,,0.00,VWS V14.01,2013-05-08 21:57:00,
2013-05-08 17:58:00,81.3,23.9,30.15,SW,225,3.8,7.2,12,0.00,,,0.00,VWS V14.01,2013-05-08 21:58:00,
2013-05-08 17:59:00,81.5,24.0,30.15,SSE,158,2.5,4.9,12,0.00,,,0.00,VWS V14.01,2013-05-08 21:59:00,
2013-05-08 18:00:00,81.0,23.6,30.15,WSW,248,3.6,6.5,12,0.00,,,0.00,VWS V14.01,2013-05-08 22:00:00,
2013-05-08 18:01:00,80.8,23.5,30.15,WNW,292,3.6,5.8,12,0.00,,,0.00,VWS V14.01,2013-05-08 22:01:00,
2013-05-08 18:02:00,76.5,22.0,30.12,WNW,292,5.4,5.4,13,0.00,,,0.00,VWS V14.01,2013-05-08 22:02:00,
2013-05-08 18:03:00,80.2,23.1,30.15,NNW,338,4.3,7.8,12,0.00,,,0.00,VWS V14.01,2013-05-08 22:03:00,
2013-05-08 18:04:00,80.1,22.9,30.15,West,270,4.3,5.6,12,0.00,,,0.00,VWS V14.01,2013-05-08 22:04:00,
2013-05-08 18:05:00,80.1,22.9,30.15,SW,225,5.8,10.1,12,0.00,,,0.00,VWS V14.01,2013-05-08 22:05:00,
2013-05-08 18:06:00,80.2,23.1,30.15,WNW,292,4.9,6.5,12,0.00,,,0.00,VWS V14.01,2013-05-08 22:06:00,
2013-05-08 18:07:00,76.8,22.3,30.15,WNW,292,2.5,2.5,13,0.00,,,0.00,VWS V14.01,2013-05-08 22:07:00,
2013-05-08 18:08:00,80.4,23.2,30.15,West,270,2.0,4.3,12,0.00,,,0.00,VWS V14.01,2013-05-08 22:08:00,
2013-05-08 18:09:00,80.6,23.4,30.15,ESE,112,1.1,4.3,12,0.00,,,0.00,VWS V14.01,2013-05-08 22:09:00,
2013-05-08 18:10:00,81.7,24.2,30.15,West,270,1.6,2.9,12,0.00,,,0.00,VWS V14.01,2013-05-08 22:10:00,
2013-05-08 18:11:00,81.7,24.2,30.15,West,270,3.1,3.1,12,0.00,,,0.00,VWS V14.01,2013-05-08 22:11:00,
2013-05-08 18:12:00,76.6,22.1,30.15,WNW,292,6.5,6.5,13,0.00,,,0.00,VWS V14.01,2013-05-08 22:12:00,
2013-05-08 18:13:00,81.3,23.9,30.15,West,270,7.6,7.8,12,0.00,,,0.00,VWS V14.01,2013-05-08 22:13:00,
2013-05-08 18:14:00,81.3,23.9,30.15,SSE,158,7.2,7.6,12,0.00,,,0.00,VWS V14.01,2013-05-08 22:14:00,
2013-05-08 18:15:00,81.3,23.9,30.15,WNW,292,6.0,9.0,12,0.00,,,0.00,VWS V14.01,2013-05-08 22:15:00,
2013-05-08 18:16:00,81.1,23.8,30.15,North,0,2.9,6.0,12,0.00,,,0.00,VWS V14.01,2013-05-08 22:16:00,
2013-05-08 18:17:00,75.6,21.3,30.15,West,270,7.2,7.2,13,0.00,,,0.00,VWS V14.01,2013-05-08 22:17:00,
2013-05-08 18:18:00,81.3,23.9,30.15,North,0,6.5,7.6,12,0.00,,,0.00,VWS V14.01,2013-05-08 22:18:00,
2013-05-08 18:19:00,81.3,23.9,30.15,West,270,3.4,6.5,12,0.00,,,0.00,VWS V14.01,2013-05-08 22:19:00,
2013-05-08 18:20:00,81.0,23.6,30.15,WNW,292,5.8,5.8,12,0.00,,,0.00,VWS V14.01,2013-05-08 22:20:00,
2013-05-08 18:21:00,80.4,23.2,30.15,West,270,3.1,5.8,12,0.00,,,0.00,VWS V14.01,2013-05-08 22:21:00,
2013-05-08 18:22:00,75.7,21.5,30.12,SSW,202,2.5,2.5,13,0.00,,,0.00,VWS V14.01,2013-05-08 22:22:00,
2013-05-08 18:23:00,80.1,22.9,30.15,WSW,248,5.6,6.0,12,0.00,,,0.00,VWS V14.01,2013-05-08 22:23:00,
2013-05-08 18:24:00,80.1,22.9,30.15,NNW,338,3.6,5.6,12,0.00,,,0.00,VWS V14.01,2013-05-08 22:24:00,
2013-05-08 18:25:00,80.2,23.1,30.15,SE,135,4.7,4.7,12,0.00,,,0.00,VWS V14.01,2013-05-08 22:25:00,
2013-05-08 18:26:00,80.4,23.2,30.15,West,270,5.6,5.6,12,0.00,,,0.00,VWS V14.01,2013-05-08 22:26:00,
2013-05-08 18:27:00,76.5,25.4,30.12,West,270,3.1,3.1,15,0.00,,,0.00,VWS V14.01,2013-05-08 22:27:00,
2013-05-08 18:28:00,80.2,23.1,30.12,WNW,292,8.5,10.7,12,0.00,,,0.00,VWS V14.01,2013-05-08 22:28:00,
2013-05-08 18:29:00,80.1,22.9,30.12,WNW,292,4.3,10.5,12,0.00,,,0.00,VWS V14.01,2013-05-08 22:29:00,
2013-05-08 18:30:00,80.1,22.9,30.12,SW,225,1.3,8.7,12,0.00,,,0.00,VWS V14.01,2013-05-08 22:30:00,
2013-05-08 18:31:00,80.1,22.9,30.12,NE,45,4.3,4.7,12,0.00,,,0.00,VWS V14.01,2013-05-08 22:31:00,
2013-05-08 18:32:00,75.7,21.5,30.12,West,270,2.9,2.9,13,0.00,,,0.00,VWS V14.01,2013-05-08 22:32:00,
2013-05-08 18:33:00,78.4,23.6,30.12,WSW,248,7.8,7.8,13,0.00,,,0.00,VWS V14.01,2013-05-08 22:33:00,
2013-05-08 18:34:00,78.3,23.4,30.12,WSW,248,2.9,7.8,13,0.00,,,0.00,VWS V14.01,2013-05-08 22:34:00,
2013-05-08 18:35:00,78.3,23.4,30.12,WNW,292,4.3,4.7,13,0.00,,,0.00,VWS V14.01,2013-05-08 22:35:00,
2013-05-08 18:36:00,78.3,23.4,30.12,WNW,292,4.3,4.3,13,0.00,,,0.00,VWS V14.01,2013-05-08 22:36:00,
2013-05-08 18:37:00,75.6,24.7,30.12,WNW,292,2.7,5.6,15,0.00,,,0.00,VWS V14.01,2013-05-08 22:37:00,
2013-05-08 18:38:00,78.6,23.7,30.12,West,270,2.5,5.4,13,0.00,,,0.00,VWS V14.01,2013-05-08 22:38:00,
2013-05-08 18:39:00,78.8,22.0,30.12,WSW,248,8.7,8.7,12,0.00,,,0.00,VWS V14.01,2013-05-08 22:39:00,
2013-05-08 18:40:00,78.8,22.0,30.12,West,270,7.4,8.7,12,0.00,,,0.00,VWS V14.01,2013-05-08 22:40:00,
2013-05-08 18:41:00,79.0,22.1,30.12,WNW,292,7.8,7.8,12,0.00,,,0.00,VWS V14.01,2013-05-08 22:41:00,
2013-05-08 18:42:00,75.4,24.6,30.12,SW,225,4.9,7.4,15,0.00,,,0.00,VWS V14.01,2013-05-08 22:42:00,
2013-05-08 18:43:00,78.6,23.7,30.12,West,270,6.0,7.8,13,0.00,,,0.00,VWS V14.01,2013-05-08 22:43:00,
2013-05-08 18:44:00,78.8,22.0,30.12,SSE,158,4.3,6.0,12,0.00,,,0.00,VWS V14.01,2013-05-08 22:44:00,
2013-05-08 18:45:00,78.8,22.0,30.12,WSW,248,2.7,4.3,12,0.00,,,0.00,VWS V14.01,2013-05-08 22:45:00,
2013-05-08 18:46:00,79.0,22.1,30.12,WSW,248,8.7,8.7,12,0.00,,,0.00,VWS V14.01,2013-05-08 22:46:00,
2013-05-08 18:47:00,75.6,24.7,30.12,WSW,248,5.8,5.8,15,0.00,,,0.00,VWS V14.01,2013-05-08 22:47:00,
2013-05-08 18:48:00,79.2,22.2,30.12,West,270,3.1,6.5,12,0.00,,,0.00,VWS V14.01,2013-05-08 22:48:00,
2013-05-08 18:49:00,79.2,22.2,30.12,West,270,4.9,5.4,12,0.00,,,0.00,VWS V14.01,2013-05-08 22:49:00,
2013-05-08 18:50:00,79.5,22.5,30.12,SW,225,4.7,4.9,12,0.00,,,0.00,VWS V14.01,2013-05-08 22:50:00,
2013-05-08 18:51:00,79.5,22.5,30.12,West,270,4.3,4.7,12,0.00,,,0.00,VWS V14.01,2013-05-08 22:51:00,
2013-05-08 18:52:00,75.2,24.4,30.12,SW,225,2.5,4.7,15,0.00,,,0.00,VWS V14.01,2013-05-08 22:52:00,
2013-05-08 18:53:00,79.5,22.5,30.12,WNW,292,4.0,7.6,12,0.00,,,0.00,VWS V14.01,2013-05-08 22:53:00,
2013-05-08 18:54:00,79.2,22.2,30.12,WNW,292,8.1,10.7,12,0.00,,,0.00,VWS V14.01,2013-05-08 22:54:00,
2013-05-08 18:55:00,78.8,22.0,30.12,NNW,338,3.4,8.1,12,0.00,,,0.00,VWS V14.01,2013-05-08 22:55:00,
2013-05-08 18:56:00,78.6,23.7,30.12,West,270,8.5,8.5,13,0.00,,,0.00,VWS V14.01,2013-05-08 22:56:00,
2013-05-08 18:57:00,75.0,25.8,30.12,West,270,2.9,2.9,16,0.00,,,0.00,VWS V14.01,2013-05-08 22:57:00,
2013-05-08 18:58:00,78.6,23.7,30.12,WSW,248,6.0,6.0,13,0.00,,,0.00,VWS V14.01,2013-05-08 22:58:00,
2013-05-08 18:59:00,78.6,23.7,30.12,WNW,292,6.5,7.2,13,0.00,,,0.00,VWS V14.01,2013-05-08 22:59:00,
2013-05-08 19:00:00,78.6,23.7,30.12,ESE,112,8.5,8.5,13,0.00,,,0.00,VWS V14.01,2013-05-08 23:00:00,
2013-05-08 19:01:00,78.6,23.7,30.12,West,270,5.4,8.5,13,0.00,,,0.00,VWS V14.01,2013-05-08 23:01:00,
2013-05-08 19:02:00,74.8,25.7,30.12,North,0,6.9,6.9,16,0.00,,,0.00,VWS V14.01,2013-05-08 23:02:00,
2013-05-08 19:03:00,78.6,23.7,30.12,SSW,202,7.4,7.4,13,0.00,,,0.00,VWS V14.01,2013-05-08 23:03:00,
2013-05-08 19:04:00,78.6,23.7,30.12,West,270,7.4,7.4,13,0.00,,,0.00,VWS V14.01,2013-05-08 23:04:00,
2013-05-08 19:05:00,78.4,23.6,30.12,SSW,202,4.0,8.7,13,0.00,,,0.00,VWS V14.01,2013-05-08 23:05:00,
2013-05-08 19:06:00,78.4,23.6,30.12,West,270,5.6,6.3,13,0.00,,,0.00,VWS V14.01,2013-05-08 23:06:00,
2013-05-08 19:07:00,78.3,23.4,30.12,SW,225,3.8,6.5,13,0.00,,,0.00,VWS V14.01,2013-05-08 23:07:00,
2013-05-08 19:08:00,74.7,25.5,30.15,West,270,6.0,6.0,16,0.00,,,0.00,VWS V14.01,2013-05-08 23:08:00,
2013-05-08 19:09:00,78.3,23.4,30.12,South,180,2.9,5.8,13,0.00,,,0.00,VWS V14.01,2013-05-08 23:09:00,
2013-05-08 19:10:00,78.3,23.4,30.12,South,180,2.9,2.9,13,0.00,,,0.00,VWS V14.01,2013-05-08 23:10:00,
2013-05-08 19:11:00,78.4,23.6,30.12,SW,225,4.7,4.7,13,0.00,,,0.00,VWS V14.01,2013-05-08 23:11:00,
2013-05-08 19:12:00,78.6,23.7,30.12,WNW,292,6.0,6.0,13,0.00,,,0.00,VWS V14.01,2013-05-08 23:12:00,
2013-05-08 19:13:00,74.5,25.4,30.15,West,270,4.0,5.8,16,0.00,,,0.00,VWS V14.01,2013-05-08 23:13:00,
2013-05-08 19:14:00,78.4,23.6,30.12,West,270,8.1,8.1,13,0.00,,,0.00,VWS V14.01,2013-05-08 23:14:00,
2013-05-08 19:15:00,78.3,23.4,30.12,West,270,3.8,8.1,13,0.00,,,0.00,VWS V14.01,2013-05-08 23:15:00,
2013-05-08 19:16:00,78.4,23.6,30.12,West,270,6.3,6.3,13,0.00,,,0.00,VWS V14.01,2013-05-08 23:16:00,
2013-05-08 19:17:00,78.4,23.6,30.12,West,270,4.3,6.3,13,0.00,,,0.00,VWS V14.01,2013-05-08 23:17:00,
2013-05-08 19:18:00,74.5,25.4,30.15,SW,225,4.3,4.3,16,0.00,,,0.00,VWS V14.01,2013-05-08 23:18:00,
2013-05-08 19:19:00,77.9,23.1,30.12,West,270,6.0,7.4,13,0.00,,,0.00,VWS V14.01,2013-05-08 23:19:00,
2013-05-08 19:20:00,77.9,23.1,30.12,West,270,6.0,6.0,13,0.00,,,0.00,VWS V14.01,2013-05-08 23:20:00,
2013-05-08 19:21:00,77.9,23.1,30.12,West,270,7.2,7.2,13,0.00,,,0.00,VWS V14.01,2013-05-08 23:21:00,
2013-05-08 19:22:00,77.9,23.1,30.12,West,270,3.4,7.2,13,0.00,,,0.00,VWS V14.01,2013-05-08 23:22:00,
2013-05-08 19:23:00,74.1,25.1,30.12,West,270,2.9,2.9,16,0.00,,,0.00,VWS V14.01,2013-05-08 23:23:00,
2013-05-08 19:24:00,77.5,22.9,30.12,ENE,68,3.6,5.4,13,0.00,,,0.00,VWS V14.01,2013-05-08 23:24:00,
2013-05-08 19:25:00,77.4,22.7,30.12,West,270,2.9,3.6,13,0.00,,,0.00,VWS V14.01,2013-05-08 23:25:00,
2013-05-08 19:26:00,77.4,22.7,30.12,WNW,292,2.7,2.9,13,0.00,,,0.00,VWS V14.01,2013-05-08 23:26:00,
2013-05-08 19:27:00,77.4,22.7,30.12,WSW,248,9.2,9.2,13,0.00,,,0.00,VWS V14.01,2013-05-08 23:27:00,
2013-05-08 19:28:00,73.9,25.0,30.12,WSW,248,4.9,4.9,16,0.00,,,0.00,VWS V14.01,2013-05-08 23:28:00,
2013-05-08 19:29:00,77.4,22.7,30.12,WNW,292,4.7,10.7,13,0.00,,,0.00,VWS V14.01,2013-05-08 23:29:00,
2013-05-08 19:30:00,77.5,22.9,30.12,WNW,292,4.0,4.9,13,0.00,,,0.00,VWS V14.01,2013-05-08 23:30:00,
2013-05-08 19:31:00,77.5,22.9,30.12,NNW,338,2.9,6.5,13,0.00,,,0.00,VWS V14.01,2013-05-08 23:31:00,
2013-05-08 19:32:00,77.5,22.9,30.12,West,270,4.5,7.4,13,0.00,,,0.00,VWS V14.01,2013-05-08 23:32:00,
2013-05-08 19:33:00,73.4,27.4,30.12,SSW,202,2.7,3.1,18,0.00,,,0.00,VWS V14.01,2013-05-08 23:33:00,
2013-05-08 19:34:00,76.6,22.1,30.12,WNW,292,5.4,7.6,13,0.00,,,0.00,VWS V14.01,2013-05-08 23:34:00,
2013-05-08 19:35:00,76.6,22.1,30.12,WNW,292,7.2,7.8,13,0.00,,,0.00,VWS V14.01,2013-05-08 23:35:00,
2013-05-08 19:36:00,75.9,21.6,30.12,WNW,292,2.7,7.8,13,0.00,,,0.00,VWS V14.01,2013-05-08 23:36:00,
2013-05-08 19:37:00,76.1,21.7,30.12,West,270,3.6,4.0,13,0.00,,,0.00,VWS V14.01,2013-05-08 23:37:00,
2013-05-08 19:38:00,73.0,30.8,30.12,WNW,292,3.4,3.4,21,0.00,,,0.00,VWS V14.01,2013-05-08 23:38:00,
2013-05-08 19:39:00,76.3,21.9,30.12,WNW,292,1.6,5.4,13,0.00,,,0.00,VWS V14.01,2013-05-08 23:39:00,
2013-05-08 19:40:00,76.5,22.0,30.12,West,270,1.6,4.9,13,0.00,,,0.00,VWS V14.01,2013-05-08 23:40:00,
2013-05-08 19:41:00,76.6,22.1,30.12,SSW,202,3.4,5.8,13,0.00,,,0.00,VWS V14.01,2013-05-08 23:41:00,
2013-05-08 19:42:00,76.6,22.1,30.12,SSW,202,3.4,6.5,13,0.00,,,0.00,VWS V14.01,2013-05-08 23:42:00,
2013-05-08 19:43:00,73.0,30.8,30.15,SW,225,4.9,4.9,21,0.00,,,0.00,VWS V14.01,2013-05-08 23:43:00,
2013-05-08 19:44:00,77.0,22.4,30.15,WNW,292,3.8,4.9,13,0.00,,,0.00,VWS V14.01,2013-05-08 23:44:00,
2013-05-08 19:45:00,77.2,22.6,30.15,WNW,292,5.8,6.3,13,0.00,,,0.00,VWS V14.01,2013-05-08 23:45:00,
2013-05-08 19:46:00,77.0,22.4,30.15,SW,225,6.5,6.9,13,0.00,,,0.00,VWS V14.01,2013-05-08 23:46:00,
2013-05-08 19:48:00,72.7,30.5,30.15,West,270,3.6,4.9,21,0.00,,,0.00,VWS V14.01,2013-05-08 23:48:00,
2013-05-08 19:49:00,76.3,21.9,30.15,WNW,292,8.1,8.1,13,0.00,,,0.00,VWS V14.01,2013-05-08 23:49:00,
2013-05-08 19:50:00,76.3,21.9,30.15,West,270,6.0,8.1,13,0.00,,,0.00,VWS V14.01,2013-05-08 23:50:00,
2013-05-08 19:51:00,76.3,21.9,30.15,North,0,5.6,6.0,13,0.00,,,0.00,VWS V14.01,2013-05-08 23:51:00,
2013-05-08 19:52:00,75.7,21.5,30.15,WSW,248,6.3,8.1,13,0.00,,,0.00,VWS V14.01,2013-05-08 23:52:00,
2013-05-08 19:53:00,72.3,31.4,30.15,ESE,112,3.6,3.6,22,0.00,,,0.00,VWS V14.01,2013-05-08 23:53:00,
2013-05-08 19:54:00,75.6,21.3,30.15,West,270,7.2,7.2,13,0.00,,,0.00,VWS V14.01,2013-05-08 23:54:00,
2013-05-08 19:55:00,75.6,21.3,30.15,NE,45,1.6,7.2,13,0.00,,,0.00,VWS V14.01,2013-05-08 23:55:00,
2013-05-08 19:56:00,75.9,21.6,30.15,West,270,3.4,3.6,13,0.00,,,0.00,VWS V14.01,2013-05-08 23:56:00,
2013-05-08 19:57:00,75.9,21.6,30.15,West,270,4.3,4.3,13,0.00,,,0.00,VWS V14.01,2013-05-08 23:57:00,
2013-05-08 19:58:00,72.0,31.1,30.15,West,270,2.2,5.4,22,0.00,,,0.00,VWS V14.01,2013-05-08 23:58:00,
2013-05-08 20:00:00,75.7,21.5,30.12,West,270,6.0,6.0,13,0.00,,,0.00,VWS V14.01,2013-05-09 00:00:00,
2013-05-08 20:01:00,75.9,21.6,30.12,SSE,158,4.0,6.0,13,0.00,,,0.00,VWS V14.01,2013-05-09 00:01:00,
2013-05-08 20:02:00,75.9,21.6,30.12,North,0,3.4,4.0,13,0.00,,,0.00,VWS V14.01,2013-05-09 00:02:00,
2013-05-08 20:03:00,71.6,30.8,30.15,WSW,248,1.3,3.4,22,0.00,,,0.00,VWS V14.01,2013-05-09 00:03:00,
2013-05-08 20:04:00,76.5,25.4,30.12,SE,135,2.9,3.1,15,0.00,,,0.00,VWS V14.01,2013-05-09 00:04:00,
2013-05-08 20:05:00,76.5,25.4,30.12,West,270,3.1,3.1,15,0.00,,,0.00,VWS V14.01,2013-05-09 00:05:00,
2013-05-08 20:06:00,76.5,25.4,30.12,SW,225,8.7,8.7,15,0.00,,,0.00,VWS V14.01,2013-05-09 00:06:00,
2013-05-08 20:07:00,75.9,21.6,30.12,NNW,338,3.8,8.7,13,0.00,,,0.00,VWS V14.01,2013-05-09 00:07:00,
2013-05-08 20:08:00,71.4,31.7,30.15,ESE,112,3.6,4.3,23,0.00,,,0.00,VWS V14.01,2013-05-09 00:08:00,
2013-05-08 20:09:00,75.6,21.3,30.12,NW,315,5.6,7.4,13,0.00,,,0.00,VWS V14.01,2013-05-09 00:09:00,
2013-05-08 20:10:00,75.7,24.9,30.12,ESE,112,2.5,5.6,15,0.00,,,0.00,VWS V14.01,2013-05-09 00:10:00,
2013-05-08 20:11:00,75.6,24.7,30.12,West,270,1.3,3.4,15,0.00,,,0.00,VWS V14.01,2013-05-09 00:11:00,
2013-05-08 20:12:00,75.6,24.7,30.12,West,270,3.8,3.8,15,0.00,,,0.00,VWS V14.01,2013-05-09 00:12:00,
2013-05-08 20:13:00,71.2,31.6,30.15,WSW,248,1.6,4.7,23,0.00,,,0.00,VWS V14.01,2013-05-09 00:13:00,
2013-05-08 20:14:00,75.6,24.7,30.12,WSW,248,1.6,5.6,15,0.00,,,0.00,VWS V14.01,2013-05-09 00:14:00,
2013-05-08 20:15:00,75.2,24.4,30.12,West,270,4.3,4.3,15,0.00,,,0.00,VWS V14.01,2013-05-09 00:15:00,
2013-05-08 20:16:00,75.4,24.6,30.12,WNW,292,2.9,6.3,15,0.00,,,0.00,VWS V14.01,2013-05-09 00:16:00,
2013-05-08 20:17:00,75.4,24.6,30.12,WNW,292,4.9,5.4,15,0.00,,,0.00,VWS V14.01,2013-05-09 00:17:00,
2013-05-08 20:18:00,70.9,31.3,30.15,West,270,3.6,4.0,23,0.00,,,0.00,VWS V14.01,2013-05-09 00:18:00,
2013-05-08 20:19:00,75.4,24.6,30.12,SW,225,2.9,7.4,15,0.00,,,0.00,VWS V14.01,2013-05-09 00:19:00,
2013-05-08 20:20:00,75.2,24.4,30.12,WSW,248,1.3,7.6,15,0.00,,,0.00,VWS V14.01,2013-05-09 00:20:00,
2013-05-08 20:21:00,75.4,24.6,30.12,WNW,292,5.6,5.6,15,0.00,,,0.00,VWS V14.01,2013-05-09 00:21:00,
2013-05-08 20:23:00,70.7,32.2,30.15,NW,315,2.9,3.6,24,0.00,,,0.00,VWS V14.01,2013-05-09 00:23:00,
2013-05-08 20:24:00,75.6,24.7,30.12,West,270,6.0,6.0,15,0.00,,,0.00,VWS V14.01,2013-05-09 00:24:00,
2013-05-08 20:25:00,75.6,24.7,30.12,West,270,8.1,8.1,15,0.00,,,0.00,VWS V14.01,2013-05-09 00:25:00,
2013-05-08 20:26:00,75.2,24.4,30.12,NW,315,8.1,8.1,15,0.00,,,0.00,VWS V14.01,2013-05-09 00:26:00,
2013-05-08 20:27:00,75.2,24.4,30.12,SSW,202,4.7,8.1,15,0.00,,,0.00,VWS V14.01,2013-05-09 00:27:00,
2013-05-08 20:28:00,70.5,32.0,30.15,NNW,338,3.4,3.4,24,0.00,,,0.00,VWS V14.01,2013-05-09 00:28:00,
2013-05-08 20:29:00,75.0,25.8,30.12,SSE,158,2.5,4.7,16,0.00,,,0.00,VWS V14.01,2013-05-09 00:29:00,
2013-05-08 20:31:00,75.0,25.8,30.12,WNW,292,6.0,6.0,16,0.00,,,0.00,VWS V14.01,2013-05-09 00:31:00,
2013-05-08 20:32:00,75.0,25.8,30.12,West,270,6.0,6.0,16,0.00,,,0.00,VWS V14.01,2013-05-09 00:32:00,
2013-05-08 20:33:00,70.2,31.7,30.15,WSW,248,2.9,2.9,24,0.00,,,0.00,VWS V14.01,2013-05-09 00:33:00,
2013-05-08 20:35:00,75.0,25.8,30.12,West,270,2.9,2.9,16,0.00,,,0.00,VWS V14.01,2013-05-09 00:35:00,
2013-05-08 20:37:00,75.0,25.8,30.12,West,270,2.9,2.9,16,0.00,,,0.00,VWS V14.01,2013-05-09 00:37:00,
2013-05-08 20:38:00,70.0,31.6,30.15,West,270,2.0,2.7,24,0.00,,,0.00,VWS V14.01,2013-05-09 00:38:00,
2013-05-08 20:39:00,74.8,25.7,30.12,West,270,6.3,6.9,16,0.00,,,0.00,VWS V14.01,2013-05-09 00:39:00,
2013-05-08 20:40:00,74.8,25.7,30.12,SW,225,3.6,8.1,16,0.00,,,0.00,VWS V14.01,2013-05-09 00:40:00,
2013-05-08 20:41:00,74.8,25.7,30.12,SSW,202,4.9,6.5,16,0.00,,,0.00,VWS V14.01,2013-05-09 00:41:00,
2013-05-08 20:42:00,74.8,25.7,30.12,SSE,158,3.1,4.9,16,0.00,,,0.00,VWS V14.01,2013-05-09 00:42:00,
2013-05-08 20:43:00,69.8,31.4,30.15,West,270,1.3,1.3,24,0.00,,,0.00,VWS V14.01,2013-05-09 00:43:00,
2013-05-08 20:44:00,74.7,25.5,30.15,WNW,292,5.4,6.0,16,0.00,,,0.00,VWS V14.01,2013-05-09 00:44:00,
2013-05-08 20:45:00,74.7,25.5,30.15,WNW,292,5.6,6.0,16,0.00,,,0.00,VWS V14.01,2013-05-09 00:45:00,
2013-05-08 20:46:00,74.7,25.5,30.15,WNW,292,5.6,5.6,16,0.00,,,0.00,VWS V14.01,2013-05-09 00:46:00,
2013-05-08 20:47:00,74.7,25.5,30.15,West,270,3.8,5.6,16,0.00,,,0.00,VWS V14.01,2013-05-09 00:47:00,
2013-05-08 20:48:00,69.6,32.3,30.15,WSW,248,1.1,1.6,25,0.00,,,0.00,VWS V14.01,2013-05-09 00:48:00,
2013-05-08 20:49:00,74.5,25.4,30.15,West,270,3.4,5.8,16,0.00,,,0.00,VWS V14.01,2013-05-09 00:49:00,
2013-05-08 20:50:00,74.5,25.4,30.15,West,270,4.3,4.9,16,0.00,,,0.00,VWS V14.01,2013-05-09 00:50:00,
2013-05-08 20:51:00,74.5,25.4,30.15,West,270,5.8,7.2,16,0.00,,,0.00,VWS V14.01,2013-05-09 00:51:00,
2013-05-08 20:52:00,74.5,25.4,30.15,WNW,292,7.6,7.6,16,0.00,,,0.00,VWS V14.01,2013-05-09 00:52:00,
2013-05-08 20:53:00,69.6,33.2,30.15,WSW,248,2.5,2.5,26,0.00,,,0.00,VWS V14.01,2013-05-09 00:53:00,
2013-05-08 20:54:00,74.5,25.4,30.15,West,270,7.2,7.2,16,0.00,,,0.00,VWS V14.01,2013-05-09 00:54:00,
2013-05-08 20:55:00,74.5,25.4,30.15,WNW,292,3.4,7.2,16,0.00,,,0.00,VWS V14.01,2013-05-09 00:55:00,
2013-05-08 20:56:00,74.5,25.4,30.15,WSW,248,2.0,4.9,16,0.00,,,0.00,VWS V14.01,2013-05-09 00:56:00,
2013-05-08 20:57:00,74.1,25.1,30.15,ENE,68,2.9,5.4,16,0.00,,,0.00,VWS V14.01,2013-05-09 00:57:00,
2013-05-08 20:58:00,69.4,33.1,30.15,SW,225,0.0,1.3,26,0.00,,,0.00,VWS V14.01,2013-05-09 00:58:00,
2013-05-08 20:59:00,73.9,25.0,30.12,SSE,158,3.1,3.6,16,0.00,,,0.00,VWS V14.01,2013-05-09 00:59:00,
2013-05-08 21:00:00,73.9,25.0,30.12,WSW,248,7.4,7.4,16,0.00,,,0.00,VWS V14.01,2013-05-09 01:00:00,
2013-05-08 21:01:00,73.9,25.0,30.12,West,270,4.0,7.4,16,0.00,,,0.00,VWS V14.01,2013-05-09 01:01:00,
2013-05-08 21:02:00,73.9,25.0,30.12,SSW,202,2.5,4.0,16,0.00,,,0.00,VWS V14.01,2013-05-09 01:02:00,
2013-05-08 21:03:00,69.3,32.9,30.15,WSW,248,0.0,0.0,26,0.00,,,0.00,VWS V14.01,2013-05-09 01:03:00,
2013-05-08 21:04:00,73.9,25.0,30.12,WSW,248,4.9,4.9,16,0.00,,,0.00,VWS V14.01,2013-05-09 01:04:00,
2013-05-08 21:05:00,73.6,27.5,30.12,WNW,292,2.9,4.9,18,0.00,,,0.00,VWS V14.01,2013-05-09 01:05:00,
2013-05-08 21:06:00,73.6,27.5,30.12,SW,225,1.6,4.0,18,0.00,,,0.00,VWS V14.01,2013-05-09 01:06:00,
2013-05-08 21:07:00,73.6,27.5,30.12,WNW,292,2.7,2.7,18,0.00,,,0.00,VWS V14.01,2013-05-09 01:07:00,
2013-05-08 21:08:00,68.9,32.6,30.12,West,270,1.6,2.9,26,0.00,,,0.00,VWS V14.01,2013-05-09 01:08:00,
2013-05-08 21:09:00,73.4,27.4,30.12,West,270,3.4,3.4,18,0.00,,,0.00,VWS V14.01,2013-05-09 01:09:00,
2013-05-08 21:10:00,73.2,28.5,30.12,West,270,3.1,3.6,19,0.00,,,0.00,VWS V14.01,2013-05-09 01:10:00,
2013-05-08 21:11:00,73.0,30.8,30.12,West,270,3.8,6.0,21,0.00,,,0.00,VWS V14.01,2013-05-09 01:11:00,
2013-05-08 21:12:00,73.0,30.8,30.12,WNW,292,2.2,5.6,21,0.00,,,0.00,VWS V14.01,2013-05-09 01:12:00,
2013-05-08 21:13:00,68.7,33.4,30.12,WSW,248,0.0,0.0,27,0.00,,,0.00,VWS V14.01,2013-05-09 01:13:00,
2013-05-08 21:14:00,73.0,30.8,30.12,WNW,292,3.4,3.4,21,0.00,,,0.00,VWS V14.01,2013-05-09 01:14:00,
2013-05-08 21:15:00,73.0,30.8,30.12,WNW,292,2.9,3.4,21,0.00,,,0.00,VWS V14.01,2013-05-09 01:15:00,
2013-05-08 21:16:00,73.0,30.8,30.12,West,270,1.6,5.6,21,0.00,,,0.00,VWS V14.01,2013-05-09 01:16:00,
2013-05-08 21:17:00,73.0,30.8,30.15,WNW,292,3.4,4.3,21,0.00,,,0.00,VWS V14.01,2013-05-09 01:17:00,
2013-05-08 21:18:00,68.7,34.3,30.12,West,270,0.0,0.0,28,0.00,,,0.00,VWS V14.01,2013-05-09 01:18:00,
2013-05-08 21:19:00,72.9,30.7,30.15,West,270,4.5,4.9,21,0.00,,,0.00,VWS V14.01,2013-05-09 01:19:00,
2013-05-08 21:20:00,72.9,30.7,30.15,SSW,202,3.6,5.8,21,0.00,,,0.00,VWS V14.01,2013-05-09 01:20:00,
2013-05-08 21:21:00,72.9,30.7,30.15,SSW,202,3.6,3.6,21,0.00,,,0.00,VWS V14.01,2013-05-09 01:21:00,
2013-05-08 21:22:00,72.7,30.5,30.15,West,270,5.4,5.6,21,0.00,,,0.00,VWS V14.01,2013-05-09 01:22:00,
2013-05-08 21:23:00,68.7,35.2,30.15,WSW,248,0.0,1.1,29,0.00,,,0.00,VWS V14.01,2013-05-09 01:23:00,
2013-05-08 21:24:00,72.7,30.5,30.15,West,270,3.4,4.9,21,0.00,,,0.00,VWS V14.01,2013-05-09 01:24:00,
2013-05-08 21:25:00,72.7,31.7,30.15,NNW,338,4.7,4.7,22,0.00,,,0.00,VWS V14.01,2013-05-09 01:25:00,
2013-05-08 21:26:00,72.5,31.5,30.15,NW,315,3.4,5.6,22,0.00,,,0.00,VWS V14.01,2013-05-09 01:26:00,
2013-05-08 21:27:00,72.3,31.4,30.15,West,270,5.4,5.4,22,0.00,,,0.00,VWS V14.01,2013-05-09 01:27:00,
2013-05-08 21:28:00,68.5,35.9,30.15,WSW,248,1.3,1.3,30,0.00,,,0.00,VWS V14.01,2013-05-09 01:28:00,
2013-05-08 21:29:00,72.3,31.4,30.15,West,270,3.6,3.6,22,0.00,,,0.00,VWS V14.01,2013-05-09 01:29:00,
2013-05-08 21:30:00,72.1,31.2,30.15,WSW,248,3.1,5.8,22,0.00,,,0.00,VWS V14.01,2013-05-09 01:30:00,
2013-05-08 21:31:00,72.1,31.2,30.15,NW,315,3.4,4.3,22,0.00,,,0.00,VWS V14.01,2013-05-09 01:31:00,
2013-05-08 21:32:00,72.0,31.1,30.15,ENE,68,3.4,3.4,22,0.00,,,0.00,VWS V14.01,2013-05-09 01:32:00,
2013-05-08 21:33:00,68.5,35.0,30.15,WSW,248,2.5,2.5,29,0.00,,,0.00,VWS V14.01,2013-05-09 01:33:00,
2013-05-08 21:34:00,72.0,31.1,30.15,WNW,292,5.6,5.6,22,0.00,,,0.00,VWS V14.01,2013-05-09 01:34:00,
2013-05-08 21:35:00,71.8,30.9,30.15,WNW,292,5.6,5.6,22,0.00,,,0.00,VWS V14.01,2013-05-09 01:35:00,
2013-05-08 21:36:00,71.8,30.9,30.15,WNW,292,3.6,5.6,22,0.00,,,0.00,VWS V14.01,2013-05-09 01:36:00,
2013-05-08 21:37:00,71.8,30.9,30.15,SW,225,2.0,4.7,22,0.00,,,0.00,VWS V14.01,2013-05-09 01:37:00,
2013-05-08 21:38:00,68.4,36.6,30.15,West,270,0.0,0.0,31,0.00,,,0.00,VWS V14.01,2013-05-09 01:38:00,
2013-05-08 21:39:00,71.6,30.8,30.15,WNW,292,4.0,4.0,22,0.00,,,0.00,VWS V14.01,2013-05-09 01:39:00,
2013-05-08 21:40:00,71.6,30.8,30.15,West,270,2.0,4.0,22,0.00,,,0.00,VWS V14.01,2013-05-09 01:40:00,
2013-05-08 21:41:00,71.6,30.8,30.15,SW,225,3.1,3.1,22,0.00,,,0.00,VWS V14.01,2013-05-09 01:41:00,
2013-05-08 21:42:00,71.4,31.7,30.15,WSW,248,3.1,4.0,23,0.00,,,0.00,VWS V14.01,2013-05-09 01:42:00,
2013-05-08 21:43:00,68.4,35.8,30.15,WSW,248,1.3,1.6,30,0.00,,,0.00,VWS V14.01,2013-05-09 01:43:00,
2013-05-08 21:44:00,71.4,31.7,30.15,WSW,248,2.0,4.3,23,0.00,,,0.00,VWS V14.01,2013-05-09 01:44:00,
2013-05-08 21:45:00,71.2,31.6,30.15,WNW,292,4.3,4.3,23,0.00,,,0.00,VWS V14.01,2013-05-09 01:45:00,
2013-05-08 21:46:00,71.2,31.6,30.15,West,270,2.7,4.3,23,0.00,,,0.00,VWS V14.01,2013-05-09 01:46:00,
2013-05-08 21:47:00,71.2,31.6,30.15,West,270,2.9,3.8,23,0.00,,,0.00,VWS V14.01,2013-05-09 01:47:00,
2013-05-08 21:48:00,68.2,35.6,30.15,WNW,292,0.0,0.0,30,0.00,,,0.00,VWS V14.01,2013-05-09 01:48:00,
2013-05-08 21:49:00,71.1,31.4,30.15,WSW,248,1.6,4.7,23,0.00,,,0.00,VWS V14.01,2013-05-09 01:49:00,
2013-05-08 21:50:00,71.1,31.4,30.15,SW,225,2.7,3.8,23,0.00,,,0.00,VWS V14.01,2013-05-09 01:50:00,
2013-05-08 21:51:00,71.1,31.4,30.15,NW,315,1.3,4.7,23,0.00,,,0.00,VWS V14.01,2013-05-09 01:51:00,
2013-05-08 21:52:00,71.1,31.4,30.15,SSW,202,1.3,2.9,23,0.00,,,0.00,VWS V14.01,2013-05-09 01:52:00,
2013-05-08 21:53:00,68.2,37.2,30.12,WSW,248,0.0,0.0,32,0.00,,,0.00,VWS V14.01,2013-05-09 01:53:00,
2013-05-08 21:54:00,70.9,31.3,30.15,West,270,3.6,4.0,23,0.00,,,0.00,VWS V14.01,2013-05-09 01:54:00,
2013-05-08 21:55:00,70.9,32.3,30.15,WSW,248,2.5,3.6,24,0.00,,,0.00,VWS V14.01,2013-05-09 01:55:00,
2013-05-08 21:56:00,70.9,32.3,30.15,West,270,2.0,5.4,24,0.00,,,0.00,VWS V14.01,2013-05-09 01:56:00,
2013-05-08 21:57:00,70.9,32.3,30.15,NW,315,2.0,3.4,24,0.00,,,0.00,VWS V14.01,2013-05-09 01:57:00,
2013-05-08 21:58:00,68.2,36.4,30.12,WSW,248,0.0,0.0,31,0.00,,,0.00,VWS V14.01,2013-05-09 01:58:00,
2013-05-08 21:59:00,70.7,32.2,30.15,NW,315,2.9,3.6,24,0.00,,,0.00,VWS V14.01,2013-05-09 01:59:00,
2013-05-08 22:00:00,70.7,32.2,30.15,ENE,68,0.9,2.9,24,0.00,,,0.00,VWS V14.01,2013-05-09 02:00:00,
2013-05-08 22:01:00,70.7,32.2,30.15,West,270,0.9,2.0,24,0.00,,,0.00,VWS V14.01,2013-05-09 02:01:00,
2013-05-08 22:02:00,70.7,32.2,30.15,West,270,0.9,0.9,24,0.00,,,0.00,VWS V14.01,2013-05-09 02:02:00,
2013-05-08 22:03:00,68.0,37.1,30.12,West,270,0.0,0.0,32,0.00,,,0.00,VWS V14.01,2013-05-09 02:03:00,
2013-05-08 22:04:00,70.5,32.0,30.15,NNW,338,3.4,3.4,24,0.00,,,0.00,VWS V14.01,2013-05-09 02:04:00,
2013-05-08 22:05:00,70.3,31.9,30.15,SSE,158,0.0,3.4,24,0.00,,,0.00,VWS V14.01,2013-05-09 02:05:00,
2013-05-08 22:06:00,70.3,31.9,30.15,SW,225,3.6,3.6,24,0.00,,,0.00,VWS V14.01,2013-05-09 02:06:00,
2013-05-08 22:07:00,70.3,31.9,30.15,WNW,292,1.6,3.6,24,0.00,,,0.00,VWS V14.01,2013-05-09 02:07:00,
2013-05-08 22:08:00,67.8,37.7,30.15,WSW,248,0.0,0.0,33,0.00,,,0.00,VWS V14.01,2013-05-09 02:08:00,
2013-05-08 22:09:00,70.2,31.7,30.15,WSW,248,2.9,2.9,24,0.00,,,0.00,VWS V14.01,2013-05-09 02:09:00,
2013-05-08 22:10:00,70.2,31.7,30.15,WSW,248,2.5,2.9,24,0.00,,,0.00,VWS V14.01,2013-05-09 02:10:00,
2013-05-08 22:11:00,70.2,31.7,30.15,WSW,248,1.1,2.5,24,0.00,,,0.00,VWS V14.01,2013-05-09 02:11:00,
2013-05-08 22:12:00,70.2,31.7,30.15,WSW,248,1.3,3.1,24,0.00,,,0.00,VWS V14.01,2013-05-09 02:12:00,
2013-05-08 22:13:00,68.0,37.8,30.15,West,270,2.0,2.0,33,0.00,,,0.00,VWS V14.01,2013-05-09 02:13:00,
2013-05-08 22:14:00,70.0,31.6,30.15,West,270,2.2,2.7,24,0.00,,,0.00,VWS V14.01,2013-05-09 02:14:00,
2013-05-08 22:15:00,69.8,31.4,30.15,WNW,292,2.2,2.2,24,0.00,,,0.00,VWS V14.01,2013-05-09 02:15:00,
2013-05-08 22:16:00,69.8,31.4,30.15,WNW,292,2.2,2.2,24,0.00,,,0.00,VWS V14.01,2013-05-09 02:16:00,
2013-05-08 22:17:00,69.8,31.4,30.15,West,270,1.1,2.2,24,0.00,,,0.00,VWS V14.01,2013-05-09 02:17:00,
2013-05-08 22:18:00,68.2,38.8,30.15,West,270,2.9,2.9,34,0.00,,,0.00,VWS V14.01,2013-05-09 02:18:00,
2013-05-08 22:19:00,69.8,31.4,30.15,West,270,1.3,1.3,24,0.00,,,0.00,VWS V14.01,2013-05-09 02:19:00,
2013-05-08 22:20:00,69.8,32.4,30.15,SSW,202,3.1,3.4,25,0.00,,,0.00,VWS V14.01,2013-05-09 02:20:00,
2013-05-08 22:21:00,69.8,32.4,30.15,ESE,112,0.0,3.1,25,0.00,,,0.00,VWS V14.01,2013-05-09 02:21:00,
2013-05-08 22:22:00,69.8,32.4,30.15,ESE,112,2.2,2.2,25,0.00,,,0.00,VWS V14.01,2013-05-09 02:22:00,
2013-05-08 22:23:00,68.2,38.8,30.15,West,270,2.9,2.9,34,0.00,,,0.00,VWS V14.01,2013-05-09 02:23:00,
2013-05-08 22:24:00,69.6,32.3,30.15,WSW,248,1.1,1.6,25,0.00,,,0.00,VWS V14.01,2013-05-09 02:24:00,
2013-05-08 22:25:00,69.6,32.3,30.15,WSW,248,0.0,1.3,25,0.00,,,0.00,VWS V14.01,2013-05-09 02:25:00,
2013-05-08 22:26:00,69.6,32.3,30.15,SSW,202,0.0,0.0,25,0.00,,,0.00,VWS V14.01,2013-05-09 02:26:00,
2013-05-08 22:27:00,69.6,33.2,30.15,West,270,1.3,3.6,26,0.00,,,0.00,VWS V14.01,2013-05-09 02:27:00,
2013-05-08 22:28:00,68.2,38.8,30.15,WNW,292,0.9,2.2,34,0.00,,,0.00,VWS V14.01,2013-05-09 02:28:00,
2013-05-08 22:29:00,69.6,33.2,30.15,WSW,248,2.5,2.5,26,0.00,,,0.00,VWS V14.01,2013-05-09 02:29:00,
2013-05-08 22:30:00,69.4,33.1,30.15,SW,225,2.2,2.5,26,0.00,,,0.00,VWS V14.01,2013-05-09 02:30:00,
2013-05-08 22:31:00,69.4,33.1,30.15,WNW,292,1.3,2.5,26,0.00,,,0.00,VWS V14.01,2013-05-09 02:31:00,
2013-05-08 22:32:00,69.4,33.1,30.15,SW,225,1.6,2.2,26,0.00,,,0.00,VWS V14.01,2013-05-09 02:32:00,
2013-05-08 22:33:00,68.2,38.8,30.15,WNW,292,2.2,2.2,34,0.00,,,0.00,VWS V14.01,2013-05-09 02:33:00,
2013-05-08 22:34:00,69.4,33.1,30.15,SW,225,0.0,1.3,26,0.00,,,0.00,VWS V14.01,2013-05-09 02:34:00,
2013-05-08 22:35:00,69.3,32.9,30.15,SW,225,0.9,0.9,26,0.00,,,0.00,VWS V14.01,2013-05-09 02:35:00,
2013-05-08 22:36:00,69.3,32.9,30.15,WSW,248,2.2,2.2,26,0.00,,,0.00,VWS V14.01,2013-05-09 02:36:00,
2013-05-08 22:37:00,69.3,32.9,30.15,WSW,248,2.2,2.2,26,0.00,,,0.00,VWS V14.01,2013-05-09 02:37:00,
2013-05-08 22:38:00,68.2,38.8,30.15,SW,225,0.0,0.0,34,0.00,,,0.00,VWS V14.01,2013-05-09 02:38:00,
2013-05-08 22:39:00,69.3,32.9,30.15,WSW,248,0.0,0.0,26,0.00,,,0.00,VWS V14.01,2013-05-09 02:39:00,
2013-05-08 22:40:00,69.3,32.9,30.15,WSW,248,0.0,0.0,26,0.00,,,0.00,VWS V14.01,2013-05-09 02:40:00,
2013-05-08 22:41:00,69.3,32.9,30.15,WSW,248,0.0,0.0,26,0.00,,,0.00,VWS V14.01,2013-05-09 02:41:00,
2013-05-08 22:42:00,69.1,32.8,30.15,West,270,0.0,0.0,26,0.00,,,0.00,VWS V14.01,2013-05-09 02:42:00,
2013-05-08 22:43:00,68.4,38.9,30.15,West,270,2.0,2.0,34,0.00,,,0.00,VWS V14.01,2013-05-09 02:43:00,
2013-05-08 22:44:00,68.9,32.6,30.12,WNW,292,2.9,2.9,26,0.00,,,0.00,VWS V14.01,2013-05-09 02:44:00,
2013-05-08 22:45:00,68.9,32.6,30.12,West,270,1.1,2.9,26,0.00,,,0.00,VWS V14.01,2013-05-09 02:45:00,
2013-05-08 22:46:00,68.9,32.6,30.12,WSW,248,1.3,1.3,26,0.00,,,0.00,VWS V14.01,2013-05-09 02:46:00,
2013-05-08 22:47:00,68.9,32.6,30.12,WSW,248,1.3,1.3,26,0.00,,,0.00,VWS V14.01,2013-05-09 02:47:00,
2013-05-08 22:48:00,68.9,32.6,30.12,West,270,0.0,1.3,26,0.00,,,0.00,VWS V14.01,2013-05-09 02:48:00,
2013-05-08 22:49:00,68.4,38.9,30.15,West,270,0.9,2.2,34,0.00,,,0.00,VWS V14.01,2013-05-09 02:49:00,
2013-05-08 22:50:00,68.7,34.3,30.12,SW,225,0.0,0.0,28,0.00,,,0.00,VWS V14.01,2013-05-09 02:50:00,
2013-05-08 22:51:00,68.7,34.3,30.12,SW,225,0.0,0.0,28,0.00,,,0.00,VWS V14.01,2013-05-09 02:51:00,
2013-05-08 22:52:00,68.7,34.3,30.12,WNW,292,0.0,0.0,28,0.00,,,0.00,VWS V14.01,2013-05-09 02:52:00,
2013-05-08 22:53:00,68.7,34.3,30.12,NW,315,0.0,0.0,28,0.00,,,0.00,VWS V14.01,2013-05-09 02:53:00,
2013-05-08 22:54:00,68.2,38.8,30.15,ESE,112,0.9,2.0,34,0.00,,,0.00,VWS V14.01,2013-05-09 02:54:00,
2013-05-08 22:55:00,68.7,34.3,30.12,West,270,0.0,0.0,28,0.00,,,0.00,VWS V14.01,2013-05-09 02:55:00,
2013-05-08 22:56:00,68.7,35.2,30.12,WSW,248,1.1,1.1,29,0.00,,,0.00,VWS V14.01,2013-05-09 02:56:00,
2013-05-08 22:57:00,68.7,35.2,30.12,WSW,248,0.0,2.0,29,0.00,,,0.00,VWS V14.01,2013-05-09 02:57:00,
2013-05-08 22:58:00,68.7,34.3,30.15,WNW,292,0.9,2.0,28,0.00,,,0.00,VWS V14.01,2013-05-09 02:58:00,
2013-05-08 22:59:00,68.0,38.6,30.15,West,270,0.0,1.1,34,0.00,,,0.00,VWS V14.01,2013-05-09 02:59:00,
2013-05-08 23:00:00,68.5,34.2,30.15,West,270,1.1,1.1,28,0.00,,,0.00,VWS V14.01,2013-05-09 03:00:00,
2013-05-08 23:01:00,68.5,35.0,30.15,SW,225,0.9,1.1,29,0.00,,,0.00,VWS V14.01,2013-05-09 03:01:00,
2013-05-08 23:02:00,68.5,34.2,30.15,SW,225,1.1,2.5,28,0.00,,,0.00,VWS V14.01,2013-05-09 03:02:00,
2013-05-08 23:03:00,68.7,36.1,30.15,SW,225,1.1,1.6,30,0.00,,,0.00,VWS V14.01,2013-05-09 03:03:00,
2013-05-08 23:04:00,67.6,38.3,30.15,SW,225,0.0,0.0,34,0.00,,,0.00,VWS V14.01,2013-05-09 03:04:00,
2013-05-08 23:05:00,68.5,35.9,30.15,WSW,248,1.6,1.6,30,0.00,,,0.00,VWS V14.01,2013-05-09 03:05:00,
2013-05-08 23:06:00,68.5,35.9,30.15,WSW,248,1.6,1.6,30,0.00,,,0.00,VWS V14.01,2013-05-09 03:06:00,
2013-05-08 23:07:00,68.5,35.0,30.15,WSW,248,0.0,1.6,29,0.00,,,0.00,VWS V14.01,2013-05-09 03:07:00,
2013-05-08 23:08:00,68.5,35.0,30.15,WSW,248,2.2,2.2,29,0.00,,,0.00,VWS V14.01,2013-05-09 03:08:00,
2013-05-08 23:09:00,67.5,38.1,30.18,SW,225,0.0,0.0,34,0.00,,,0.00,VWS V14.01,2013-05-09 03:09:00,
2013-05-08 23:10:00,68.4,34.9,30.15,West,270,0.0,2.5,29,0.00,,,0.00,VWS V14.01,2013-05-09 03:10:00,
2013-05-08 23:11:00,68.4,34.9,30.15,NNW,338,0.0,0.0,29,0.00,,,0.00,VWS V14.01,2013-05-09 03:11:00,
2013-05-08 23:12:00,68.4,35.8,30.15,WSW,248,0.0,0.0,30,0.00,,,0.00,VWS V14.01,2013-05-09 03:12:00,
2013-05-08 23:13:00,68.5,35.9,30.15,WSW,248,0.0,0.0,30,0.00,,,0.00,VWS V14.01,2013-05-09 03:13:00,
2013-05-08 23:14:00,66.9,37.7,30.18,NW,315,0.9,0.9,34,0.00,,,0.00,VWS V14.01,2013-05-09 03:14:00,
2013-05-08 23:15:00,68.4,36.6,30.15,West,270,0.0,0.0,31,0.00,,,0.00,VWS V14.01,2013-05-09 03:15:00,
2013-05-08 23:16:00,68.4,35.8,30.15,WNW,292,0.0,0.0,30,0.00,,,0.00,VWS V14.01,2013-05-09 03:16:00,
2013-05-08 23:17:00,68.4,35.8,30.15,SW,225,1.3,1.3,30,0.00,,,0.00,VWS V14.01,2013-05-09 03:17:00,
2013-05-08 23:18:00,68.4,35.8,30.15,SW,225,0.0,1.3,30,0.00,,,0.00,VWS V14.01,2013-05-09 03:18:00,
2013-05-08 23:19:00,67.1,39.3,30.18,West,270,2.0,3.1,36,0.00,,,0.00,VWS V14.01,2013-05-09 03:19:00,
2013-05-08 23:21:00,68.4,35.8,30.15,WSW,248,0.0,1.6,30,0.00,,,0.00,VWS V14.01,2013-05-09 03:21:00,
2013-05-08 23:22:00,68.4,35.8,30.15,North,0,0.0,0.0,30,0.00,,,0.00,VWS V14.01,2013-05-09 03:22:00,
2013-05-08 23:23:00,68.4,35.8,30.15,WNW,292,0.0,0.0,30,0.00,,,0.00,VWS V14.01,2013-05-09 03:23:00,
2013-05-08 23:24:00,67.1,40.0,30.18,WNW,292,2.0,3.1,37,0.00,,,0.00,VWS V14.01,2013-05-09 03:24:00,
2013-05-08 23:25:00,68.2,35.6,30.15,West,270,0.0,0.0,30,0.00,,,0.00,VWS V14.01,2013-05-09 03:25:00,
2013-05-08 23:26:00,68.4,37.4,30.15,West,270,0.0,0.0,32,0.00,,,0.00,VWS V14.01,2013-05-09 03:26:00,
2013-05-08 23:27:00,68.2,36.4,30.15,WSW,248,0.0,0.0,31,0.00,,,0.00,VWS V14.01,2013-05-09 03:27:00,
2013-05-08 23:28:00,68.4,37.4,30.12,WSW,248,0.0,0.0,32,0.00,,,0.00,VWS V14.01,2013-05-09 03:28:00,
2013-05-08 23:29:00,67.1,40.0,30.18,West,270,0.0,1.1,37,0.00,,,0.00,VWS V14.01,2013-05-09 03:29:00,
2013-05-08 23:30:00,68.2,37.2,30.12,WSW,248,0.0,0.0,32,0.00,,,0.00,VWS V14.01,2013-05-09 03:30:00,
2013-05-08 23:31:00,68.2,37.2,30.12,WSW,248,0.0,0.0,32,0.00,,,0.00,VWS V14.01,2013-05-09 03:31:00,
2013-05-08 23:32:00,68.2,36.4,30.12,WSW,248,2.0,2.0,31,0.00,,,0.00,VWS V14.01,2013-05-09 03:32:00,
2013-05-08 23:33:00,68.2,36.4,30.12,WSW,248,0.0,2.0,31,0.00,,,0.00,VWS V14.01,2013-05-09 03:33:00,
2013-05-08 23:34:00,67.1,40.0,30.18,WSW,248,0.0,0.0,37,0.00,,,0.00,VWS V14.01,2013-05-09 03:34:00,
2013-05-08 23:35:00,68.2,37.2,30.12,WSW,248,0.0,0.0,32,0.00,,,0.00,VWS V14.01,2013-05-09 03:35:00,
2013-05-08 23:36:00,68.2,37.2,30.12,WSW,248,0.0,0.0,32,0.00,,,0.00,VWS V14.01,2013-05-09 03:36:00,
2013-05-08 23:37:00,68.0,37.1,30.12,WSW,248,0.0,0.0,32,0.00,,,0.00,VWS V14.01,2013-05-09 03:37:00,
2013-05-08 23:38:00,68.0,37.1,30.12,WSW,248,0.0,0.0,32,0.00,,,0.00,VWS V14.01,2013-05-09 03:38:00,
2013-05-08 23:39:00,66.9,39.1,30.18,WSW,248,0.0,0.0,36,0.00,,,0.00,VWS V14.01,2013-05-09 03:39:00,
2013-05-08 23:40:00,68.0,37.1,30.12,WNW,292,0.0,0.0,32,0.00,,,0.00,VWS V14.01,2013-05-09 03:40:00,
2013-05-08 23:41:00,68.0,37.1,30.12,WNW,292,0.0,0.0,32,0.00,,,0.00,VWS V14.01,2013-05-09 03:41:00,
2013-05-08 23:42:00,68.0,37.1,30.12,West,270,0.0,0.0,32,0.00,,,0.00,VWS V14.01,2013-05-09 03:42:00,
2013-05-08 23:43:00,68.0,37.1,30.15,SW,225,0.0,0.0,32,0.00,,,0.00,VWS V14.01,2013-05-09 03:43:00,
2013-05-08 23:44:00,66.7,39.7,30.18,WSW,248,0.0,0.0,37,0.00,,,0.00,VWS V14.01,2013-05-09 03:44:00,
2013-05-08 23:45:00,67.8,37.7,30.15,West,270,0.9,0.9,33,0.00,,,0.00,VWS V14.01,2013-05-09 03:45:00,
2013-05-08 23:46:00,67.8,36.9,30.15,West,270,1.1,1.6,32,0.00,,,0.00,VWS V14.01,2013-05-09 03:46:00,
2013-05-08 23:47:00,67.8,36.9,30.15,WNW,292,1.6,1.6,32,0.00,,,0.00,VWS V14.01,2013-05-09 03:47:00,
2013-05-08 23:48:00,67.8,36.9,30.15,WNW,292,1.6,1.6,32,0.00,,,0.00,VWS V14.01,2013-05-09 03:48:00,
2013-05-08 23:49:00,66.4,38.6,30.18,WSW,248,0.0,0.0,36,0.00,,,0.00,VWS V14.01,2013-05-09 03:49:00,
2013-05-08 23:50:00,68.0,37.8,30.15,WNW,292,2.5,2.5,33,0.00,,,0.00,VWS V14.01,2013-05-09 03:50:00,
2013-05-08 23:51:00,68.0,37.8,30.15,West,270,2.5,2.5,33,0.00,,,0.00,VWS V14.01,2013-05-09 03:51:00,
2013-05-08 23:52:00,68.0,37.8,30.15,WNW,292,2.9,2.9,33,0.00,,,0.00,VWS V14.01,2013-05-09 03:52:00,
2013-05-08 23:53:00,68.2,38.8,30.15,WNW,292,1.6,3.1,34,0.00,,,0.00,VWS V14.01,2013-05-09 03:53:00,
2013-05-08 23:54:00,66.6,38.8,30.18,WSW,248,0.0,0.0,36,0.00,,,0.00,VWS V14.01,2013-05-09 03:54:00,
2013-05-08 23:55:00,68.2,38.8,30.15,WNW,292,1.6,2.9,34,0.00,,,0.00,VWS V14.01,2013-05-09 03:55:00,
2013-05-08 23:56:00,68.2,38.8,30.15,West,270,1.6,2.5,34,0.00,,,0.00,VWS V14.01,2013-05-09 03:56:00,
2013-05-08 23:57:00,68.2,38.8,30.15,SSW,202,0.9,2.0,34,0.00,,,0.00,VWS V14.01,2013-05-09 03:57:00,
2013-05-08 23:58:00,68.2,38.8,30.15,WNW,292,2.7,2.7,34,0.00,,,0.00,VWS V14.01,2013-05-09 03:58:00,
2013-05-08 23:59:00,66.0,38.3,30.18,NNW,338,0.0,0.0,36,0.00,,,0.00,VWS V14.01,2013-05-09 03:59:00,